[[{"header":{"parameterUnit":"m.s-1","parameterCategory":1,"la1":30.6,"la2":28.766,"lo1":-90.7593,"lo2":-88.6598,"dy":0.0162,"dx":0.0183,"nx":116,"ny":114,"refTime":"2024-06-12T18:00:00:Z","depth":0,"parameterNumber":2,"parameterNumberName":"U-component_of_WINDS"},"data":[0.0,0.0,0.0,0.0,0.0,0.0,0.0,0.0,0.0,0.0,0.0,0.0,0.0,0.0,0.0,0.0,0.0,0.0,0.0,0.0,0.0,0.0,0.0,0.0,0.0,0.0,0.0,0.0,0.0,0.0,0.0,0.0,0.0,0.0,0.0,0.0,0.0,0.0,0.0,0.0,0.0,0.0,0.0,0.0,0.0,0.0,0.0,0.0,0.0,0.0,0.0,0.0,0.0,0.0,0.0,0.0,0.0,0.0,0.0,0.0,0.0,0.0,0.0,0.0,0.0,0.0,0.0,0.0,0.0,0.0,0.0,0.0,0.0,0.0,0.0,0.0,0.0,0.0,0.0,0.0,0.0,0.0,0.0,0.0,0.0,0.0,0.0,0.0,0.0,0.0,0.0,0.0,0.0,0.0,0.0,0.0,0.0,0.0,0.0,0.0,0.0,0.0,0.0,0.0,0.0,0.0,0.0,0.0,0.0,0.0,0.0,0.0,0.0,0.0,0.0,0.0,0.0,0.0,0.0,0.0,0.0,0.0,0.0,0.0,0.0,0.0,0.0,0.0,0.0,0.0,0.0,0.0,0.0,0.0,0.0,0.0,0.0,0.0,0.0,0.0,0.0,0.0,0.0,0.0,0.0,0.0,0.0,0.0,0.0,0.0,0.0,0.0,0.0,0.0,0.0,0.0,0.0,0.0,0.0,0.0,0.0,0.0,0.0,0.0,0.0,0.0,0.0,0.0,0.0,0.0,0.0,0.0,0.0,0.0,0.0,0.0,0.0,0.0,0.0,0.0,0.0,0.0,0.0,0.0,0.0,0.0,0.0,0.0,0.0,0.0,0.0,0.0,0.0,0.0,0.0,0.0,0.0,0.0,0.0,0.0,0.0,0.0,0.0,0.0,0.0,0.0,0.0,0.0,0.0,0.0,0.0,0.0,0.0,0.0,0.0,0.0,0.0,0.0,0.0,0.0,0.0,0.0,0.0,0.0,0.0,0.0,0.0,0.0,0.0,0.0,0.0,0.0,0.0,0.0,0.0,0.0,0.0,0.0,0.0,0.0,0.0,0.0,0.0,0.0,0.0,0.0,0.0,0.0,0.0,0.0,0.0,0.0,0.0,0.0,0.0,0.0,0.0,0.0,0.0,0.0,0.0,0.0,0.0,0.0,0.0,0.0,0.0,0.0,0.0,0.0,0.0,0.0,0.0,0.0,0.0,0.0,0.0,0.0,0.0,0.0,0.0,0.0,0.0,0.0,0.0,0.0,0.0,0.0,0.0,0.0,0.0,0.0,0.0,0.0,0.0,0.0,0.0,0.0,0.0,0.0,0.0,0.0,0.0,0.0,0.0,0.0,0.0,0.0,0.0,0.0,0.0,0.0,0.0,0.0,0.0,0.0,0.0,0.0,0.0,0.0,0.0,0.0,0.0,0.0,0.0,0.0,0.0,0.0,0.0,0.0,0.0,0.0,0.0,0.0,0.0,0.0,0.0,0.0,0.0,0.0,0.0,0.0,0.0,0.0,0.0,0.0,0.0,0.0,0.0,0.0,0.0,0.0,0.0,0.0,0.0,0.0,0.0,0.0,0.0,0.0,0.0,0.0,0.0,0.0,0.0,0.0,0.0,0.0,0.0,0.0,0.0,0.0,0.0,0.0,0.0,0.0,0.0,0.0,0.0,0.0,0.0,0.0,0.0,0.0,0.0,0.0,0.0,0.0,0.0,0.0,0.0,0.0,0.0,0.0,0.0,0.0,0.0,0.0,0.0,0.0,0.0,0.0,0.0,0.0,0.0,0.0,0.0,0.0,0.0,0.0,0.0,0.0,0.0,0.0,0.0,0.0,0.0,0.0,0.0,0.0,0.0,0.0,0.0,0.0,0.0,0.0,0.0,0.0,0.0,0.0,0.0,0.0,0.0,0.0,0.0,0.0,0.0,0.0,0.0,0.0,0.0,0.0,0.0,0.0,0.0,0.0,0.0,0.0,0.0,0.0,0.0,0.0,0.0,0.0,0.0,0.0,0.0,0.0,0.0,0.0,0.0,0.0,0.0,0.0,0.0,0.0,0.0,0.0,0.0,0.0,0.0,0.0,0.0,0.0,0.0,0.0,0.0,0.0,0.0,0.0,0.0,0.0,0.0,0.0,0.0,0.0,0.0,0.0,0.0,0.0,0.0,0.0,0.0,0.0,0.0,0.0,0.0,0.0,0.0,0.0,0.0,0.0,0.0,0.0,0.0,0.0,0.0,0.0,0.0,0.0,0.0,0.0,0.0,0.0,0.0,0.0,0.0,0.0,0.0,0.0,0.0,0.0,0.0,0.0,0.0,0.0,0.0,0.0,0.0,0.0,0.0,0.0,0.0,0.0,0.0,0.0,0.0,0.0,0.0,0.0,0.0,0.0,0.0,0.0,0.0,0.0,0.0,0.0,0.0,0.0,0.0,0.0,0.0,0.0,0.0,0.0,0.0,0.0,0.0,0.0,0.0,0.0,0.0,0.0,0.0,0.0,0.0,0.0,0.0,0.0,0.0,0.0,0.0,0.0,0.0,0.0,0.0,0.0,0.0,0.0,0.0,0.0,0.0,0.0,0.0,0.0,0.0,0.0,0.0,0.0,0.0,0.0,0.0,0.0,0.0,0.0,0.0,0.0,0.0,0.0,0.0,0.0,0.0,0.0,0.0,0.0,0.0,0.0,0.0,0.0,0.0,0.0,0.0,0.0,0.0,0.0,0.0,0.0,0.0,0.0,0.0,0.0,0.0,0.0,0.0,0.0,0.0,0.0,0.0,0.0,0.0,0.0,0.0,0.0,0.0,0.0,0.0,0.0,0.0,0.0,0.0,0.0,0.0,0.0,0.0,0.0,0.0,0.0,0.0,0.0,0.0,0.0,0.0,0.0,0.0,0.0,0.0,0.0,0.0,0.0,0.0,0.0,0.0,0.0,0.0,0.0,0.0,0.0,0.0,0.0,0.0,0.0,0.0,0.0,0.0,0.0,0.0,0.0,0.0,0.0,0.0,0.0,0.0,0.0,0.0,0.0,0.0,0.0,0.0,0.0,0.0,0.0,0.0,0.0,0.0,0.0,0.0,0.0,0.0,0.0,0.0,0.0,0.0,0.0,0.0,0.0,0.0,0.0,0.0,0.0,0.0,0.0,0.0,0.0,0.0,0.0,0.0,0.0,0.0,0.0,0.0,0.0,0.0,0.0,0.0,0.0,0.0,0.0,0.0,0.0,0.0,0.0,0.0,0.0,0.0,0.0,0.0,0.0,0.0,0.0,0.0,0.0,0.0,0.0,0.0,0.0,0.0,0.0,0.0,0.0,0.0,0.0,0.0,0.0,0.0,0.0,0.0,0.0,0.0,0.0,0.0,0.0,0.0,0.0,0.0,0.0,0.0,0.0,0.0,0.0,0.0,0.0,0.0,0.0,0.0,0.0,0.0,0.0,0.0,0.0,0.0,0.0,0.0,0.0,0.0,0.0,0.0,0.0,0.0,0.0,0.0,0.0,0.0,0.0,0.0,0.0,0.0,0.0,0.0,0.0,0.0,0.0,0.0,0.0,0.0,0.0,0.0,0.0,0.0,0.0,0.0,0.0,0.0,0.0,0.0,0.0,0.0,0.0,0.0,0.0,0.0,0.0,0.0,0.0,0.0,0.0,0.0,0.0,0.0,0.0,0.0,0.0,0.0,0.0,0.0,0.0,0.0,0.0,0.0,0.0,0.0,0.0,0.0,0.0,0.0,0.0,0.0,0.0,0.0,0.0,0.0,0.0,0.0,0.0,0.0,0.0,0.0,0.0,0.0,0.0,0.0,0.0,0.0,0.0,0.0,0.0,0.0,0.0,0.0,0.0,0.0,0.0,0.0,0.0,0.0,0.0,0.0,0.0,0.0,0.0,0.0,0.0,0.0,0.0,0.0,0.0,0.0,0.0,0.0,0.0,0.0,0.0,0.0,0.0,0.0,0.0,0.0,0.0,0.0,0.0,0.0,0.0,0.0,0.0,0.0,0.0,0.0,0.0,0.0,0.0,0.0,0.0,0.0,0.0,0.0,0.0,0.0,0.0,0.0,0.0,0.0,0.0,0.0,0.0,0.0,0.0,0.0,0.0,0.0,0.0,0.0,0.0,0.0,0.0,0.0,0.0,0.0,0.0,0.0,0.0,0.0,0.0,0.0,0.0,0.0,0.0,0.0,0.0,0.0,0.0,0.0,0.0,0.0,0.0,0.0,0.0,0.0,0.0,0.0,0.0,0.0,0.0,0.0,0.0,0.0,0.0,0.0,0.0,0.0,0.0,0.0,0.0,0.0,0.0,0.0,0.0,0.0,0.0,0.0,0.0,0.0,0.0,0.0,0.0,0.0,0.0,0.0,0.0,0.0,0.0,0.0,0.0,0.0,0.0,0.0,0.0,0.0,0.0,0.0,0.0,0.0,0.0,0.0,0.0,0.0,0.0,0.0,0.0,0.0,0.0,0.0,0.0,0.0,0.0,0.0,0.0,0.0,0.0,0.0,0.0,0.0,0.0,0.0,0.0,0.0,0.0,0.0,0.0,0.0,0.0,0.0,0.0,0.0,0.0,0.0,0.0,0.0,0.0,0.0,0.0,0.0,0.0,0.0,0.0,0.0,0.0,0.0,0.0,0.0,0.0,0.0,0.0,0.0,0.0,0.0,0.0,0.0,0.0,0.0,0.0,0.0,0.0,0.0,0.0,0.0,0.0,0.0,0.0,0.0,0.0,0.0,0.0,0.0,0.0,0.0,0.0,0.0,0.0,0.0,0.0,0.0,0.0,0.0,0.0,0.0,0.0,0.0,0.0,0.0,0.0,0.0,0.0,0.0,0.0,0.0,0.0,0.0,0.0,0.0,0.0,0.0,0.0,0.0,0.0,0.0,0.0,0.0,0.0,0.0,0.0,0.0,0.0,0.0,0.0,0.0,0.0,0.0,0.0,0.0,0.0,0.0,0.0,0.0,0.0,0.0,0.0,0.0,0.0,0.0,0.0,0.0,0.0,0.0,0.0,0.0,0.0,0.0,0.0,0.0,0.0,0.0,0.0,0.0,0.0,0.0,0.0,0.0,0.0,0.0,0.0,0.0,0.0,0.0,0.0,0.0,0.0,0.0,0.0,0.0,0.0,0.0,0.0,0.0,0.0,0.0,0.0,0.0,0.0,0.0,0.0,0.0,0.0,0.0,0.0,0.0,0.0,0.0,0.0,0.0,0.0,0.0,0.0,0.0,0.0,0.0,0.0,0.0,0.0,0.0,0.0,0.0,0.0,0.0,0.0,0.0,0.0,0.0,0.0,0.0,0.0,0.0,0.0,0.0,0.0,0.0,0.0,0.0,0.0,0.0,0.0,0.0,0.0,0.0,0.0,0.0,0.0,0.0,0.0,0.0,0.0,0.0,0.0,0.0,0.0,0.0,0.0,0.0,0.0,0.0,0.0,0.0,0.0,0.0,0.0,0.0,0.0,0.0,0.0,0.0,0.0,0.0,0.0,0.0,0.0,0.0,0.0,0.0,0.0,0.0,0.0,0.0,0.0,0.0,0.0,0.0,0.0,0.0,0.0,0.0,0.0,0.0,0.0,0.0,0.0,0.0,0.0,0.0,0.0,0.0,0.0,0.0,0.0,0.0,0.0,0.0,0.0,0.0,0.0,0.0,0.0,0.0,0.0,0.0,0.0,0.0,0.0,0.0,0.0,0.0,0.0,0.0,0.0,0.0,0.0,0.0,0.0,0.0,0.0,0.0,0.0,0.0,0.0,0.0,0.0,0.0,0.0,0.0,0.0,0.0,0.0,0.0,0.0,0.0,0.0,0.0,0.0,0.0,0.0,0.0,0.0,0.0,0.0,0.0,0.0,0.0,0.0,0.0,0.0,0.0,0.0,0.0,0.0,0.0,0.0,0.0,0.0,0.0,0.0,0.0,0.0,0.0,0.0,0.0,0.0,0.0,0.0,0.0,0.0,0.0,0.0,0.0,0.0,0.0,0.0,0.0,0.0,0.0,0.0,0.0,0.0,0.0,0.0,0.0,0.0,0.0,0.0,0.0,0.0,0.0,0.0,0.0,0.0,0.0,0.0,0.0,0.0,0.0,0.0,0.0,0.0,-4.0054,0.0,0.0,0.0,0.0,0.0,0.0,0.0,0.0,0.0,0.0,0.0,0.0,0.0,0.0,0.0,0.0,0.0,0.0,0.0,0.0,0.0,0.0,0.0,0.0,-3.1348,-3.2558,-3.2221,-3.244,-3.2444,-3.2109,0.0,0.0,0.0,0.0,0.0,-3.1591,-3.1171,-3.1447,-3.2389,-3.2276,-3.2942,-3.4394,-3.391,-3.2279,-2.9746,0.0,0.0,0.0,0.0,0.0,0.0,0.0,0.0,0.0,0.0,0.0,0.0,0.0,0.0,0.0,0.0,0.0,0.0,0.0,0.0,0.0,0.0,0.0,0.0,0.0,0.0,0.0,0.0,0.0,0.0,0.0,0.0,0.0,0.0,0.0,0.0,0.0,0.0,0.0,0.0,0.0,0.0,0.0,0.0,0.0,0.0,0.0,0.0,0.0,0.0,0.0,0.0,0.0,0.0,0.0,0.0,0.0,0.0,0.0,0.0,0.0,0.0,0.0,0.0,0.0,0.0,0.0,0.0,0.0,0.0,0.0,-4.2422,0.0,0.0,0.0,0.0,0.0,0.0,0.0,0.0,0.0,0.0,0.0,0.0,0.0,0.0,0.0,0.0,0.0,0.0,0.0,0.0,0.0,-2.8425,-2.9709,-3.181,-3.3016,-3.2645,-3.2932,-3.2933,-3.2433,-3.2262,0.0,0.0,0.0,-3.2219,-3.2247,-3.2341,-3.3293,-3.5064,-3.5674,-3.6892,-3.8662,-3.875,-3.6647,-3.2722,-3.1831,0.0,0.0,0.0,0.0,0.0,0.0,0.0,0.0,0.0,0.0,0.0,0.0,0.0,0.0,0.0,0.0,0.0,0.0,0.0,0.0,0.0,0.0,0.0,0.0,0.0,0.0,0.0,0.0,0.0,0.0,0.0,0.0,0.0,0.0,0.0,0.0,0.0,0.0,0.0,0.0,0.0,0.0,0.0,0.0,0.0,0.0,0.0,0.0,0.0,0.0,0.0,0.0,0.0,0.0,0.0,0.0,0.0,0.0,0.0,0.0,0.0,0.0,0.0,-5.0338,-5.0811,-5.1929,-5.1352,-5.1082,-5.0947,-4.8511,-4.7327,-4.6989,0.0,0.0,0.0,0.0,0.0,0.0,0.0,0.0,0.0,0.0,0.0,0.0,0.0,0.0,0.0,0.0,0.0,0.0,0.0,0.0,-2.8349,-2.9811,-3.1812,-3.3326,-3.4138,-3.3935,-3.3632,-3.3249,-3.302,0.0,0.0,-3.2274,-3.2247,-3.2355,-3.2828,-3.3839,-3.5431,-3.835,-4.0155,-4.0878,-4.1304,-4.0902,-3.9734,-3.6514,-3.5026,-3.4694,0.0,0.0,0.0,0.0,0.0,0.0,0.0,0.0,0.0,0.0,0.0,0.0,0.0,0.0,0.0,0.0,0.0,0.0,0.0,0.0,0.0,0.0,0.0,0.0,0.0,0.0,0.0,0.0,0.0,0.0,0.0,0.0,0.0,0.0,0.0,0.0,0.0,0.0,0.0,0.0,0.0,-3.6693,-3.8714,0.0,0.0,0.0,0.0,0.0,0.0,0.0,0.0,0.0,0.0,0.0,0.0,0.0,-4.8984,-5.0441,-5.1894,-5.2773,-5.3078,-5.4262,-5.4904,-5.5073,-5.5006,-5.4972,-5.4938,-5.4566,0.0,-4.8646,-4.7597,0.0,0.0,0.0,0.0,0.0,0.0,0.0,0.0,0.0,0.0,0.0,0.0,0.0,0.0,0.0,0.0,0.0,0.0,0.0,0.0,0.0,-3.2998,-3.4851,-3.5401,-3.6284,-3.6162,-3.4691,-3.4361,-3.3689,-3.2444,-3.2327,-3.2511,-3.2936,-3.3956,-3.6137,-3.9493,-4.2479,-4.4042,-4.4311,-4.4504,-4.4435,-4.4143,-4.1936,-3.9446,-3.6712,-3.4236,0.0,0.0,0.0,0.0,0.0,0.0,0.0,0.0,0.0,0.0,0.0,0.0,0.0,0.0,0.0,0.0,0.0,0.0,0.0,0.0,0.0,0.0,0.0,0.0,0.0,0.0,0.0,0.0,0.0,0.0,0.0,0.0,0.0,0.0,0.0,0.0,0.0,0.0,0.0,-3.6691,-3.867,-3.9959,-3.9864,-3.9945,0.0,0.0,0.0,0.0,0.0,0.0,0.0,0.0,0.0,-5.2807,-5.3213,-5.4499,-5.6867,-5.7543,-5.8321,-5.9133,-5.937,-5.9471,-5.9438,-5.9032,-5.8592,-5.8152,-5.7746,-5.6224,-5.3822,-5.142,-4.939,-4.7597,0.0,0.0,0.0,0.0,-4.4621,-4.5196,0.0,0.0,0.0,0.0,0.0,0.0,0.0,0.0,0.0,0.0,0.0,0.0,-3.1814,-3.4485,-3.6429,-3.7237,-3.8443,-3.8412,-3.663,-3.586,-3.4758,-3.3244,-3.2659,-3.2782,-3.3644,-3.5891,-3.9123,-4.3371,-4.5711,-4.6942,-4.7127,-4.7086,-4.7015,-4.7015,-4.598,-4.3364,-3.9647,-3.7087,-3.4651,-3.2347,0.0,0.0,0.0,0.0,0.0,0.0,0.0,0.0,0.0,0.0,0.0,0.0,0.0,0.0,0.0,0.0,0.0,0.0,0.0,0.0,0.0,0.0,0.0,0.0,0.0,0.0,0.0,0.0,0.0,0.0,0.0,0.0,0.0,0.0,0.0,0.0,0.0,-3.9216,-4.1071,-4.1775,-4.2802,-4.3431,0.0,0.0,0.0,0.0,0.0,0.0,-5.2739,-5.3281,-5.4871,-5.7848,-5.8118,-5.9302,-6.1569,-6.1569,-6.2144,-6.3226,-6.2651,-6.2381,-6.2381,-6.1839,-6.1163,-6.0385,-5.9844,-5.9167,-5.8186,-5.4871,-5.2841,-5.1589,-4.9357,-4.8274,-4.7936,-4.7936,-4.8274,-4.8954,0.0,0.0,0.0,0.0,0.0,0.0,0.0,0.0,0.0,0.0,0.0,-3.1036,-3.4455,-3.5906,-3.7637,-4.0071,-3.9894,-3.9551,-3.9302,-3.7332,-3.5891,-3.5368,-3.3429,-3.3029,-3.4412,-3.8939,-4.2663,-4.5434,-4.685,-4.7896,-4.8512,-4.8304,-4.8221,-4.8149,-4.73,-4.6427,-4.5354,-4.1663,-3.929,-3.7674,-3.3844,0.0,0.0,0.0,0.0,0.0,0.0,0.0,0.0,0.0,0.0,0.0,0.0,0.0,0.0,0.0,0.0,0.0,0.0,0.0,0.0,0.0,0.0,0.0,0.0,0.0,0.0,0.0,0.0,0.0,0.0,0.0,0.0,0.0,0.0,0.0,0.0,0.0,0.0,-4.5331,-4.7277,0.0,0.0,0.0,0.0,-5.2909,-5.3754,-5.5141,-5.7442,-5.8896,-6.008,-6.1028,-6.1738,-6.2178,-6.2347,-6.2347,-6.2381,-6.2448,-6.2415,-6.2381,-6.2381,-6.2347,-6.1941,-6.1231,-6.1197,-6.0723,-5.981,-5.7509,-5.531,-5.3382,-5.3213,-5.2266,-5.098,-5.098,-5.1014,-5.1082,0.0,0.0,0.0,0.0,0.0,-2.361,-2.361,-2.4537,-2.5608,-2.6603,-2.9552,-3.2375,-3.4574,-3.7469,-3.9833,-4.1164,-4.2119,-4.2041,-4.0522,-3.8708,-3.7548,-3.7269,-3.54,-3.6045,-3.9616,-4.2202,-4.4633,-4.688,-4.7804,-4.8389,-4.8604,-4.8521,-4.848,-4.848,-4.8026,-4.7646,-4.7095,-4.4022,-4.1368,-3.9023,-3.683,-3.3967,0.0,0.0,0.0,0.0,0.0,0.0,0.0,0.0,0.0,0.0,0.0,0.0,0.0,0.0,0.0,0.0,0.0,0.0,0.0,0.0,0.0,0.0,0.0,0.0,0.0,0.0,0.0,0.0,0.0,0.0,0.0,0.0,0.0,0.0,0.0,0.0,0.0,-4.9295,-5.061,0.0,-5.2021,-5.2734,-5.4142,-5.6578,-5.7618,-5.9133,-6.14,-6.2448,-6.3565,-6.4816,-6.5561,-6.617,-6.6711,-6.6711,-6.644,-6.5933,-6.5933,-6.5189,-6.3802,-6.3802,-6.3159,-6.1975,-6.1501,-6.1129,-6.0757,-5.9471,-5.7881,-5.6258,-5.5818,-5.5006,-5.4126,-5.4126,-5.4126,-5.4059,0.0,0.0,0.0,0.0,-2.361,-2.361,-2.361,-2.4926,-2.6297,-2.7295,-3.0788,-3.3905,-3.5866,-3.8963,-4.1384,-4.2485,-4.3586,-4.3548,-4.1925,-4.0401,-3.9272,-3.8678,-3.7735,-3.9093,-4.3187,-4.4572,-4.6142,-4.7958,-4.8389,-4.8604,-4.8604,-4.8604,-4.8604,-4.8563,-4.8469,-4.8343,-4.8095,-4.6255,-4.3827,-4.1129,-3.9631,-3.7331,-3.4622,0.0,0.0,0.0,0.0,0.0,0.0,0.0,0.0,0.0,0.0,0.0,0.0,0.0,0.0,0.0,0.0,0.0,0.0,0.0,0.0,0.0,0.0,0.0,0.0,0.0,0.0,0.0,0.0,0.0,0.0,0.0,0.0,0.0,0.0,0.0,-4.9682,-5.1498,-5.3554,-5.4861,-5.4939,-5.6314,-5.8117,-6.0324,-6.1428,-6.2854,-6.4884,-6.573,-6.6576,-6.7557,-6.8064,-6.8571,-6.9079,-6.9113,-6.8842,-6.8301,-6.803,-6.7117,-6.5696,-6.5459,-6.4546,-6.3125,-6.2618,-6.2144,-6.1603,-6.0825,-5.9945,-5.893,-5.7949,-5.7239,-5.6729,-5.6258,-5.6089,-5.5953,0.0,0.0,0.0,-2.361,-2.361,-2.361,-2.364,-2.5285,-2.7051,-2.8457,-3.2078,-3.5617,-3.8366,-4.0327,-4.222,-4.4098,-4.4073,-4.3876,-4.3611,-4.2294,-4.094,-3.9613,-4.029,-4.1955,-4.4641,-4.5957,-4.7281,-4.8604,-4.8604,-4.8604,-4.8604,-4.8604,-4.8604,-4.8604,-4.8563,-4.8563,-4.8563,-4.8355,-4.6769,-4.4227,-4.2321,-4.0696,-3.914,0.0,0.0,0.0,0.0,0.0,0.0,0.0,0.0,0.0,0.0,0.0,0.0,0.0,0.0,0.0,0.0,0.0,0.0,0.0,0.0,0.0,0.0,0.0,0.0,0.0,0.0,0.0,0.0,0.0,0.0,0.0,0.0,0.0,-4.4887,-4.9989,-5.3314,-5.2082,-5.6215,-5.864,-5.7421,-5.9545,-6.1929,-6.4123,-6.5261,-6.6406,-6.7861,-6.8707,-6.9147,-6.9147,-6.9147,-6.918,-6.918,-6.918,-6.9147,-6.9113,-6.8335,-6.7895,-6.7827,-6.7117,-6.5967,-6.4613,-6.4613,-6.3802,-6.2415,-6.167,-6.1366,-6.1231,-5.9674,-5.9032,-5.8829,-5.7408,-5.6833,-5.6596,0.0,0.0,-2.361,-2.361,-2.361,-2.3759,-2.4246,-2.5226,-2.6722,-2.8996,-3.2766,-3.6061,-3.8222,-4.1242,-4.3205,-4.3536,-4.3378,-4.338,-4.3645,-4.129,-4.0217,-4.1001,-4.3525,-4.5495,-4.6757,-4.7127,-4.7742,-4.8604,-4.8604,-4.8604,-4.8604,-4.8604,-4.8604,-4.8563,-4.8438,-4.8301,-4.8175,-4.788,-4.728,-4.6352,-4.506,-4.3337,-4.1392,0.0,0.0,0.0,0.0,0.0,0.0,0.0,0.0,0.0,0.0,0.0,0.0,0.0,0.0,0.0,0.0,0.0,0.0,0.0,0.0,0.0,0.0,0.0,0.0,0.0,0.0,0.0,0.0,0.0,0.0,0.0,0.0,-5.1036,-5.0543,-5.276,-5.5222,-5.7315,-5.8795,-6.016,-6.1512,-6.2951,-6.4591,-6.6552,-6.7577,-6.8335,-6.8741,-6.9485,-6.9891,-6.9891,-7.0432,-7.0703,-7.0703,-7.0703,-7.0432,-6.9891,-6.9113,-6.8199,-6.7083,-6.6339,-6.5493,-6.4613,-6.4613,-6.4377,-6.3937,-6.3193,-6.2922,-6.2685,-6.0622,-5.9471,-5.8964,-5.8558,-5.7712,-5.6731,0.0,-2.2921,-2.361,-2.361,-2.361,-2.3819,-2.4515,-2.5412,-2.6961,-2.9624,-3.3215,-3.6237,-3.8182,-4.0988,-4.2715,-4.2638,-4.2779,-4.269,-4.2311,-4.0954,-4.1387,-4.4018,-4.5711,-4.7065,-4.8019,-4.8327,-4.8666,-4.9066,-4.9343,-4.9343,-4.9066,-4.9343,-4.9189,-4.8635,-4.8817,-4.8619,-4.8133,-4.788,-4.7624,-4.7349,-4.6683,-4.5578,-4.4227,-4.2342,-4.1085,-4.0068,-3.8212,-3.7375,-3.6956,-3.5579,0.0,0.0,0.0,0.0,0.0,0.0,0.0,0.0,0.0,0.0,0.0,0.0,0.0,0.0,0.0,0.0,0.0,0.0,0.0,0.0,0.0,0.0,0.0,0.0,-5.1436,-5.4391,-5.5161,-5.6176,-5.7685,-5.9932,-6.0455,-6.1474,-6.3596,-6.4737,-6.6089,-6.791,-6.8998,-6.9688,-7.0026,-7.0432,-7.0669,-7.0669,-7.1075,-7.1312,-7.1312,-7.1312,-7.1075,-7.0635,-6.9925,-6.8944,-6.776,-6.6981,-6.6034,0.0,-6.5053,-6.4884,-6.4546,-6.3802,-6.3531,0.0,0.0,0.0,0.0,0.0,-5.8254,-5.7205,0.0,-2.3212,-2.361,-2.361,-2.361,-2.3819,-2.4515,-2.5674,-2.741,-3.0073,-3.3245,-3.6028,-3.7973,-3.9948,-4.125,-4.1535,-4.2108,-4.1926,-4.0685,-4.1572,-4.3771,-4.7342,-4.7065,-4.7434,-4.8696,-4.9374,-4.9712,-4.9805,-5.0389,-5.0389,-4.9805,-5.042,-5.002,-4.8881,-4.9393,-4.9174,-4.8351,-4.8037,-4.7794,-4.7538,-4.7396,-4.7309,-4.704,-4.4545,-4.3947,-4.4107,-4.1713,-4.0457,-3.9732,-3.8512,0.0,0.0,0.0,0.0,0.0,0.0,0.0,0.0,0.0,0.0,0.0,0.0,0.0,0.0,0.0,0.0,0.0,0.0,0.0,0.0,0.0,0.0,0.0,0.0,-5.4283,-5.6269,-5.867,-5.9655,-6.0332,-6.0855,-6.1502,-6.2674,-6.4507,-6.5524,-6.684,-6.8858,-6.9816,-7.0601,-7.1278,0.0,0.0,0.0,0.0,-7.1312,-7.1312,-7.1312,-7.1312,-7.1312,-7.0534,-6.9857,-6.918,-6.8301,-6.7184,-6.5933,-6.5865,-6.5459,-6.4783,-6.3971,-6.3531,-6.326,-6.1839,-6.1298,-6.1129,-5.9573,-5.8592,-5.7915,0.0,-2.3212,-2.361,-2.361,-2.361,-2.3819,-2.4515,-2.5262,-2.6752,-2.9415,-3.2168,-3.4651,-3.6626,-3.8601,-4.0008,-4.0621,-4.077,-4.131,-4.2416,-4.4473,-4.5988,-4.6757,-4.7711,-4.8604,-4.9466,-4.962,-4.9959,-5.0513,-5.0636,-5.0636,-5.0513,-5.0636,-5.0543,-5.0266,-4.9494,-4.9035,-4.8809,-4.7865,-4.7439,-4.7352,-4.7309,-4.7309,-4.7189,-4.6142,-4.5484,-4.4975,-4.3928,-4.3479,-4.324,-4.2423,-4.1683,-4.0853,-3.9619,-3.7973,0.0,0.0,0.0,0.0,0.0,0.0,0.0,0.0,0.0,0.0,0.0,0.0,0.0,0.0,0.0,0.0,0.0,0.0,0.0,-5.4037,-5.7315,-5.9809,-6.0332,-6.1471,-6.2086,-6.1656,-6.221,-6.3672,-6.6299,-6.6759,-6.7961,-7.0601,-7.0985,-7.1142,-7.1312,-7.1312,-7.1312,-7.1312,-7.1312,-7.1312,-7.1312,-7.1312,-7.1312,-7.1312,0.0,0.0,-6.9925,-6.8538,-6.7726,-6.7421,-6.6846,-6.6508,-6.6271,-6.4952,-6.37,-6.2516,-6.1637,-6.1298,-6.1129,-5.9573,-5.893,-5.8693,-2.3092,-2.34,-2.361,-2.361,-2.361,-2.3819,-2.4515,-2.5173,-2.6572,-2.9262,-3.13,-3.3275,-3.5282,-3.6656,-3.7584,-3.7913,-3.8612,-4.0366,-4.3472,-4.4802,-4.6085,-4.7558,-4.8142,-4.8817,-4.9682,-4.9904,-5.0383,-5.119,-5.1528,-5.1528,-5.1221,-5.1559,-5.1344,-5.0697,-5.0319,-4.9917,-4.9452,-4.8769,-4.8219,-4.7788,-4.7788,-4.7608,-4.7279,-4.695,-4.6591,-4.6262,-4.5933,-4.5603,-4.5214,-4.4556,-4.3868,-4.318,-4.2192,-4.0726,-3.908,0.0,0.0,0.0,0.0,0.0,0.0,0.0,0.0,0.0,0.0,0.0,0.0,0.0,0.0,-4.8756,0.0,0.0,-5.5807,-5.75,-5.9747,-6.1409,-6.1748,-6.2671,-6.3195,-6.2856,-6.3133,-6.4231,-6.6582,-6.7304,-6.8405,-7.0356,-7.1007,-7.1312,-7.1312,-7.1312,-7.1312,-7.1312,-7.1312,-7.1312,-7.1312,-7.1312,-7.1312,-7.1312,-7.0939,-7.0567,-7.0161,-6.9383,-6.8639,-6.7895,-6.7523,-6.7151,-6.6711,-6.5222,-6.3734,-6.2347,-6.1975,-6.1637,-6.1163,-5.9979,-5.9336,-5.8896,-2.349,-2.361,-2.361,-2.361,-2.361,-2.3789,-2.4306,-2.5083,-2.6422,-2.8723,-3.0372,-3.1959,-3.3724,-3.4622,-3.528,-3.5669,-3.7154,-3.9809,-4.3937,-4.4472,-4.5813,-4.8388,-4.855,-4.8948,-4.9738,-5.0297,-5.0971,-5.1809,-5.2407,-5.2421,-5.1898,-5.2407,-5.2024,-5.101,-5.1114,-5.08,-5.0092,-4.9718,-4.9044,-4.8297,-4.8297,-4.7908,-4.7309,-4.7309,-4.7309,-4.7279,-4.716,-4.6681,-4.6022,-4.5334,-4.4766,-4.4197,-4.3499,-4.2611,-4.1384,-3.9529,-3.8332,0.0,0.0,0.0,0.0,0.0,0.0,0.0,0.0,0.0,-4.7232,-4.9573,-5.1225,-5.3098,-5.5807,-5.71,-5.8454,-6.064,-6.1686,-6.2394,-6.2948,-6.3595,-6.3995,-6.3841,-6.3964,-6.4615,-6.6165,-6.7401,-6.8486,-6.942,-7.0632,-7.1312,-7.1312,-7.1312,-7.1312,-7.1312,-7.1312,-7.1312,-7.1312,-7.1312,-7.1312,-7.1312,-7.1312,-7.1007,-7.0398,-7.0263,-6.9417,-6.8132,-6.7827,-6.7184,-6.6305,-6.5087,-6.3734,-6.2381,-6.2381,-6.2042,-6.14,-6.0452,-5.9708,-5.9099,0.0,-2.361,-2.361,-2.361,-2.361,-2.364,-2.3699,-2.4807,-2.5914,-2.6811,-2.9086,-3.0941,-3.175,-3.2976,-3.4442,-3.6207,-3.8266,-4.0697,-4.3572,-4.52,-4.6661,-4.803,-4.9009,-4.9684,-4.9965,-5.1032,-5.1765,-5.2229,-5.2532,-5.2667,-5.2606,-5.2411,-5.226,-5.2062,-5.1092,-5.0593,-5.0502,-4.9674,-4.894,-4.8297,-4.8297,-4.7908,-4.7309,-4.7309,-4.7309,-4.7219,-4.6651,-4.5992,-4.5304,-4.4646,-4.4377,-4.4197,-4.3499,-4.32,-4.2851,-4.1444,0.0,-3.8482,-3.9469,-4.1053,-4.2902,-4.503,-4.5253,-4.6385,0.0,0.0,-5.1676,-5.5144,-5.6915,-5.7993,-5.8362,-5.9963,-6.1348,-6.1656,-6.2764,-6.3626,-6.3718,-6.4334,-6.4549,-6.3903,-6.4395,-6.501,-6.5586,-6.7112,-6.8307,-6.8771,-7.0376,-7.1312,-7.1312,-7.1312,-7.1312,-7.1312,-7.1312,-7.1312,-7.1312,-7.1312,-7.1312,-7.1312,-7.1312,-7.1278,-7.1176,-7.05,-6.9755,-6.8876,-6.7523,-6.6136,-6.485,-6.4681,-6.3734,-6.2381,-6.2381,-6.2347,-6.2076,-6.0622,-6.0047,-5.9776,0.0,-2.361,-2.361,-2.361,-2.361,-2.3729,-2.4126,-2.4986,-2.5974,-2.7046,-2.8457,-2.9774,-3.0821,-3.175,-3.3036,-3.4779,-3.67,-3.9239,-4.247,-4.4364,-4.6173,-4.7916,-4.828,-4.9004,-5.0157,-5.0506,-5.1236,-5.2306,-5.2563,-5.2563,-5.2291,-5.2306,-5.2215,-5.2109,-5.1485,-5.118,-5.115,-5.0603,-4.9823,-4.8865,-4.8865,-4.8237,-4.7219,-4.6441,-4.6142,-4.6112,-4.5813,-4.5035,0.0,0.0,-4.3708,-4.3648,-4.3379,-4.2821,-4.2013,-4.1085,-4.0793,0.0,-4.3624,-4.5172,-4.658,0.0,-4.9831,-5.1458,-5.4099,-5.4621,-5.5206,-5.7469,-5.8701,-5.9624,-6.0393,-6.1563,-6.2517,0.0,-6.381,-6.4457,-6.4457,-6.4364,-6.418,-6.3872,-6.3749,-6.3964,-6.4725,-6.6823,-6.8226,-6.8592,-7.0297,-7.1312,-7.1312,-7.1312,-7.1312,-7.1312,-7.1312,-7.1312,-7.1312,-7.1312,-7.1312,-7.1312,-7.1312,-7.1312,-7.1312,-7.0973,-7.0195,-6.9011,-6.7489,-6.5967,-6.4613,-6.4613,-6.3734,-6.2381,-6.2381,-6.2381,-6.2212,-6.0655,-6.0114,-5.9877,0.0,-2.361,-2.361,-2.361,-2.361,-2.3759,-2.4246,-2.5053,-2.5944,-2.6926,-2.7949,-2.9086,-3.0372,-3.1092,-3.2018,-3.3337,-3.5167,-3.7601,-4.0807,-4.315,-4.5293,-4.7159,-4.7722,-4.8564,-4.9796,-5.0161,-5.092,-5.2031,-5.2395,-5.2427,-5.2063,-5.2079,-5.2033,-5.188,-5.1602,-5.1479,-5.1479,-5.1066,-5.0301,-4.9299,-4.912,-4.8327,-4.716,-4.5813,-4.4945,-4.4466,-4.4287,-4.3479,0.0,0.0,-4.1914,-4.2183,-4.2004,-4.1713,-4.1384,-4.1474,-4.2551,-4.4138,-4.597,-4.789,0.0,-5.0962,-5.3283,-5.5376,-5.5776,-5.6607,-5.7765,-5.907,-5.987,-6.064,-6.1625,-6.2517,-6.3256,-6.3694,-6.4426,-6.4888,-6.4888,-6.4272,-6.3687,-6.3318,-6.2825,-6.2848,-6.3684,-6.5943,-6.7486,-6.7735,-6.9677,-7.087,-7.087,-7.1176,-7.1312,-7.1312,-7.1312,-7.1312,-7.1312,-7.1312,-7.1312,-7.1312,-7.1312,-7.1312,-7.1312,-7.0906,-7.0128,-6.9011,-6.7489,-6.6102,-6.4884,-6.4681,-6.3835,-6.2685,-6.2482,-6.2279,-6.1907,-6.0588,-6.0114,-5.9877,0.0,0.0,-2.361,-2.361,-2.361,-2.361,-2.364,-2.4747,-2.5615,-2.5674,-2.738,-2.9086,-3.0372,-3.1092,-3.178,-3.2497,-3.4382,-3.6387,-3.8397,-4.1791,-4.4228,-4.5346,-4.7661,-4.8849,-4.8648,-5.0374,-5.1297,-5.1328,-5.197,-5.2306,-5.2306,-5.1849,-5.1618,-5.1572,-5.1323,-5.1229,-5.1169,-5.0495,-4.9883,-4.9239,-4.8566,-4.7908,-4.716,-4.5813,-4.4107,-4.241,-4.1782,0.0,-4.0187,-3.8242,-3.8452,-3.9373,-3.8751,-3.9858,0.0,-4.3629,-4.5603,-4.6856,-4.5415,0.0,-5.2033,-5.2502,-5.4699,-5.7087,-5.8362,-5.8701,-5.9101,-6.0455,-6.1286,-6.1748,-6.1809,-6.2887,-6.381,-6.3841,-6.4426,-6.4888,-6.4888,-6.4272,-6.3349,-6.2025,-6.184,-6.195,0.0,-6.4298,-6.5583,-6.5603,-6.8177,-6.9713,-6.9713,-7.0745,-7.1312,-7.1312,-7.1312,-7.1312,-7.1312,-7.1312,-7.1312,-7.1312,-7.1312,-7.1312,-7.1278,-6.9823,-6.9147,-6.9011,-6.7489,-6.6373,-6.5595,-6.4884,-6.414,-6.3396,-6.2685,-6.1941,-6.1231,-6.0419,-6.0114,-5.9877,0.0,0.0,0.0,-2.4246,-2.4246,-2.4246,-2.4246,-2.5023,-2.5764,-2.6213,-2.8008,0.0,0.0,0.0,0.0,0.0,-3.3544,-3.537,-3.8212,-3.9961,-4.182,-4.3928,-4.565,-4.6798,-4.7365,-4.8762,-4.9714,-5.0168,-5.0603,-5.0636,-5.0321,-5.0276,-5.0186,-5.0049,-4.9958,-4.9912,-4.9912,-4.9703,-4.9464,-4.9179,-4.7608,-4.686,-4.6471,-4.4635,-4.2761,-4.0905,0.0,0.0,-3.7704,-3.7015,-3.7105,-3.7584,-3.8182,0.0,0.0,-4.2662,-4.497,-4.6917,-4.9057,0.0,-5.4174,-5.5698,-5.7438,-5.9008,-5.9901,-6.0116,-5.9993,-5.9562,-5.9624,-5.9655,-5.9224,-6.024,-6.144,-6.2333,-6.3441,-6.4364,-6.4826,-6.4272,-6.3318,-6.1963,-6.221,0.0,0.0,0.0,0.0,-6.7459,-6.9071,-7.0241,-7.0745,-7.1098,-7.1312,-7.1312,-7.1312,-7.1312,-7.1312,-7.1312,-7.1312,-7.1312,-7.1312,-7.1041,-7.0534,-6.9553,-6.8808,-6.8233,-6.7252,-6.6373,-6.5628,-6.4884,-6.4174,-6.3429,-6.2685,-6.1941,-6.1197,-6.0385,-5.981,-5.9235,0.0,0.0,0.0,0.0,0.0,0.0,0.0,0.0,0.0,0.0,0.0,0.0,0.0,0.0,0.0,0.0,0.0,-3.4143,-3.6477,-3.7943,-3.9679,-4.1863,-4.321,-4.4318,-4.5253,-4.6339,-4.7335,-4.8326,-4.8897,-4.9293,-4.9389,-4.9238,-4.9104,-4.894,-4.87,-4.8566,-4.8566,-4.8327,-4.8087,-4.7772,-4.6202,-4.5412,-4.4994,-4.2991,-4.1354,0.0,0.0,0.0,-3.5761,-3.5489,-3.5908,-3.6656,-3.7704,-3.92,-4.1055,-4.3438,-4.5996,-4.8711,-5.1683,-5.3881,-5.5773,-5.7685,-5.9162,-6.0209,-6.0393,-6.024,-5.9686,-5.8331,-5.7685,-5.7192,-5.6761,-5.7408,-5.867,-6.0763,-6.2025,-6.3256,-6.4703,-6.4057,-6.3133,-6.2271,-6.2117,-6.2117,0.0,0.0,0.0,-6.7145,-6.8256,-6.9249,-7.0123,-7.0515,-7.0916,-7.1267,-7.1312,-7.1312,-7.1312,-7.1312,-7.1312,-7.1312,-7.1312,-7.0906,-7.0161,-6.9451,-6.8673,-6.7861,-6.7117,-6.6373,-6.5628,-6.4884,-6.4174,-6.3429,-6.2685,-6.1772,-6.0825,-6.0283,-5.9471,-5.8558,0.0,0.0,0.0,0.0,0.0,0.0,0.0,0.0,0.0,0.0,0.0,0.0,0.0,0.0,0.0,0.0,0.0,0.0,0.0,0.0,0.0,-3.92,-4.0516,-4.1678,-4.2568,-4.3262,-4.4367,-4.587,-4.6936,-4.8076,-4.9237,-4.8459,-4.8027,-4.7997,-4.7369,-4.71,-4.707,-4.6441,-4.5783,-4.5125,-4.4407,-4.3708,-4.2931,-4.1085,0.0,0.0,0.0,0.0,0.0,-3.3844,0.0,0.0,0.0,0.0,0.0,-4.6026,-4.8736,-5.209,-5.333,-5.5092,-5.6948,-5.8558,-5.987,-6.0609,-5.9901,-5.9224,-5.83,-5.6902,-5.5499,-5.4498,0.0,0.0,-5.5776,-5.9101,-6.0301,-6.1809,-6.4518,-6.3749,-6.2887,0.0,0.0,0.0,0.0,0.0,0.0,-6.4789,0.0,-6.7054,-6.8122,-6.9187,-7.025,-7.1267,-7.1312,-7.1312,-7.1312,-7.1312,-7.1312,-7.1312,-7.1312,-7.0906,-7.0094,-6.9417,-6.8639,-6.7793,-6.7117,-6.6406,-6.5696,-6.4918,-6.4208,-6.3497,-6.2685,-6.1467,-6.0114,-6.0114,-5.9167,-5.7881,0.0,0.0,0.0,0.0,0.0,0.0,0.0,0.0,0.0,0.0,0.0,0.0,0.0,0.0,0.0,0.0,0.0,0.0,0.0,0.0,0.0,0.0,0.0,-3.9745,-4.095,-4.2128,-4.3118,-4.3998,-4.4288,-4.4608,-4.4907,-4.4676,-4.4545,-4.4586,-4.4396,-4.4306,-4.4306,-4.4127,-4.3947,-4.3648,0.0,-4.1294,-4.1055,0.0,0.0,0.0,0.0,0.0,0.0,0.0,0.0,0.0,0.0,-4.4901,-4.7654,0.0,0.0,-5.4199,-5.6513,-5.8009,-5.9266,-6.0701,-6.0917,-6.0486,-5.9316,-5.8516,-5.7272,-5.433,-5.3067,-5.199,0.0,0.0,0.0,-5.7161,-5.9778,0.0,-6.458,-6.458,0.0,-6.2948,0.0,-6.3595,-6.2887,-6.3865,0.0,0.0,-6.6863,-6.8435,-6.925,-7.0296,-7.1007,-7.1312,-7.1312,-7.1312,-7.1312,-7.1312,-7.1312,-7.1312,-7.1312,-7.0635,-6.9383,-6.918,-6.8368,-6.7083,-6.688,-6.6711,-6.644,-6.5121,-6.4478,-6.4208,-6.2888,-6.1467,-6.0114,-6.0114,-5.9167,-5.7881,0.0,0.0,0.0,0.0,0.0,0.0,0.0,0.0,0.0,0.0,0.0,0.0,0.0,0.0,0.0,0.0,0.0,0.0,0.0,0.0,0.0,0.0,-3.633,-3.7315,-3.8661,-3.9679,-4.0516,0.0,0.0,0.0,-4.2462,-4.2162,-4.2043,-4.2004,-4.1705,-4.1586,-4.1586,-4.1586,0.0,0.0,0.0,0.0,0.0,0.0,0.0,0.0,0.0,0.0,0.0,0.0,0.0,-4.3219,-4.553,-4.7731,-4.9928,-5.2154,0.0,-5.7021,-5.8929,-6.0045,-6.0855,-6.1625,-6.0855,-5.947,-5.7808,-5.6453,-5.4668,-5.1559,-5.0143,0.0,-4.7958,0.0,0.0,0.0,0.0,0.0,-6.3564,-6.3995,-6.3933,0.0,-6.4149,0.0,-6.3779,-6.4457,-6.4888,0.0,-6.6196,-6.7383,-6.8271,-6.9283,-7.011,-7.0608,-7.1052,-7.1312,-7.1312,-7.1312,-7.1312,-7.1312,-7.0973,-7.0195,-6.9079,-6.8741,-6.7929,-6.6812,0.0,-6.6643,-6.6237,-6.5087,-6.441,-6.4005,-6.2854,-6.1467,-6.0114,-6.0114,-5.9167,-5.7881,0.0,0.0,0.0,0.0,0.0,0.0,0.0,0.0,0.0,0.0,0.0,0.0,0.0,0.0,0.0,0.0,0.0,0.0,0.0,0.0,0.0,0.0,-3.4384,-3.5043,-3.6447,-3.7015,-3.7614,0.0,0.0,0.0,0.0,0.0,0.0,0.0,0.0,0.0,0.0,0.0,0.0,0.0,0.0,0.0,0.0,0.0,0.0,0.0,0.0,0.0,0.0,0.0,-4.3808,-4.4526,-4.7742,-5.0306,-5.2557,-5.4673,-5.7323,-5.9725,-6.0803,-6.1388,-6.1787,-6.1933,-6.0332,-5.8208,-5.6053,-5.3929,-5.1652,-4.8747,0.0,-4.6296,-4.6164,-4.6973,-4.8912,-5.2944,0.0,-5.8085,-6.224,-6.2825,-6.3349,-6.4734,-6.4364,-6.421,-6.4826,-6.4888,-6.4888,-6.4888,-6.4888,-6.5351,-6.6438,-6.7548,-6.8568,-6.9666,-7.0745,-7.1312,-7.1312,-7.1312,-7.1278,-7.1142,-7.05,-6.9755,-6.891,-6.8233,-6.7489,-6.6812,0.0,0.0,-6.5764,-6.4952,-6.4241,-6.3565,-6.2719,-6.1467,-6.0114,-6.0114,-5.9167,-5.7881,0.0,0.0,0.0,0.0,0.0,0.0,0.0,0.0,0.0,0.0,-3.136,-3.0432,0.0,0.0,0.0,0.0,0.0,0.0,0.0,0.0,0.0,0.0,-3.3664,-3.4562,-3.6447,0.0,0.0,0.0,0.0,0.0,0.0,0.0,0.0,0.0,0.0,0.0,0.0,0.0,0.0,0.0,0.0,0.0,0.0,0.0,0.0,0.0,0.0,0.0,0.0,0.0,-4.6052,-4.7862,-5.0276,-5.2587,-5.4734,-5.6488,-5.8492,-6.0552,-6.2042,-6.1936,-6.1645,-6.2464,-6.0701,-5.8085,-5.5499,-5.2914,0.0,0.0,-4.5379,-4.4718,-4.4013,-4.5901,-4.8758,-5.2329,0.0,0.0,0.0,0.0,-6.3349,0.0,0.0,0.0,0.0,0.0,0.0,0.0,0.0,-6.5351,-6.6438,-6.7548,-6.8568,-6.9666,-7.0745,-7.1312,-7.1312,-7.1312,-7.1007,-7.0398,-7.0263,-6.9451,-6.8098,-6.7963,-6.7489,-6.6812,-6.6812,0.0,-6.6508,-6.5155,-6.4512,-6.4275,-6.2922,-6.1467,-6.0114,-6.0114,-5.9167,-5.7881,0.0,0.0,0.0,0.0,0.0,0.0,0.0,0.0,-3.1102,-3.3826,-3.365,-3.3089,-3.2647,-3.2258,0.0,0.0,0.0,0.0,0.0,0.0,0.0,0.0,0.0,0.0,0.0,0.0,0.0,0.0,0.0,0.0,0.0,0.0,0.0,0.0,0.0,0.0,0.0,0.0,0.0,0.0,0.0,0.0,0.0,0.0,0.0,0.0,0.0,0.0,0.0,0.0,-4.4526,-4.7412,-5.1219,-5.3386,-5.4904,-5.709,-5.899,-6.0766,-6.2349,-6.2396,-6.199,-6.2196,-5.9716,-5.6484,-5.3775,0.0,0.0,0.0,-4.3905,-4.3414,-4.3444,0.0,0.0,0.0,0.0,0.0,0.0,0.0,0.0,0.0,0.0,0.0,0.0,0.0,0.0,0.0,0.0,-6.5132,-6.5646,-6.6701,-6.7751,-6.8814,-6.9888,-7.0436,-7.0436,-7.1007,-7.0939,-7.0195,-6.9789,-6.9011,-6.7895,-6.7489,-6.7151,-6.6812,-6.6812,0.0,-6.6711,-6.5222,-6.4613,-6.4444,-6.2956,-6.1704,-6.0655,-6.025,-5.9404,-5.8423,0.0,0.0,0.0,0.0,0.0,0.0,0.0,-3.0426,-3.2066,-3.507,-3.5776,-3.5828,-3.5332,-3.3961,-3.2706,0.0,0.0,0.0,0.0,0.0,0.0,0.0,0.0,0.0,0.0,0.0,0.0,0.0,0.0,0.0,0.0,0.0,0.0,0.0,0.0,0.0,0.0,0.0,0.0,0.0,0.0,0.0,0.0,0.0,0.0,0.0,0.0,0.0,0.0,0.0,-4.2342,-4.5095,-4.9942,-5.2429,-5.3927,-5.607,-5.8267,-6.0333,-6.1796,-6.2127,-6.1943,-6.1489,-5.8516,-5.4945,-5.2144,-4.8683,0.0,0.0,-4.2634,-4.2352,-4.3107,0.0,-4.5711,0.0,0.0,0.0,0.0,0.0,0.0,0.0,0.0,0.0,0.0,0.0,0.0,0.0,0.0,0.0,-6.4888,-6.6152,-6.724,-6.8072,-6.9379,-7.0029,-7.0029,-7.087,-7.0872,-6.9958,-6.9383,-6.8605,-6.7658,-6.7083,-6.6812,-6.6812,-6.6812,0.0,0.0,-6.5222,-6.4613,-6.4444,-6.2956,-6.1941,-6.1197,-6.0385,-5.9641,-5.8896,0.0,0.0,0.0,0.0,0.0,0.0,0.0,-3.0543,-3.3094,-3.7022,-3.7052,-3.6974,-3.7688,-3.6026,-3.4191,0.0,0.0,0.0,0.0,0.0,0.0,0.0,0.0,0.0,0.0,0.0,0.0,0.0,0.0,0.0,0.0,0.0,0.0,0.0,0.0,0.0,0.0,0.0,0.0,0.0,0.0,0.0,0.0,0.0,0.0,0.0,0.0,0.0,0.0,0.0,0.0,-4.1444,-4.4915,-4.8727,-5.2013,-5.2427,0.0,0.0,-5.985,-6.053,-6.0905,-6.0147,-5.7808,-5.4822,-5.1528,0.0,0.0,-4.2612,-4.1742,-4.154,-4.2065,-4.2567,0.0,0.0,0.0,-5.0697,0.0,0.0,0.0,0.0,0.0,0.0,0.0,0.0,0.0,0.0,0.0,0.0,-6.4888,-6.6826,-6.7971,-6.8072,-7.011,-7.1143,-7.1143,-7.1267,-7.0601,-6.9214,-6.9147,-6.8335,-6.6914,-6.6846,-6.6812,-6.6812,-6.6812,0.0,0.0,-6.5222,-6.4613,-6.4444,-6.2956,-6.1941,-6.1197,-6.0385,-5.9641,-5.8896,0.0,0.0,0.0,0.0,0.0,0.0,0.0,-3.0571,-3.2643,-3.6937,-3.7288,-3.7418,-3.8245,-3.7382,-3.5751,0.0,0.0,0.0,0.0,0.0,0.0,0.0,0.0,0.0,0.0,0.0,0.0,0.0,0.0,0.0,0.0,0.0,0.0,0.0,0.0,0.0,0.0,0.0,0.0,0.0,0.0,0.0,0.0,0.0,0.0,0.0,0.0,0.0,0.0,0.0,0.0,0.0,-4.0846,-4.3409,0.0,0.0,-5.368,-5.6698,-5.894,-6.0084,-6.0372,-5.9267,-5.6886,-5.3883,-5.0187,0.0,-4.3929,-4.1839,-4.0933,-4.0731,-4.1437,-4.1807,-4.2817,-4.5372,-4.568,-4.7188,-5.1836,0.0,0.0,0.0,0.0,0.0,0.0,0.0,0.0,0.0,0.0,0.0,-6.4888,-6.57,-6.6438,-6.7137,-6.8601,-6.9699,-7.0343,-7.0569,-7.0128,-6.9079,-6.8605,-6.7827,-6.6812,-6.6812,-6.6812,-6.6812,-6.6812,0.0,0.0,-6.5222,-6.4613,-6.4444,-6.2956,-6.2212,-6.1873,-6.1095,-6.0317,-5.9573,0.0,0.0,0.0,0.0,0.0,-2.6762,-2.961,-3.051,-3.228,-3.6199,-3.6722,-3.7114,-3.8113,-3.7439,-3.6212,-3.4467,0.0,0.0,0.0,0.0,0.0,0.0,0.0,0.0,0.0,0.0,0.0,0.0,0.0,0.0,0.0,0.0,0.0,0.0,0.0,0.0,0.0,0.0,0.0,0.0,0.0,0.0,0.0,0.0,0.0,0.0,0.0,0.0,0.0,0.0,0.0,0.0,0.0,0.0,0.0,0.0,-5.094,-5.3863,-5.6511,-5.8113,-5.8731,-5.7525,-5.5254,-5.2398,0.0,-4.5757,-4.3099,-4.1273,-4.0395,-4.0157,-4.1041,-4.1372,-4.2099,-4.3987,-4.424,-4.5565,-4.9435,0.0,0.0,0.0,0.0,0.0,0.0,0.0,0.0,0.0,0.0,0.0,0.0,-6.4888,-6.5406,-6.6438,-6.7852,-6.8944,-6.9666,-7.0006,-6.9823,-6.9079,-6.8267,-6.7523,-6.6812,-6.6812,-6.6812,-6.6812,0.0,0.0,0.0,-6.5222,-6.4613,-6.4444,-6.2956,-6.2381,-6.2313,-6.1569,-6.0791,-5.9979,0.0,0.0,0.0,0.0,0.0,0.0,0.0,-3.0306,-3.2454,-3.5072,-3.5421,-3.595,-3.7346,-3.5942,-3.5296,-3.6089,0.0,0.0,0.0,0.0,0.0,0.0,0.0,0.0,0.0,0.0,-3.8063,-3.9379,-4.0038,0.0,0.0,0.0,0.0,0.0,0.0,0.0,0.0,0.0,0.0,0.0,0.0,0.0,0.0,0.0,0.0,0.0,0.0,0.0,0.0,0.0,0.0,0.0,0.0,0.0,0.0,0.0,-4.6821,-5.0513,-5.1728,-5.3832,-5.5459,-5.4657,-5.2719,-5.036,0.0,-4.4938,-4.2327,-4.0999,-4.0185,-3.9979,-4.0825,-4.1163,-4.1837,-4.3371,-4.4733,-4.6757,-5.0205,0.0,0.0,0.0,0.0,0.0,0.0,0.0,0.0,0.0,0.0,0.0,0.0,-6.4888,-6.5406,-6.6438,-6.8568,-6.9666,-6.9713,-7.0006,-6.9823,-6.9079,-6.8267,-6.7523,-6.6812,-6.6812,-6.6812,0.0,0.0,0.0,0.0,-6.5222,-6.4613,-6.4444,-6.2956,-6.2381,-6.2313,-6.1569,-6.0791,-5.9979,0.0,0.0,0.0,0.0,0.0,0.0,0.0,-2.8913,-3.0335,-3.2454,-3.3122,-3.3906,-3.5252,-3.5015,-3.4857,-3.5159,0.0,0.0,0.0,0.0,0.0,0.0,0.0,0.0,0.0,0.0,-3.8063,-3.9373,-4.0068,-4.0277,-4.0098,-4.0098,0.0,0.0,0.0,0.0,0.0,0.0,0.0,0.0,0.0,0.0,0.0,0.0,0.0,0.0,0.0,0.0,0.0,0.0,0.0,0.0,0.0,0.0,0.0,-3.9547,0.0,0.0,-4.8796,-5.0442,-5.1566,-5.0154,-4.926,-4.7873,-4.4849,-4.3408,-4.2138,-4.0207,-4.0136,-4.0372,-4.0309,-4.1224,-4.2475,-4.4048,-4.5003,0.0,0.0,0.0,0.0,0.0,0.0,0.0,0.0,0.0,0.0,0.0,0.0,0.0,0.0,-6.4888,-6.5406,-6.6438,-6.7137,-6.7945,-6.897,-6.8565,-6.8317,-6.8267,-6.7523,-6.7049,-6.6812,-6.6812,0.0,0.0,0.0,0.0,0.0,-6.4478,-6.3869,-6.3768,-6.2787,-6.2381,-6.2347,-6.2144,-6.1569,-6.0825,0.0,0.0,0.0,0.0,0.0,0.0,0.0,-2.8477,-2.9552,-3.0974,-3.1729,-3.2629,-3.3906,-3.4014,-3.4171,-3.4668,0.0,0.0,0.0,0.0,0.0,0.0,0.0,0.0,-3.6806,-3.7225,-3.8302,-4.0157,-4.0576,-4.0905,-4.1145,-4.1145,-4.0427,-3.914,0.0,0.0,0.0,0.0,0.0,0.0,0.0,0.0,0.0,0.0,0.0,0.0,0.0,0.0,0.0,0.0,0.0,0.0,0.0,0.0,0.0,0.0,-4.0546,-4.3728,0.0,-4.7199,-4.8131,-4.7202,-4.6467,-4.5391,-4.3232,-4.222,-4.1393,-3.9709,-3.9847,-4.0179,-4.0036,-4.1212,-4.2517,-4.3567,-4.478,0.0,0.0,0.0,0.0,0.0,0.0,0.0,0.0,0.0,0.0,0.0,0.0,0.0,0.0,-6.4888,-6.5187,-6.5915,-6.6311,-6.6818,-6.7427,-6.7504,-6.7421,-6.7342,-6.6981,-6.6812,-6.6812,-6.6508,0.0,0.0,0.0,0.0,0.0,-6.4005,-6.3531,-6.3429,-6.2685,-6.2381,-6.2381,-6.2381,-6.1941,-6.1197,0.0,0.0,0.0,0.0,0.0,0.0,0.0,0.0,0.0,-3.0394,-3.1032,-3.1903,-3.3155,-3.2993,-3.3264,0.0,0.0,0.0,0.0,0.0,0.0,0.0,0.0,0.0,-3.7375,-3.7464,-3.8751,-4.1422,-4.1482,-4.1811,-4.241,-4.241,-4.1692,-4.0367,-3.9768,0.0,0.0,0.0,0.0,0.0,0.0,0.0,0.0,0.0,0.0,0.0,0.0,0.0,0.0,0.0,0.0,0.0,0.0,0.0,0.0,0.0,0.0,0.0,0.0,-4.3868,0.0,0.0,-4.4178,-4.298,-4.2552,-4.1385,0.0,-3.9559,-3.9469,-3.9637,-4.0086,-4.1189,-4.2173,-4.2578,0.0,0.0,0.0,0.0,0.0,0.0,0.0,0.0,0.0,0.0,0.0,0.0,0.0,0.0,0.0,-6.4826,-6.4795,-6.4764,-6.5705,-6.5996,-6.5437,-6.6694,-6.6957,-6.632,-6.6647,-6.6812,-6.6779,-6.6034,0.0,0.0,0.0,0.0,0.0,-6.3734,-6.3429,-6.3362,-6.2651,-6.2381,-6.2381,-6.2381,-6.1975,-6.1264,0.0,0.0,0.0,0.0,0.0,0.0,0.0,0.0,0.0,0.0,-3.0133,-3.0946,-3.1266,-3.205,-3.2661,0.0,0.0,0.0,0.0,0.0,0.0,0.0,0.0,0.0,-3.7375,-3.7913,-3.923,-4.1422,-4.1931,-4.2261,-4.241,-4.241,-4.1692,-4.0397,-4.0247,-3.9798,0.0,0.0,0.0,0.0,0.0,0.0,0.0,0.0,0.0,0.0,0.0,-3.7823,0.0,0.0,0.0,0.0,0.0,0.0,0.0,0.0,-3.7195,-3.7195,-3.8452,0.0,-4.0816,-4.089,-4.0973,-4.0905,0.0,-4.0284,-4.0217,-3.9559,-3.9828,-4.0561,-4.1776,-4.2266,-4.3287,0.0,0.0,0.0,0.0,0.0,0.0,0.0,0.0,0.0,0.0,0.0,0.0,0.0,0.0,0.0,0.0,-6.4087,-6.3841,-6.3318,-6.3556,-6.3963,-6.4575,-6.5142,-6.5475,-6.5558,-6.6378,-6.6812,-6.6779,-6.6034,0.0,0.0,0.0,0.0,-6.37,-6.2956,-6.2651,-6.2618,-6.2448,-6.2381,-6.2381,-6.2381,-6.2279,-6.2009,0.0,0.0,0.0,0.0,0.0,0.0,0.0,0.0,0.0,0.0,0.0,0.0,0.0,0.0,0.0,0.0,0.0,0.0,0.0,0.0,0.0,0.0,0.0,-3.6118,-3.7375,-3.8063,-3.9379,-4.1422,-4.2081,-4.256,-4.2791,-4.2791,-4.2102,-4.0816,-4.0217,-3.9738,0.0,0.0,0.0,0.0,0.0,0.0,0.0,0.0,0.0,0.0,-3.6537,-3.6956,0.0,-3.7434,-3.7853,-3.8332,0.0,0.0,0.0,0.0,-3.6537,-3.6178,-3.6806,-3.8392,-3.9858,-3.9858,-4.0367,-4.0756,-4.0397,-4.0127,-3.9858,-3.9463,0.0,0.0,0.0,0.0,0.0,0.0,0.0,0.0,0.0,0.0,0.0,0.0,0.0,0.0,0.0,0.0,0.0,0.0,0.0,0.0,0.0,-6.3841,-6.3502,-6.2825,-6.2517,-6.2597,-6.3142,-6.3821,-6.4271,-6.4629,-6.5636,-6.6354,-6.6779,-6.6034,-6.5493,0.0,0.0,0.0,-6.2956,-6.255,-6.2381,-6.2381,-6.2381,-6.2381,-6.2381,-6.2268,-6.2268,-6.224,0.0,0.0,0.0,0.0,0.0,0.0,0.0,0.0,0.0,0.0,0.0,0.0,0.0,0.0,0.0,0.0,0.0,0.0,0.0,0.0,0.0,0.0,-3.6058,-3.6237,-3.7524,-3.8212,-3.9529,-4.1572,-4.2231,-4.2851,-4.3439,-4.3439,-4.2731,-4.1324,-4.0098,-3.9529,0.0,0.0,0.0,0.0,0.0,0.0,0.0,0.0,0.0,0.0,0.0,0.0,0.0,-3.6985,-3.7674,-3.8362,-3.8153,0.0,0.0,0.0,0.0,0.0,-3.6537,-3.8631,-4.0487,-4.0157,-4.0726,-4.1324,-4.1115,0.0,0.0,0.0,0.0,0.0,0.0,-4.2841,0.0,0.0,0.0,0.0,0.0,0.0,0.0,0.0,0.0,0.0,0.0,0.0,0.0,0.0,0.0,0.0,0.0,-6.3564,-6.3195,-6.2517,-6.1963,-6.1656,-6.1656,-6.2649,-6.3351,-6.3844,-6.4811,-6.5811,-6.6779,-6.6034,-6.529,0.0,0.0,0.0,-6.2381,-6.2381,-6.2381,-6.2381,-6.2381,-6.2381,-6.2341,-6.2076,-6.215,-6.2122,0.0,0.0,0.0,0.0,0.0,0.0,0.0,0.0,0.0,0.0,0.0,0.0,0.0,0.0,0.0,0.0,0.0,0.0,0.0,0.0,0.0,-3.8063,-3.6956,-3.6926,-3.8212,-3.8901,-4.0217,-4.2261,-4.295,-4.3569,-4.4167,-4.4167,-4.318,-4.1392,-4.0576,-3.9948,-3.9373,0.0,0.0,0.0,0.0,0.0,0.0,0.0,0.0,0.0,0.0,0.0,0.0,-3.5938,-3.6956,-3.8212,-3.7105,0.0,0.0,0.0,0.0,0.0,-3.7614,-3.9619,-4.0816,-3.911,-4.0038,-4.1085,-3.9978,-3.9559,0.0,0.0,0.0,0.0,0.0,-4.4357,0.0,0.0,0.0,0.0,0.0,0.0,0.0,0.0,0.0,0.0,0.0,0.0,0.0,0.0,0.0,0.0,0.0,-6.2425,-6.1809,-6.1132,-6.1009,-6.0948,-6.0948,-6.196,-6.2922,-6.3844,-6.4811,-6.5811,-6.6779,-6.6034,-6.529,0.0,0.0,-6.3091,-6.2381,-6.2381,-6.2381,-6.2381,-6.2381,-6.2268,-6.2037,-6.2037,-6.1917,-6.179,0.0,0.0,0.0,0.0,0.0,0.0,0.0,0.0,0.0,0.0,0.0,0.0,0.0,0.0,0.0,0.0,0.0,0.0,0.0,0.0,0.0,-3.8362,-3.7823,-3.7973,-3.8931,-3.9619,-4.0905,-4.288,-4.3569,-4.4227,-4.4825,-4.3748,-4.2581,-4.1324,-4.0337,-3.9709,-3.9373,-3.9373,0.0,0.0,0.0,0.0,0.0,0.0,0.0,0.0,0.0,0.0,0.0,0.0,-3.6836,-3.7704,-3.6776,0.0,0.0,0.0,0.0,0.0,-3.6596,-3.8542,-4.0098,-3.917,-4.1534,-4.3898,-4.326,-4.2581,-4.2073,0.0,0.0,0.0,0.0,0.0,0.0,0.0,0.0,0.0,0.0,0.0,0.0,0.0,0.0,0.0,0.0,0.0,0.0,0.0,0.0,0.0,0.0,0.0,-6.1502,-6.0824,-6.0794,-6.0794,-6.0794,-6.1803,-6.2826,-6.3797,-6.4262,-6.5293,-6.6779,-6.6034,-6.529,-6.4546,0.0,-6.3091,-6.2381,-6.2381,-6.2381,-6.2381,-6.2381,-6.2229,-6.1997,-6.1877,-6.1628,-6.1417,0.0,0.0,0.0,0.0,0.0,0.0,0.0,0.0,0.0,0.0,0.0,0.0,0.0,0.0,0.0,0.0,0.0,0.0,0.0,0.0,-3.7526,-3.8327,-3.8542,-3.896,-3.9619,-4.0277,-4.1594,-4.3529,-4.4227,-4.4796,-4.5244,-4.3489,-4.2201,-4.1324,-4.0157,-3.9559,-3.9373,-3.9373,-3.9373,0.0,0.0,0.0,0.0,0.0,0.0,0.0,0.0,0.0,0.0,0.0,0.0,0.0,0.0,0.0,0.0,-3.6237,-3.5848,-3.5818,-3.6297,-3.7883,-3.9493,-3.9978,-4.2671,-4.5274,-4.5753,-4.4945,-4.4167,-4.4496,0.0,0.0,0.0,0.0,0.0,0.0,0.0,0.0,0.0,0.0,0.0,0.0,0.0,0.0,0.0,0.0,0.0,0.0,0.0,0.0,0.0,0.0,-6.1317,-6.0824,-6.0794,-6.0794,-6.0794,-6.1551,-6.2436,-6.3466,-6.3937,-6.4979,-6.6406,-6.612,-6.5459,-6.458,-6.4005,-6.326,-6.2381,-6.2381,-6.2341,-6.2302,-6.2302,-6.211,-6.1837,-6.1709,-6.1417,-6.1119,0.0,0.0,0.0,0.0,0.0,0.0,0.0,0.0,0.0,0.0,0.0,0.0,0.0,0.0,0.0,0.0,0.0,0.0,0.0,0.0,-3.7286,-3.818,-3.8949,-3.9649,-4.0307,-4.0965,-4.2282,-4.4257,-4.4915,-4.5244,-4.5274,-4.3928,-4.2611,-4.1392,-4.0636,-3.9978,-3.9373,-3.9373,-3.9373,-3.9373,0.0,0.0,0.0,0.0,0.0,0.0,0.0,0.0,0.0,0.0,0.0,0.0,0.0,0.0,-3.7375,-3.7315,-3.6866,-3.6806,-3.8631,-3.9254,-3.9858,-4.1722,-4.1991,-4.2222,-4.4047,-4.3858,-4.3708,-4.4975,0.0,0.0,0.0,0.0,0.0,0.0,0.0,0.0,0.0,0.0,0.0,0.0,0.0,0.0,0.0,0.0,0.0,0.0,0.0,0.0,0.0,0.0,0.0,-6.0794,-6.0794,-6.0794,-6.0794,-6.0897,-6.1399,-6.2418,-6.4309,-6.5248,-6.5426,-6.633,-6.5933,-6.4613,-6.4546,-6.37,-6.2381,-6.2381,-6.2229,-6.2037,-6.2037,-6.1756,-6.1424,-6.1424,-6.1293,-6.1119,0.0,0.0,0.0,0.0,0.0,0.0,0.0,0.0,0.0,0.0,0.0,0.0,0.0,0.0,0.0,0.0,0.0,0.0,0.0,-3.5908,-3.6907,-3.8256,-3.8626,-3.929,-4.0367,-4.1482,-4.294,-4.4915,-4.5603,-4.5514,-4.4646,-4.3359,-4.2291,-4.1324,-4.0277,-3.9649,-3.9373,-3.9373,-3.9373,-3.9373,-3.9373,0.0,0.0,0.0,0.0,0.0,0.0,0.0,0.0,0.0,-3.6417,-3.6956,-3.6417,-3.7045,-3.7853,-3.7075,-3.6656,-3.6656,-3.7404,-3.8781,-4.0217,-4.0965,-4.2192,-4.3838,-4.6232,-4.7219,-4.7953,-4.9314,-4.9809,0.0,0.0,0.0,0.0,0.0,0.0,0.0,0.0,0.0,0.0,0.0,0.0,0.0,0.0,0.0,0.0,0.0,0.0,0.0,0.0,0.0,0.0,-6.0794,-6.0794,-6.0794,-6.0794,-6.143,-6.1602,-6.1348,-6.2778,-6.4077,-6.526,-6.4747,-6.4548,-6.4546,-6.3632,-6.2922,-6.2381,-6.2381,-6.2229,-6.1997,-6.1716,-6.1547,-6.1383,-6.1252,-6.1169,-6.1002,0.0,0.0,0.0,0.0,0.0,0.0,0.0,0.0,0.0,0.0,0.0,0.0,0.0,0.0,0.0,0.0,0.0,0.0,-3.4449,-3.5196,-3.6221,-3.756,-3.8147,-3.8931,-4.0068,-4.1422,-4.291,-4.4676,-4.5364,-4.5083,-4.3988,-4.2671,-4.1841,-4.1324,-4.0008,-3.9529,-3.9709,-3.9499,-3.9373,-3.9373,-3.9373,-3.8721,0.0,0.0,0.0,0.0,0.0,0.0,0.0,0.0,-3.6267,-3.6776,-3.6507,-3.7195,-3.7943,-3.7285,-3.7255,-3.7375,-3.7135,-3.8571,-4.0247,-4.0876,0.0,0.0,-4.8207,-4.9434,-5.0421,-5.2157,-5.23,-5.2218,-5.2618,0.0,0.0,0.0,0.0,0.0,0.0,0.0,0.0,0.0,0.0,0.0,0.0,0.0,0.0,0.0,0.0,0.0,0.0,0.0,0.0,0.0,-6.0794,-6.0794,-6.0794,-6.145,-6.1652,-6.1277,-6.1752,-6.2988,-6.4778,-6.3859,-6.3876,-6.4546,-6.3294,-6.2618,-6.2381,-6.2341,-6.211,-6.1756,-6.1506,-6.1342,-6.1293,-6.121,-6.1127,-6.0961,0.0,0.0,0.0,0.0,0.0,0.0,0.0,0.0,0.0,0.0,0.0,0.0,0.0,0.0,0.0,0.0,0.0,0.0,-3.3387,-3.4449,-3.5263,-3.5849,-3.7501,-3.8691,-3.9409,-4.0696,-4.2013,-4.329,-4.3947,-4.3958,-4.323,-4.1983,-4.1422,-4.1324,-4.0008,-3.9798,-4.0337,-3.9709,-3.9373,-3.9373,-3.9373,-3.902,0.0,0.0,0.0,0.0,0.0,0.0,0.0,0.0,-3.6058,-3.5848,-3.7764,-3.7943,-3.7554,-3.8182,-3.8871,-3.926,-3.8571,-3.8901,-3.9918,-4.1901,0.0,0.0,-4.9299,-4.9763,-5.0078,-5.2714,-5.3204,-5.3414,-5.4102,0.0,0.0,0.0,0.0,0.0,0.0,0.0,0.0,0.0,0.0,0.0,0.0,0.0,0.0,0.0,0.0,0.0,0.0,0.0,0.0,0.0,-6.0794,-6.0794,-6.0763,-6.0763,-6.1297,-6.2238,-6.1544,-6.2125,-6.3811,-6.4087,-6.4343,-6.4546,-6.3835,-6.3091,-6.2381,-6.211,-6.1756,-6.1383,-6.1383,-6.1293,-6.1086,-6.1301,-6.1252,-6.0919,0.0,0.0,0.0,0.0,0.0,0.0,0.0,0.0,0.0,0.0,0.0,0.0,0.0,0.0,0.0,0.0,0.0,0.0,-3.2295,-3.3413,-3.4489,-3.537,-3.6811,-3.7928,-3.8691,-4.0008,-4.1324,-4.2641,-4.3299,-4.306,-4.1953,-4.1564,-4.1145,-4.0666,-4.0277,-3.9948,-3.9709,-3.9463,-3.9373,-3.9373,-3.9373,-3.902,0.0,0.0,0.0,0.0,0.0,0.0,0.0,0.0,0.0,0.0,-3.6327,-3.7494,-3.8601,-3.7404,-3.8182,-3.9134,-3.8003,-3.9559,0.0,-4.2261,0.0,0.0,0.0,-5.081,0.0,0.0,-5.518,-5.506,-5.5752,0.0,0.0,0.0,0.0,0.0,0.0,0.0,0.0,0.0,0.0,0.0,0.0,0.0,0.0,0.0,0.0,0.0,0.0,0.0,0.0,0.0,-6.0086,-5.987,-5.9378,-5.9378,-5.9745,-6.0563,-6.1061,-6.2507,-6.4823,-6.333,-6.3375,-6.4546,-6.326,-6.2584,-6.2381,-6.1951,-6.1709,-6.1588,-6.1293,-6.1127,-6.1002,-6.0388,-6.0098,-5.9794,0.0,0.0,0.0,0.0,0.0,0.0,0.0,0.0,0.0,0.0,-3.0916,-3.1235,0.0,0.0,0.0,0.0,0.0,0.0,0.0,-3.2881,-3.3894,-3.5073,-3.6446,-3.7679,-3.8781,-3.9858,-4.0666,-4.1205,-4.2102,-4.2013,-4.0995,-4.1265,-4.1175,-4.0786,-4.0516,-4.0187,-3.9768,-3.923,-3.902,-3.902,-3.902,-3.8751,-3.8332,0.0,0.0,0.0,0.0,0.0,0.0,0.0,0.0,0.0,-3.5639,-3.6596,-3.7734,-3.7045,-3.8063,-3.9409,-3.9379,-4.1205,0.0,-4.4507,-4.7053,-4.9748,-5.1439,0.0,0.0,0.0,0.0,-5.5671,-5.6603,0.0,0.0,0.0,0.0,0.0,0.0,0.0,0.0,0.0,0.0,0.0,0.0,0.0,0.0,0.0,0.0,0.0,0.0,0.0,0.0,0.0,-5.9378,-5.9193,-5.8793,-5.8793,-5.9228,-5.9998,-6.0677,-6.2229,-6.4399,-6.3064,-6.3075,-6.4106,-6.2888,-6.2341,-6.2189,-6.183,-6.1669,-6.1547,-6.121,-6.1119,-6.0961,-5.9968,-5.9587,-5.9323,0.0,0.0,0.0,0.0,0.0,0.0,0.0,0.0,0.0,0.0,-3.0598,-3.083,0.0,0.0,0.0,0.0,0.0,0.0,0.0,0.0,-3.3448,-3.4942,-3.6471,-3.7983,-3.9343,-4.0008,-4.0008,-3.9373,-4.0666,-4.0965,-4.0337,-4.1055,-4.1324,-4.1175,-4.0696,-4.0397,-4.0127,-3.8901,-3.8362,-3.8302,-3.8302,-3.8302,-3.8242,-3.7584,0.0,0.0,0.0,0.0,0.0,0.0,0.0,0.0,-3.5519,-3.5549,-3.5818,-3.6926,-3.8242,-3.9738,-4.1632,-4.315,0.0,-4.7519,-4.897,0.0,-5.3593,-5.476,-5.5388,-5.6047,0.0,0.0,0.0,0.0,0.0,0.0,0.0,0.0,0.0,0.0,0.0,0.0,0.0,0.0,0.0,0.0,0.0,0.0,0.0,0.0,0.0,0.0,0.0,-5.8701,-5.8701,-5.867,-5.8608,-5.8608,-5.9122,0.0,-6.039,-6.138,-6.3116,-6.306,-6.3116,-6.3242,-6.2646,-6.2189,-6.1843,-6.175,-6.1547,-6.1383,-6.1169,-6.1119,-6.0961,-5.9968,-5.9543,-5.9189,0.0,0.0,0.0,0.0,0.0,0.0,0.0,0.0,0.0,0.0,0.0,0.0,0.0,0.0,0.0,0.0,0.0,0.0,0.0,0.0,-3.3287,-3.4909,-3.702,-3.8536,-3.9373,-3.9559,-3.9523,-3.9373,-4.0217,-4.0277,-3.9649,-4.0816,-4.0816,-3.9888,-4.0756,-4.0307,-3.8811,-3.8512,-3.8093,-3.7614,-3.7614,-3.7614,-3.7554,-3.6926,-3.6596,0.0,0.0,0.0,0.0,0.0,0.0,0.0,-3.5519,-3.5848,-3.6237,-3.5998,-3.7195,-3.8811,-3.9798,-4.1743,0.0,0.0,-4.9942,-5.2785,-5.4581,-5.5089,-5.5388,-5.6047,0.0,0.0,0.0,0.0,0.0,0.0,0.0,0.0,0.0,0.0,0.0,0.0,0.0,0.0,0.0,0.0,0.0,0.0,0.0,0.0,0.0,0.0,0.0,-5.8073,-5.8042,-5.7795,-5.7241,-5.7241,-5.7973,0.0,-5.952,-6.0496,-6.2236,-6.2453,-6.2159,-6.1583,-6.1904,-6.1642,-6.0953,-6.1309,-6.1424,-6.1383,-6.1169,-6.1119,-6.0961,-5.9968,-5.9068,-5.8254,0.0,0.0,0.0,0.0,0.0,0.0,0.0,0.0,0.0,0.0,0.0,0.0,0.0,0.0,0.0,0.0,0.0,0.0,0.0,-3.2307,-3.3518,-3.5824,-3.7729,-3.8764,-3.8931,-3.8931,-3.8931,-3.8931,-3.926,-3.9439,-3.9439,-4.0756,-4.1025,-4.0367,-4.0756,-4.0157,-3.8811,-3.7883,-3.7285,-3.6956,-3.6956,-3.6956,-3.6896,-3.6267,-3.5818,-3.5522,-3.513,0.0,0.0,0.0,0.0,0.0,0.0,0.0,-3.513,-3.54,-3.6447,-3.7913,-3.9828,0.0,0.0,-4.8356,0.0,-5.3054,-5.4431,-5.473,0.0,0.0,0.0,0.0,0.0,0.0,0.0,0.0,0.0,0.0,0.0,0.0,0.0,0.0,0.0,0.0,0.0,0.0,0.0,0.0,0.0,0.0,0.0,-5.83,-5.7943,-5.7168,-5.7138,-5.6935,-5.6421,-5.6567,-5.7012,-5.7882,-5.8949,-6.0358,-6.2007,-6.2312,-6.183,-6.087,-6.1797,-6.1837,-6.1283,-6.1473,-6.1465,-6.1383,-6.1169,-6.1119,-6.0919,-5.9411,-5.8573,-5.79,0.0,0.0,0.0,0.0,0.0,0.0,0.0,0.0,0.0,0.0,0.0,0.0,0.0,0.0,0.0,0.0,0.0,0.0,0.0,-3.269,-3.405,-3.6684,-3.8068,-3.8603,-3.8242,-3.8123,-3.8123,-3.8212,-3.8123,-3.8631,-3.9798,-4.0876,-4.1422,-4.1392,-4.0816,-4.0068,-3.914,-3.7375,-3.6447,-3.6148,-3.6148,-3.6088,-3.5908,-3.537,-3.4801,-3.4324,-3.4324,-3.4324,-3.4444,-3.51,0.0,0.0,0.0,0.0,-3.3724,-3.4831,-3.5639,-3.6776,-3.9738,0.0,-4.6112,-5.0182,-5.1618,0.0,0.0,0.0,0.0,0.0,0.0,0.0,0.0,0.0,0.0,0.0,0.0,0.0,0.0,0.0,0.0,0.0,0.0,0.0,0.0,0.0,0.0,0.0,0.0,0.0,-5.7476,-5.7543,-5.7199,-5.6354,-5.6372,-5.6274,-5.5979,-5.6225,-5.639,-5.6585,-5.856,-6.0151,-6.1406,-6.1837,-6.148,-6.0619,-6.1554,-6.1837,-6.1642,-6.1628,-6.1506,-6.1301,-6.1169,-6.1119,-6.0877,-5.9024,-5.8223,-5.7885,0.0,0.0,0.0,0.0,0.0,0.0,0.0,0.0,0.0,0.0,-3.0974,-3.0887,-3.1351,-3.0974,0.0,0.0,0.0,0.0,-3.1582,0.0,0.0,-3.6234,-3.704,-3.7471,-3.7524,-3.7015,-3.7015,-3.7524,-3.7015,-3.8242,-4.1115,-4.1332,-4.1422,-4.1422,-4.1294,-4.0247,-3.8482,-3.7644,-3.6297,-3.4773,-3.4773,-3.4412,-3.3873,-3.3784,-3.3694,-3.3634,-3.3634,-3.3634,-3.3724,-3.4414,-3.4653,0.0,0.0,0.0,0.0,-3.3694,-3.4233,-3.5132,0.0,0.0,-4.5544,0.0,0.0,0.0,0.0,0.0,0.0,0.0,0.0,0.0,0.0,0.0,0.0,0.0,0.0,0.0,0.0,0.0,0.0,0.0,0.0,0.0,0.0,0.0,0.0,0.0,0.0,0.0,-5.6229,-5.6445,-5.6415,-5.6077,-5.6274,-5.6274,-5.5979,-5.6028,-5.6457,-5.7307,-5.836,-5.8934,-5.9024,-6.0043,-6.0417,-6.0355,-6.0279,-6.0269,-6.0345,-6.0961,-6.1127,-6.1161,-6.1119,-6.1119,-6.0961,-5.9838,-5.8844,-5.7946,0.0,0.0,0.0,0.0,0.0,0.0,0.0,0.0,0.0,0.0,0.0,-3.109,-3.1003,-3.0772,0.0,0.0,0.0,0.0,-3.1437,-3.3138,0.0,0.0,-3.62,-3.648,-3.616,-3.5992,-3.6058,-3.6357,-3.6058,-3.7793,-4.1384,-4.1782,-4.256,-4.3509,-4.2043,-4.0696,-3.9409,-3.7644,-3.5968,-3.4503,-3.4503,-3.4951,-3.5489,-3.3634,-3.3873,-3.4981,-3.3484,-3.2946,-3.3095,-3.4174,-3.4503,-3.4503,-3.4503,0.0,0.0,0.0,0.0,0.0,-3.8272,0.0,0.0,0.0,0.0,0.0,0.0,0.0,0.0,0.0,0.0,0.0,0.0,0.0,0.0,0.0,0.0,0.0,0.0,0.0,0.0,0.0,0.0,0.0,0.0,0.0,0.0,0.0,0.0,-5.6033,-5.5979,-5.6127,-5.6077,-5.578,-5.588,-5.583,-5.5531,-5.5681,-5.6311,-5.7418,-5.836,-5.8947,-5.929,-5.9816,-6.0032,-6.0108,-6.0694,-6.0894,-6.0811,-6.1136,-6.121,-6.1053,-6.0655,-6.0755,-6.0853,-5.8871,-5.8133,-5.7854,0.0,0.0,0.0,0.0,0.0,0.0,0.0,0.0,0.0,0.0,0.0,0.0,-3.0858,0.0,0.0,0.0,0.0,0.0,-3.1529,0.0,0.0,0.0,0.0,-3.5466,-3.5056,-3.5006,-3.4981,-3.4981,-3.4981,-3.7195,-4.1384,-4.1931,-4.3579,-4.5933,-4.3479,-4.1713,-4.0487,-3.8212,-3.6447,-3.522,-3.522,-3.5998,-3.6956,-3.5011,-3.5519,-3.6896,-3.4412,-3.3514,-3.3634,-3.4294,-3.4384,-3.4264,0.0,0.0,0.0,0.0,0.0,0.0,0.0,0.0,0.0,0.0,0.0,0.0,0.0,0.0,0.0,0.0,0.0,0.0,0.0,0.0,0.0,0.0,0.0,0.0,0.0,0.0,0.0,0.0,0.0,0.0,0.0,0.0,0.0,0.0,0.0,-5.5581,-5.578,-5.588,-5.578,-5.5481,-5.5581,-5.5481,-5.5179,-5.5381,-5.6066,-5.7181,-5.79,-5.8767,-5.9805,-5.9555,-5.9718,-6.0226,-6.0894,-6.126,-6.1301,-6.1301,-6.1252,-6.1011,-6.0208,-6.0382,-6.0769,-5.7923,-5.7413,-5.7807,0.0,0.0,0.0,0.0,0.0,0.0,0.0,0.0,0.0,0.0,0.0,0.0,-3.1409,-3.0945,-3.0598,-3.0598,0.0,0.0,0.0,0.0,0.0,0.0,0.0,0.0,-3.4532,-3.3903,-3.3604,-3.3604,-3.3604,-3.6267,-4.1422,-4.1452,-4.3838,-4.8027,-4.5992,-4.3688,-4.1272,-3.9858,-3.8482,-3.7255,-3.7255,-3.6956,-3.6716,-3.8422,-3.914,-3.902,-3.6985,-3.6267,-3.6088,0.0,0.0,0.0,-3.3544,-3.3095,-3.2407,0.0,0.0,0.0,0.0,0.0,0.0,0.0,0.0,0.0,0.0,0.0,0.0,0.0,0.0,0.0,0.0,0.0,0.0,0.0,0.0,0.0,0.0,0.0,0.0,0.0,0.0,0.0,0.0,0.0,0.0,0.0,0.0,-5.5229,-5.5229,-5.5481,-5.5481,-5.5229,-5.5481,-5.5481,-5.5179,-5.5179,-5.57,-5.6638,-5.6686,-5.7746,-5.9587,-5.8619,-5.9202,-6.1002,-6.013,-6.0259,-6.1119,-6.1119,-6.1119,-6.1002,-6.0022,-6.0226,-6.0717,-5.7714,-5.7245,-5.7807,0.0,0.0,0.0,0.0,0.0,0.0,0.0,0.0,0.0,0.0,0.0,0.0,0.0,-3.0743,-3.0598,-3.0598,-3.0598,0.0,0.0,0.0,0.0,0.0,0.0,0.0,-3.4284,-3.3752,-3.3484,-3.3484,-3.3484,-3.5549,-3.9469,-4.0337,-4.2073,-4.4507,-4.4197,-4.3539,-4.2491,-3.9888,-3.8482,-3.8033,-3.8033,-3.8931,-4.0224,-3.9619,-4.0487,-4.1654,-3.923,0.0,0.0,0.0,0.0,-3.4622,-3.3754,-3.3335,-3.2946,-3.1809,-3.2108,0.0,0.0,0.0,0.0,0.0,0.0,0.0,0.0,0.0,0.0,0.0,0.0,0.0,0.0,0.0,0.0,0.0,0.0,0.0,0.0,0.0,0.0,0.0,0.0,0.0,0.0,0.0,0.0,0.0,0.0,0.0,-5.5179,-5.528,-5.528,-5.5179,-5.528,-5.528,-5.5179,-5.5179,-5.5381,-5.57,-5.6329,-5.7323,-5.8619,-5.8268,-5.9189,-6.1044,-6.0044,-6.0173,-6.1119,-6.1119,-6.0821,-6.0308,-5.9284,-5.908,-5.9155,-5.684,-5.646,-5.6943,0.0,0.0,0.0,0.0,0.0,0.0,0.0,0.0,-3.0582,-3.0582,0.0,0.0,0.0,0.0,-3.1235,-3.1235,-3.1032,-3.0917,-3.0978,-3.0804,0.0,0.0,0.0,0.0,-3.4284,-3.4022,-3.3724,-3.3484,-3.3724,-3.528,-3.8093,-3.92,-4.0666,-4.2381,-4.2132,-4.2551,-4.324,-4.0995,-3.9918,-3.9738,-3.9948,-4.1115,-4.2671,-4.2462,-4.3359,-4.4407,-4.2192,0.0,0.0,0.0,0.0,0.0,-3.4921,-3.3724,-3.2647,-3.175,-3.2288,-3.3365,-3.4262,0.0,0.0,0.0,0.0,0.0,0.0,0.0,0.0,0.0,0.0,0.0,0.0,0.0,0.0,0.0,0.0,0.0,0.0,0.0,0.0,0.0,0.0,0.0,0.0,0.0,0.0,0.0,0.0,0.0,-5.5179,-5.5179,-5.5179,-5.5179,-5.5179,-5.5179,-5.5179,-5.5179,-5.5179,-5.5179,-5.6134,-5.6943,-5.7606,-5.7978,-5.8844,-6.0054,-5.9751,-6.0173,-6.1119,-6.1119,-6.0621,-5.9783,-5.8744,-5.8362,-5.814,-5.6182,-5.5962,-5.6445,0.0,0.0,0.0,0.0,0.0,0.0,0.0,0.0,-3.0548,-3.0548,0.0,0.0,0.0,0.0,0.0,-3.2542,-3.193,-3.1646,-3.1801,-3.1095,0.0,0.0,0.0,0.0,-3.4563,-3.4533,-3.4204,-3.3544,-3.4204,-3.5459,-3.7375,-3.8033,-3.9738,-4.2201,-4.0277,-4.0808,-4.317,-4.314,-4.2851,-4.247,-4.303,-4.329,-4.3768,-4.704,-4.7878,-4.7189,-4.5873,-4.4975,0.0,-4.2162,0.0,0.0,-3.6926,-3.4233,-3.157,-3.157,-3.2019,-3.2557,0.0,0.0,0.0,0.0,0.0,0.0,0.0,0.0,0.0,0.0,0.0,0.0,0.0,0.0,0.0,0.0,0.0,0.0,0.0,0.0,0.0,0.0,0.0,0.0,0.0,0.0,0.0,0.0,0.0,-5.5179,-5.5179,-5.5179,-5.5179,-5.5179,-5.5179,-5.5179,-5.5179,-5.5179,-5.5179,-5.5179,-5.6134,-5.659,-5.6638,-5.7606,-5.8039,-5.8131,-5.9068,-6.0087,-6.1002,-6.1044,-6.0473,-5.9467,-5.8451,-5.8085,-5.7807,-5.5918,-5.5769,-5.6427,0.0,0.0,0.0,0.0,0.0,-3.0481,-2.9898,-3.089,-3.1769,0.0,0.0,0.0,-3.3209,-3.3209,-3.3209,-3.3209,-3.3035,-3.2777,-3.2344,-3.2234,-3.2654,-3.3763,-3.3856,-3.4518,-3.5908,-3.5013,-3.4653,-3.4951,-3.4653,-3.5011,-3.6058,-3.6716,-3.7883,-3.9469,-3.9439,-3.9792,-4.039,-3.9469,-4.0606,-4.3,-4.2222,-4.3629,0.0,0.0,0.0,0.0,0.0,-4.7429,-4.6232,0.0,-4.295,-4.0733,0.0,-3.4861,-3.2946,-3.2946,-3.3425,-3.3814,-3.3365,0.0,0.0,0.0,0.0,0.0,0.0,0.0,0.0,0.0,0.0,0.0,0.0,0.0,0.0,0.0,0.0,0.0,0.0,0.0,0.0,0.0,0.0,0.0,0.0,0.0,0.0,0.0,-5.5179,-5.5179,-5.5179,-5.5179,-5.5179,-5.5179,-5.5179,-5.5179,-5.5179,-5.5179,-5.5179,-5.5179,-5.5451,-5.5967,-5.659,-5.6183,-5.6783,-5.8039,-5.7652,-5.8024,-5.8979,-5.9707,-5.9545,-5.8788,-5.826,-5.7339,-5.6277,-5.6243,-5.5967,-5.5551,0.0,0.0,0.0,0.0,0.0,-3.0983,-3.0355,-3.1566,-3.2573,0.0,0.0,0.0,-3.4695,-3.5125,-3.5276,-3.469,-3.4167,-3.3736,-3.3391,-3.2931,-3.3091,-3.4029,-3.4389,-3.5142,-3.6477,-3.5968,-3.5759,-3.5908,-3.5552,-3.537,-3.5519,-3.5908,-3.6626,-3.7614,-3.7734,-3.8093,-3.8482,-3.7165,-3.8901,-4.2581,-4.318,0.0,0.0,-4.8117,-4.8835,0.0,0.0,0.0,-4.7997,-4.7219,-4.5095,0.0,0.0,-3.6297,-3.4921,-3.3814,-3.4532,-3.5429,-3.4233,-3.4891,0.0,0.0,0.0,0.0,0.0,0.0,0.0,0.0,0.0,0.0,0.0,0.0,0.0,0.0,0.0,0.0,0.0,0.0,0.0,0.0,0.0,0.0,0.0,0.0,0.0,-5.5179,-5.5179,-5.5179,-5.5179,-5.5179,-5.5059,-5.479,-5.5029,-5.5059,-5.479,-5.5059,-5.5179,-5.5179,-5.5179,-5.5501,-5.6017,-5.5869,-5.6183,-5.6927,-5.7134,-5.7323,-5.7512,-5.8116,-5.8124,-5.7684,-5.7542,-5.6631,-5.55,-5.5865,-5.57,-5.5179,0.0,0.0,-3.1411,-3.1461,-3.121,-3.0959,-3.0909,-3.2149,-3.3219,0.0,-3.5345,-3.678,-3.6925,-3.7767,-3.7883,-3.6874,-3.5537,-3.4792,-3.4873,-3.3602,-3.3293,-3.4246,-3.483,-3.5551,-3.6477,-3.7105,-3.7105,-3.6477,-3.6477,-3.6148,-3.5519,-3.5519,-3.5818,-3.6357,-3.5759,-3.6148,-3.7135,-3.6297,-3.8003,-4.1534,-4.4556,-4.6082,0.0,0.0,-4.9853,-4.9553,-5.0152,-4.9972,-4.9509,-4.9359,-4.6711,0.0,0.0,-3.8452,-3.7375,-3.4891,-3.5848,-3.7345,-3.5519,-3.5968,-3.7135,-3.8063,0.0,0.0,-4.0098,-3.9978,0.0,0.0,0.0,0.0,0.0,0.0,0.0,0.0,0.0,0.0,0.0,0.0,0.0,0.0,0.0,0.0,0.0,-5.47,-5.5089,-5.5089,-5.5149,-5.5149,-5.5089,-5.5089,-5.479,-5.4132,-5.467,-5.467,-5.4102,-5.467,-5.4999,-5.5089,-5.5089,-5.5119,-5.5229,-5.6035,-5.6017,-5.528,-5.7022,-5.7276,-5.6445,-5.6445,-5.6493,-5.659,-5.659,-5.6017,-5.5179,-5.533,-5.528,-5.5179,0.0,-3.1311,-3.1537,-3.1964,-3.2717,-3.3119,-3.2667,-3.3379,-3.4415,-3.5751,-3.7918,-3.977,-4.0844,-3.9799,-3.9208,-3.9624,-3.8025,-3.681,-3.6492,-3.5692,-3.5171,-3.4988,-3.5611,-3.6127,-3.6477,-3.7105,-3.7105,-3.6477,-3.6477,-3.6148,-3.5519,-3.5519,-3.5579,-3.5699,-3.5579,-3.5639,-3.5998,-3.7853,0.0,-4.0696,-4.1863,0.0,-4.8027,-4.9075,-5.0032,-5.084,-5.099,-5.096,-5.069,-4.9659,-4.7309,-4.4616,0.0,0.0,-4.0307,-3.8721,-3.899,-3.9619,-3.8691,-3.902,-3.932,-3.7943,0.0,0.0,-3.7734,-3.7614,0.0,0.0,0.0,0.0,0.0,0.0,0.0,0.0,0.0,0.0,0.0,0.0,0.0,0.0,0.0,0.0,0.0,-5.4012,-5.4401,-5.4401,-5.491,-5.497,-5.4431,-5.4401,-5.4102,-5.3414,-5.3503,-5.3503,-5.3384,-5.3503,-5.3862,-5.4401,-5.4401,-5.467,-5.5179,-5.5381,-5.5381,-5.5229,-5.5601,-5.5651,-5.5451,-5.5451,-5.5918,-5.659,-5.659,-5.6017,-5.528,-5.6066,-5.5869,-5.5179,-3.1637,-3.2039,-3.2416,-3.2968,-3.352,-3.3897,-3.3897,-3.4589,-3.5779,-3.7702,-4.0745,-4.259,-4.2286,-4.1766,-4.1243,-4.0676,-3.9156,-3.7987,-3.7447,-3.6438,-3.5828,-3.5703,-3.603,-3.6458,-3.6956,-3.7554,-3.7584,-3.6956,-3.6956,-3.6447,-3.5519,-3.5519,-3.6028,-3.6926,-3.6267,-3.6537,-3.7494,-3.8153,-3.92,-4.0636,-4.3269,0.0,-4.897,-5.0242,-5.1139,-5.1708,-5.1708,-5.1498,-5.096,-4.9344,-4.7878,0.0,0.0,-4.3838,-4.3389,0.0,-4.1324,-4.2013,-4.0337,-4.0397,-4.0666,-3.9649,0.0,0.0,0.0,0.0,0.0,0.0,0.0,0.0,0.0,0.0,0.0,0.0,0.0,0.0,0.0,0.0,0.0,0.0,0.0,0.0,0.0,-5.3114,-5.3683,-5.3683,-5.4012,-5.4042,-5.3713,-5.3683,-5.3384,-5.2725,-5.3354,-5.3384,-5.2695,-5.3354,-5.3683,-5.3713,-5.4042,-5.4371,-5.47,-5.5029,-5.5179,-5.5179,-5.5179,-5.5179,-5.5179,-5.5179,-5.5451,-5.5918,-5.5918,-5.5601,-5.5229,-5.575,-5.5601,-5.5179,-3.2114,-3.2591,-3.3093,-3.3646,-3.3922,-3.4198,-3.4605,-3.5405,-3.6849,-3.9417,-4.3044,-4.4909,-4.3734,-4.4108,-4.3938,-4.2651,-4.0849,-3.9616,-3.918,-3.7606,-3.6665,-3.6633,-3.6599,-3.6845,-3.7404,-3.8063,-3.7943,-3.7045,-3.7165,-3.6626,-3.5519,-3.5519,-3.6417,-3.7973,-3.7195,-3.7793,-3.9379,0.0,0.0,-4.1683,0.0,-4.7788,-4.879,-5.099,-5.1828,-5.1858,-5.2127,-5.1768,-5.096,-4.9254,-4.8566,-4.8057,-4.5633,-4.5633,0.0,0.0,0.0,0.0,0.0,0.0,0.0,0.0,0.0,-4.0457,0.0,0.0,0.0,-4.1242,0.0,0.0,0.0,0.0,0.0,0.0,0.0,0.0,0.0,0.0,0.0,0.0,0.0,0.0,0.0,-5.1618,-5.2456,-5.2965,-5.2755,-5.2725,-5.2965,-5.2995,-5.2695,-5.2037,-5.3054,-5.3114,-5.2007,-5.3084,-5.3414,-5.2995,-5.3563,-5.3952,-5.4221,-5.476,-5.5059,-5.5179,-5.5179,-5.5179,-5.5179,-5.5179,-5.5179,-5.5179,-5.5179,-5.5179,-5.5179,-5.5179,-5.5179,-5.5179,-3.2114,-3.2265,-3.2491,-3.3068,-3.3972,-3.465,-3.468,-3.5173,-3.6928,-4.0814,-4.3863,-4.6217,-4.7727,-4.745,-4.7628,-4.8757,-4.5535,-4.3477,-4.3578,-4.1067,-3.9192,-3.8177,-3.8042,-3.7769,-3.7434,-3.8063,-3.7524,-3.5729,-3.6297,-3.6207,-3.5519,-3.5519,-3.5938,-3.6746,-3.7734,-3.8631,-3.9499,0.0,-4.2402,0.0,-4.6621,-4.6681,0.0,-4.9209,-5.0405,-5.0554,-5.1768,-5.1768,-5.1109,0.0,-4.9643,-4.894,0.0,-4.707,-4.689,0.0,0.0,0.0,0.0,0.0,0.0,0.0,-4.3489,0.0,0.0,0.0,-3.9918,-3.902,0.0,0.0,0.0,0.0,0.0,0.0,0.0,0.0,0.0,0.0,0.0,0.0,0.0,0.0,0.0,0.0,-4.9823,-5.2127,-5.1229,-5.1079,-5.2247,-5.2306,-5.2007,-5.1349,-5.1468,-5.1498,-5.1319,-5.1468,-5.1798,-5.2306,-5.2396,-5.3054,-5.4221,-5.4281,-5.464,-5.5179,-5.5179,-5.5179,-5.5179,-5.5179,-5.5179,-5.5179,-5.5179,-5.5179,-5.5179,-5.5179,-5.5179,-5.5179,-3.2164,-3.2491,-3.2893,-3.3445,-3.3947,-3.4494,-3.5259,-3.8247,-4.1055,-4.2896,-4.6095,-4.8798,-5.0319,-4.9664,-4.9369,-5.0027,-4.7895,-4.6028,-4.4945,-4.3041,-4.1607,-4.0763,-3.9546,-3.8979,-3.914,-3.8631,-3.8003,-3.7165,-3.7075,-3.6686,-3.6058,-3.6058,-3.7045,-3.8781,-3.932,-4.0786,-4.2821,0.0,-4.315,0.0,0.0,0.0,0.0,-5.069,-5.2306,-5.1977,-5.2127,-5.1768,-5.105,0.0,-4.9494,0.0,0.0,0.0,0.0,0.0,0.0,0.0,0.0,0.0,0.0,0.0,0.0,0.0,-4.0726,0.0,-3.9888,0.0,0.0,0.0,0.0,0.0,0.0,0.0,0.0,0.0,0.0,0.0,0.0,0.0,0.0,0.0,0.0,0.0,0.0,0.0,0.0,-4.9284,-5.0913,-5.105,-5.1109,-5.1229,-5.1588,-5.1588,-5.1229,-5.1588,-5.1738,-5.1648,-5.2396,-5.3054,-5.3653,-5.4431,-5.494,-5.5179,-5.5179,-5.5179,-5.5179,-5.5179,-5.5179,-5.5179,-5.5179,-5.5179,-5.5179,-5.5179,-5.5179,-5.5179,-3.2298,-3.2734,-3.3237,-3.3683,-3.384,-3.4463,-3.6079,-4.0135,-4.3496,-4.4842,-4.77,-5.0421,-5.2575,-5.2091,-5.178,-5.2318,-5.087,-4.9134,0.0,-4.5633,-4.4227,-4.3249,-4.1444,-4.0546,-4.0666,-3.9529,-3.8661,-3.8123,-3.7644,-3.7195,-3.6746,-3.6746,-3.7853,-3.9888,-4.0606,-4.2462,-4.5005,0.0,-4.4784,-4.5592,-4.707,-4.7788,-4.8416,-5.2217,-5.3443,-5.3114,-5.2636,-5.1947,-5.105,-4.9912,-4.9523,0.0,-4.9359,0.0,0.0,0.0,0.0,0.0,-4.6202,0.0,0.0,0.0,0.0,0.0,0.0,0.0,0.0,0.0,0.0,0.0,0.0,0.0,0.0,0.0,0.0,0.0,0.0,0.0,0.0,0.0,0.0,0.0,0.0,0.0,0.0,0.0,0.0,0.0,-4.9853,-5.0106,-5.0405,-5.0883,-5.1588,-5.1708,-5.1229,-5.1678,-5.1678,-5.1229,-5.2187,-5.2845,-5.3204,-5.4192,-5.485,-5.5179,-5.5179,-5.5179,-5.5179,-5.5179,-5.5179,-5.5179,-5.5179,-5.5179,-5.5179,-5.5179,-5.5179,-5.5179,-3.2532,-3.2861,-3.3179,-3.3368,-3.3676,-3.4715,-3.7143,-3.9266,-4.2102,-4.6262,-4.7953,-5.0372,-5.4628,-5.5059,-5.5807,-5.7693,-5.5508,-5.3443,-5.2067,0.0,-4.7249,-4.5274,-4.3888,-4.2641,0.0,-4.0696,-3.9379,-3.7434,-3.7434,-3.7404,-3.7375,-3.7375,-3.7764,-3.8571,-4.1183,-4.306,-4.4466,-4.6381,-4.8656,-5.096,-5.105,-5.2576,-5.467,0.0,-5.2636,-5.3174,-5.3144,0.0,0.0,-5.0375,-5.0166,0.0,0.0,0.0,0.0,0.0,0.0,0.0,0.0,0.0,0.0,-4.4127,0.0,0.0,0.0,0.0,-4.1145,0.0,0.0,0.0,0.0,0.0,0.0,0.0,0.0,0.0,0.0,0.0,0.0,0.0,0.0,0.0,0.0,0.0,0.0,0.0,0.0,0.0,-4.9179,-4.9883,-5.0196,-5.0226,-5.0853,-5.1229,-5.1229,-5.1229,-5.1229,-5.1229,-5.1259,-5.1947,-5.3174,-5.3234,-5.3952,-5.5179,-5.5179,-5.5179,-5.5179,-5.5179,-5.5179,-5.5179,-5.5179,-5.5179,-5.5179,-5.5179,-5.5179,-5.5179,-3.3905,-3.4015,-3.3972,-3.3675,-3.404,-3.5271,-3.7964,-4.0898,-4.4334,-4.8809,-5.0525,-5.3134,-5.7928,-5.8052,-5.8231,-5.9338,0.0,-5.6226,-5.491,-5.2336,0.0,-4.9883,-4.7369,-4.5753,0.0,-4.2769,-4.1233,-4.0733,-3.8219,-3.7486,-3.845,-3.7637,-3.7813,-3.8927,-4.1781,-4.4018,0.0,0.0,0.0,0.0,0.0,-5.2815,-5.5119,0.0,0.0,-5.3862,-5.3862,-5.3294,0.0,-5.2247,-5.1618,-5.0883,-5.1139,-5.0347,-4.9359,-4.9523,-4.9434,0.0,0.0,0.0,-4.8895,-4.598,0.0,0.0,0.0,0.0,0.0,0.0,0.0,0.0,0.0,0.0,0.0,0.0,0.0,0.0,0.0,0.0,0.0,0.0,0.0,0.0,0.0,0.0,0.0,0.0,0.0,0.0,0.0,-4.9224,-4.9793,-5.0196,-5.0823,-5.1229,-5.1229,-5.1229,-5.1229,-5.1229,-5.1648,-5.2336,-5.3204,-5.3653,-5.4341,-5.5179,-5.5179,-5.5179,-5.5179,-5.5179,-5.5179,-5.5179,-5.5179,-5.5179,-5.5179,-5.5179,-5.5179,-5.5179,-3.4966,-3.4855,-3.4598,-3.417,-3.5182,-3.6825,-3.9226,-4.2995,-4.6867,-5.0642,-5.2842,-5.5663,-6.0011,0.0,-5.9817,0.0,-5.9817,-5.8321,-5.6368,-5.476,0.0,-5.2247,-5.0182,0.0,0.0,0.0,-4.3355,-4.2268,-3.96,-3.8421,-3.857,-3.7768,-3.7901,-3.8832,0.0,-4.4072,-4.6142,0.0,-5.0242,0.0,0.0,-5.3653,0.0,0.0,-5.479,-5.4221,0.0,-5.3773,-5.3174,-5.3174,-5.2606,-5.1947,-5.2127,-5.1498,-5.0601,-5.0331,-5.0272,-5.0152,-4.9509,-4.9733,0.0,-4.7279,-4.6352,0.0,-4.2671,0.0,0.0,0.0,0.0,0.0,0.0,0.0,0.0,0.0,0.0,0.0,0.0,0.0,0.0,0.0,0.0,0.0,0.0,0.0,-4.1414,-4.4047,0.0,0.0,0.0,0.0,-4.9224,-4.9883,-5.0541,-5.0943,-5.1229,-5.1229,-5.1229,-5.1229,-5.1648,-5.2187,-5.2845,-5.3533,-5.4221,-5.485,-5.5089,-5.5179,-5.5179,-5.5179,-5.5179,-5.5179,-5.5179,-5.5179,-5.5179,-5.5179,-5.5179,-5.5179,-3.5849,-3.5504,-3.515,-3.5176,-3.7144,-3.9268,-4.0841,-4.5312,-4.9307,-5.1727,-5.4694,-5.7772,-6.0872,-6.0625,-6.0745,-6.2032,-6.1553,-5.9817,-5.6727,-5.6885,0.0,0.0,-5.2426,-5.1468,-4.9599,0.0,0.0,0.0,-4.1331,-3.9877,-3.787,-3.7786,-3.7855,-3.8234,-4.0913,0.0,-4.5472,-4.9448,-5.1977,-5.3354,-5.467,-5.5179,-5.5179,-5.5179,-5.479,-5.4251,-5.4251,-5.3832,-5.3264,-5.3264,-5.3264,-5.3114,-5.2486,-5.2695,-5.2815,-5.0883,-5.1259,-5.1798,-4.9958,-4.9853,-4.9777,-4.7938,0.0,0.0,0.0,0.0,-4.5244,0.0,0.0,0.0,0.0,0.0,0.0,0.0,0.0,0.0,0.0,0.0,0.0,0.0,0.0,0.0,0.0,0.0,-3.9493,-4.2141,-4.2312,0.0,0.0,0.0,-4.8506,-4.9299,-4.9912,-5.0495,-5.1199,-5.1229,-5.1229,-5.1229,-5.1229,-5.1588,-5.2276,-5.2905,-5.3563,-5.4281,-5.491,-5.5179,-5.5179,-5.5179,-5.5179,-5.5179,-5.5179,-5.5179,-5.5179,-5.5179,-5.5179,-5.5179,-3.7293,-3.7912,-3.8538,-3.8929,-3.9211,-4.0047,-4.2162,-4.5552,-4.9195,-5.288,-5.6073,-5.9178,-6.2246,-6.2421,-6.245,-6.278,-6.2211,0.0,0.0,0.0,0.0,-5.7334,-5.5478,-5.3952,-5.2965,-5.0023,0.0,-4.5547,0.0,-3.9483,-3.8781,-3.7468,0.0,0.0,0.0,0.0,-4.3965,-4.8506,-5.1828,-5.4012,-5.485,-5.5179,0.0,0.0,-5.5089,-5.494,-5.494,-5.482,-5.467,-5.467,-5.4341,-5.3922,-5.3743,-5.3443,-5.3084,-5.2576,-5.2306,-5.2097,-5.1588,-5.1199,-5.0674,-4.9687,-4.8745,-4.7728,0.0,0.0,0.0,0.0,0.0,0.0,0.0,0.0,0.0,0.0,0.0,0.0,0.0,0.0,0.0,0.0,0.0,0.0,0.0,0.0,-3.9202,-4.1466,0.0,0.0,0.0,0.0,0.0,-4.9269,-4.9912,-5.0495,-5.1199,-5.1229,-5.1229,-5.1229,-5.1229,-5.1828,-5.2935,-5.3114,-5.3832,-5.494,-5.5119,-5.5179,-5.5179,-5.5179,-5.5179,-5.5179,-5.5179,-5.5179,-5.5179,-5.5179,-5.5179,-5.5179,-3.8898,-4.0331,-4.1559,-4.1873,-4.2986,-4.422,-4.5208,-4.7082,0.0,-5.3415,-5.6591,0.0,-6.0931,-6.2311,-6.3079,-6.3079,-6.272,0.0,-6.1283,0.0,0.0,-5.871,-5.7543,-5.6316,-5.5089,-5.224,0.0,-4.6612,0.0,0.0,-3.8212,0.0,0.0,0.0,0.0,-4.1483,0.0,-4.8148,-5.1713,-5.3832,-5.479,0.0,0.0,-5.5179,-5.5179,-5.5179,-5.5179,-5.5179,-5.5179,-5.5179,-5.494,-5.4581,-5.4311,-5.4132,-5.3952,-5.3354,-5.3144,-5.3025,-5.2725,-5.2157,-5.1558,-5.1199,-5.0331,-4.9314,-4.8386,-4.8446,-4.8506,0.0,0.0,0.0,0.0,0.0,0.0,0.0,0.0,0.0,0.0,0.0,0.0,0.0,0.0,0.0,0.0,0.0,0.0,0.0,0.0,0.0,0.0,0.0,0.0,-4.8356,-4.9314,-5.0122,-5.0734,-5.1079,-5.1229,-5.1229,-5.1229,-5.1618,-5.2336,-5.2905,-5.3593,-5.4341,-5.494,-5.5179,-5.5179,-5.5179,-5.5179,-5.5179,-5.5179,-5.5179,-5.5179,-5.5179,-5.5179,-5.5179,-4.0671,-4.2631,-4.4173,-4.4016,-4.6891,0.0,0.0,-4.9831,0.0,-5.412,0.0,-5.9125,-5.9125,-6.1488,-6.3079,-6.3079,0.0,-6.2331,-6.0595,-6.1493,-6.1074,-5.874,-5.9009,-5.8381,-5.6585,-5.4521,-5.1229,0.0,0.0,0.0,-3.6985,0.0,0.0,0.0,0.0,0.0,0.0,-4.8354,-5.1729,-5.3294,-5.464,-5.5179,-5.5209,-5.5299,-5.5329,-5.5329,-5.5329,-5.5269,-5.5179,-5.5179,-5.5179,-5.5089,-5.4521,-5.473,-5.497,-5.3773,-5.3803,-5.4072,-5.3473,-5.2845,-5.2336,-5.2336,-5.1828,-5.105,-4.9912,-4.9629,-4.9523,-4.9387,-4.8835,-4.8521,0.0,0.0,0.0,0.0,0.0,0.0,0.0,0.0,0.0,0.0,0.0,0.0,0.0,0.0,0.0,0.0,0.0,0.0,0.0,0.0,0.0,-4.7399,-4.8626,0.0,-5.0196,0.0,-5.1229,-5.1229,-5.1229,-5.1259,-5.1379,-5.2606,-5.3234,-5.3384,-5.464,-5.5179,-5.5179,-5.5179,-5.5179,-5.5179,-5.5179,-5.5179,-5.5179,-5.5179,-5.5179,-5.5179,-4.2552,-4.4434,-4.5715,-4.4748,-4.6698,-4.9191,-5.1669,-5.4403,-5.6499,-5.7594,-6.0347,-6.2311,-6.2311,-6.2812,-6.3079,-6.3079,-6.3079,0.0,0.0,0.0,0.0,-6.1433,-6.0446,-5.9488,-5.862,-5.6137,-5.2612,0.0,0.0,0.0,-3.6985,0.0,0.0,0.0,0.0,0.0,-4.6169,-4.9668,0.0,-5.3294,-5.464,-5.5179,-5.5239,-5.5777,-5.5987,-5.5987,-5.5987,-5.5658,-5.5179,-5.5179,-5.5179,-5.5179,-5.5059,-5.5089,-5.5149,-5.491,-5.4551,-5.4192,-5.4072,-5.3533,-5.2995,-5.2995,-5.2516,-5.1977,-5.1738,-5.1259,-5.0636,-4.9725,-4.933,-4.8474,-4.6318,0.0,0.0,0.0,0.0,0.0,0.0,0.0,0.0,0.0,0.0,0.0,0.0,0.0,0.0,0.0,0.0,0.0,0.0,0.0,0.0,0.0,-4.891,0.0,0.0,0.0,-5.1229,-5.1229,-5.1229,-5.1498,-5.2067,-5.2815,-5.3503,-5.4072,-5.485,-5.5179,-5.5179,-5.5179,-5.5179,-5.5179,-5.5179,-5.5179,-5.5179,-5.5179,-5.5179,-5.5179,-4.5637,-4.6604,-4.7362,-4.7414,0.0,0.0,0.0,-5.636,-5.814,-5.754,-5.9363,-6.0698,-6.0698,-6.2134,-6.3079,-6.3079,-6.3079,-6.3079,-6.3079,-6.278,-6.245,-6.2121,-6.1463,0.0,-5.9129,-5.7184,-5.3759,-4.8827,0.0,0.0,-3.7429,0.0,0.0,0.0,0.0,-4.1897,0.0,0.0,0.0,-5.2815,-5.4521,-5.5179,-5.5269,-5.5927,-5.6218,-5.6226,-5.6526,-5.6436,-5.6077,-5.5418,-5.5179,-5.5179,-5.5179,-5.5179,-5.5179,-5.5179,-5.497,-5.473,-5.473,-5.4221,-5.3623,-5.3264,-5.2695,-5.2127,-5.1768,-5.0983,-5.022,-4.9737,-4.9069,-4.7798,-4.4983,-4.2828,0.0,0.0,0.0,0.0,0.0,0.0,0.0,0.0,0.0,0.0,0.0,0.0,0.0,0.0,0.0,0.0,0.0,0.0,0.0,0.0,0.0,0.0,0.0,0.0,0.0,-5.1229,-5.1229,-5.1379,-5.1738,-5.2725,-5.3354,-5.3743,-5.476,-5.5179,-5.5179,-5.5179,-5.5179,-5.5179,-5.5179,-5.5179,-5.5179,-5.5179,-5.5179,-5.5179,-4.846,-4.8747,-4.9165,0.0,-5.2021,-5.3685,-5.4233,-5.6796,-5.8373,-5.7576,-5.8407,-5.9187,-5.9473,-6.1634,-6.3079,-6.3079,-6.3079,-6.3079,-6.3079,-6.3079,-6.2839,-6.2331,-6.2181,-6.1343,-5.9787,-5.8291,-5.51,0.0,0.0,0.0,0.0,0.0,0.0,0.0,0.0,0.0,0.0,0.0,-5.1276,-5.2785,-5.464,-5.5388,-5.5478,-5.6286,-5.6585,-5.6645,-5.7124,-5.7304,-5.7124,-5.5987,-5.5508,-5.5388,-5.5239,-5.5179,-5.5179,-5.5179,-5.5179,-5.5179,-5.5179,-5.482,-5.4232,-5.3417,-5.2624,-5.1862,-5.1087,-5.0058,-4.9219,-4.8972,-4.7869,-4.6266,-4.4021,-4.2998,0.0,0.0,0.0,0.0,0.0,0.0,0.0,0.0,0.0,0.0,0.0,0.0,0.0,0.0,0.0,0.0,-4.0067,-4.1577,0.0,0.0,0.0,-4.7913,-4.9045,0.0,-5.0815,0.0,-5.1229,-5.1229,-5.1259,-5.2426,-5.3054,-5.3264,-5.4461,-5.5059,-5.5179,-5.5179,-5.5179,-5.5179,-5.5179,-5.5179,-5.5179,-5.5179,-5.5179,-5.5179,0.0,0.0,0.0,0.0,0.0,0.0,-5.3488,-5.5693,-5.8096,-6.0336,-6.0756,-6.1321,-6.2549,-6.2901,-6.3079,-6.3079,-6.3079,-6.3079,-6.3079,-6.3079,-6.3049,-6.2989,-6.2421,-6.2002,-6.1822,-5.9907,-5.7066,0.0,0.0,-4.5356,0.0,0.0,0.0,0.0,0.0,0.0,0.0,-5.1647,-5.3335,-5.4132,-5.5538,-5.6077,-5.6226,-5.7453,-5.7932,-5.7962,-5.8022,-5.8022,-5.7932,-5.7184,-5.6555,-5.5987,-5.5388,-5.5179,-5.5179,-5.5179,-5.5179,-5.5179,-5.5179,-5.5149,-5.4807,-5.3685,-5.2544,-5.136,-5.0171,-4.9036,-4.7864,-4.6867,-4.4964,-4.3355,-4.2971,-4.2092,-4.1031,0.0,0.0,0.0,0.0,0.0,0.0,0.0,0.0,0.0,0.0,0.0,0.0,0.0,0.0,0.0,0.0,-4.1384,-4.2337,-4.4719,0.0,-4.6769,-4.8386,-4.8786,-4.9698,-5.1229,-5.1229,-5.1229,-5.1229,-5.1977,-5.2606,-5.3234,-5.3982,-5.464,-5.5179,-5.5179,-5.5179,-5.5179,-5.5179,-5.5179,-5.5179,-5.5179,-5.5179,-5.5179,0.0,0.0,0.0,0.0,0.0,0.0,0.0,-5.5248,-5.6601,-5.8467,-6.0079,-6.1286,-6.1821,-6.191,-6.2204,-6.3021,-6.238,-6.2263,-6.3079,-6.3079,-6.3079,-6.3079,-6.281,-6.251,-6.2121,-6.0924,-5.8545,0.0,0.0,-4.7309,-4.3764,-4.147,0.0,0.0,0.0,-4.8432,-5.0145,-5.2278,-5.3803,-5.488,-5.5807,-5.6406,-5.6825,-5.7752,-5.8112,-5.8171,-5.856,-5.871,-5.862,-5.7932,-5.7034,-5.6188,-5.5867,-5.5508,-5.5179,-5.5179,-5.5179,-5.5179,-5.5179,-5.4692,-5.3928,-5.3053,-5.1621,-5.0308,-4.9474,-4.8097,-4.6919,-4.6478,-4.5129,-4.3887,-4.354,-4.2861,-4.2082,0.0,0.0,0.0,0.0,0.0,0.0,0.0,0.0,0.0,0.0,0.0,0.0,0.0,0.0,0.0,0.0,0.0,0.0,-4.4124,0.0,-4.6109,-4.8297,-4.894,-4.9908,-5.1229,-5.1229,-5.1229,-5.1259,-5.2306,-5.3384,-5.4401,-5.467,-5.494,-5.5179,-5.5179,-5.5179,-5.5179,-5.5179,-5.5179,-5.5179,-5.5179,-5.5179,-5.5179,-5.3609,0.0,-5.2798,0.0,-5.3792,-5.3687,-5.4916,-5.5099,-5.5405,-5.6405,-5.8529,-6.0079,-6.0445,-6.0534,-6.0897,-6.1821,-6.1077,-6.1077,-6.238,-6.2526,-6.2701,-6.3079,-6.3079,0.0,-6.2391,-6.1362,-5.9602,-5.7206,-5.3185,0.0,-4.7717,0.0,0.0,0.0,-4.9533,-5.1032,-5.2414,-5.3794,-5.488,-5.5807,-5.6466,-5.7004,-5.7483,-5.8141,-5.8411,-5.8471,-5.8949,-5.9099,-5.9039,-5.856,-5.7663,-5.6705,-5.6496,-5.6017,-5.5478,-5.5478,-5.5126,-5.4692,-5.4692,-5.3808,-5.2718,-5.1889,-5.0604,-4.935,-4.8397,-4.7132,-4.6142,-4.5954,-4.5156,-4.4356,-4.3938,-4.3415,-4.2788,-4.203,0.0,0.0,0.0,0.0,0.0,0.0,0.0,-3.7168,0.0,0.0,0.0,0.0,0.0,0.0,0.0,0.0,0.0,0.0,0.0,0.0,0.0,-4.8383,-4.9485,-5.0728,-5.1058,-5.1229,-5.1259,-5.2576,-5.3803,-5.491,-5.5089,-5.5179,-5.5179,-5.5179,-5.5179,-5.5179,-5.5179,-5.5179,-5.5209,-5.5418,-5.5478,-5.5508,-5.4079,-5.4184,-5.4367,-5.4994,-5.5072,-5.5072,-5.5099,-5.5099,-5.5099,-5.5099,-5.6275,-5.7642,-5.9002,-5.9127,-5.9127,-5.9127,-5.9127,-5.9683,-6.1017,-6.1137,-6.1703,0.0,0.0,-6.3079,-6.3079,-6.1146,-6.0442,-6.1018,0.0,0.0,-5.4526,0.0,-5.1012,-5.2632,-5.3325,-5.4547,-5.6166,-5.6795,-5.7064,-5.7124,-5.7812,-5.8112,-5.8171,-5.883,-5.9099,-5.9099,-5.9099,-5.9099,-5.9099,-5.9099,-5.865,-5.7992,-5.7304,-5.6645,-5.6218,-5.6218,-5.4857,-5.3413,-5.3413,-5.2591,-5.1401,-5.0238,-4.9523,-4.8647,-4.6915,-4.6029,-4.5454,-4.4853,-4.4278,-4.3939,-4.3912,-4.3415,-4.2657,-4.1507,0.0,0.0,0.0,0.0,0.0,0.0,-3.8083,-3.7011,-3.6985,0.0,0.0,0.0,0.0,0.0,0.0,0.0,0.0,-4.1768,-4.2424,0.0,-4.5212,-4.6497,-4.797,-4.9611,-5.068,-5.1229,-5.1259,-5.2576,-5.3563,-5.4251,-5.491,-5.5179,-5.5179,-5.5179,-5.5179,-5.5179,-5.5179,-5.5179,-5.5269,-5.5927,-5.6218,-5.6256,-5.4785,-5.4811,-5.4863,-5.5072,-5.5099,-5.5099,-5.5099,-5.5099,-5.5099,-5.5099,-5.5472,-5.5908,-5.634,-5.7221,-5.8088,0.0,-5.825,-5.834,0.0,-5.9773,-6.0323,-6.1703,-6.1703,-6.2145,-6.3079,-6.2493,-6.2019,-6.1792,0.0,0.0,0.0,-5.2772,-5.2601,-5.3767,-5.3592,-5.3772,-5.4302,-5.4503,-5.5343,-5.6573,-5.6778,-5.7651,-5.883,-5.9039,-5.9099,-5.9099,-5.9099,-5.858,-5.7915,-5.8798,-5.7798,-5.6391,-5.6971,-5.6456,-5.5606,-5.5606,-5.4252,-5.2814,-5.2814,-5.1654,-5.035,-5.0014,-4.8876,-4.7713,-4.7157,-4.6316,-4.5454,-4.4798,-4.4591,-4.446,-4.446,-4.399,-4.3363,-4.2605,-4.2291,0.0,0.0,0.0,0.0,0.0,0.0,-3.8475,0.0,-3.7299,0.0,0.0,0.0,0.0,0.0,0.0,0.0,0.0,-4.265,0.0,-4.5164,-4.6123,-4.7595,-4.9611,-4.9979,-5.098,-5.2576,-5.3473,-5.4251,-5.488,-5.5089,-5.5179,-5.5179,-5.5179,-5.5179,-5.5179,-5.5179,-5.5179,-5.5209,-5.5418,-5.5508,-5.5538,-5.5099,-5.5099,-5.5099,-5.5099,-5.5099,-5.5099,-5.5099,-5.5099,-5.5099,-5.5099,-5.5099,-5.5099,-5.5099,-5.5842,0.0,-5.7515,-5.6834,-5.6898,-5.825,-5.8313,-5.894,-6.0262,-6.0323,-6.0776,-6.1555,0.0,0.0,-6.097,-5.9188,-5.7369,-5.5476,-5.4488,-5.4516,-5.5336,-5.4488,-5.4286,-5.4483,-5.4686,-5.5506,-5.6636,-5.6636,-5.7342,-5.8331,-5.7889,-5.7722,-5.7722,-5.7722,-5.7189,-5.6651,-5.7414,-5.668,-5.55,-5.6308,-5.5652,-5.4658,-5.4907,-5.3669,-5.2236,-5.2236,-5.0944,-4.9622,-4.9622,-4.8621,-4.7597,-4.733,-4.6447,-4.5451,-4.514,-4.4824,-4.4668,-4.4668,-4.4434,-4.3938,-4.3154,-4.2709,-4.2213,-4.1428,0.0,0.0,0.0,0.0,0.0,0.0,-3.8553,0.0,0.0,0.0,0.0,0.0,0.0,0.0,-4.2214,-4.2717,0.0,-4.4715,-4.585,-4.7074,-4.8396,-4.9449,-5.0659,-5.198,-5.3516,-5.43,-5.456,-5.5027,-5.5179,-5.5179,-5.5179,-5.5179,-5.5179,-5.5179,-5.5179,-5.5209,-5.5478,-5.5568,-5.5598,-5.5099,-5.5099,-5.5099,0.0,-5.5099,0.0,-5.5099,-5.5099,-5.5099,-5.5099,-5.5099,-5.5099,-5.5099,-5.5099,-5.5099,-5.5099,0.0,0.0,0.0,-5.6963,-5.7578,-5.8877,-5.894,-5.9002,-5.9127,-5.7897,-5.7834,-5.9127,-5.8446,-5.7795,-5.7145,-5.6441,-5.6409,-5.694,-5.5734,-5.551,-5.5989,-5.6623,-5.6936,-5.6962,-5.702,-5.702,-5.6962,-5.5848,-5.5412,-5.5412,-5.5412,-5.5381,-5.5351,-5.5353,-5.5323,-5.5233,-5.5236,-5.4382,-5.3495,-5.416,-5.3055,-5.1625,-5.1625,-5.0398,-4.9139,-4.9139,-4.8695,-4.8094,-4.7466,-4.6417,-4.5663,-4.5637,-4.5085,-4.4668,-4.4668,-4.4696,-4.4304,-4.3206,-4.2997,-4.2579,-4.1481,0.0,0.0,0.0,0.0,0.0,0.0,-3.9703,-3.9913,0.0,0.0,0.0,0.0,0.0,-3.9886,-4.2159,-4.2709,-4.3284,-4.3912,-4.5474,-4.6348,-4.6508,-4.9285,-5.0319,-4.9957,-5.2741,-5.3794,-5.3466,-5.459,-5.5128,-5.5179,-5.5179,-5.5179,-5.5179,-5.5179,-5.5179,-5.5269,-5.5867,-5.6107,-5.6115,0.0,0.0,-5.5099,-5.5099,-5.5099,-5.5099,-5.5099,-5.5099,-5.5099,-5.5099,-5.5099,-5.5099,-5.5099,-5.5099,-5.5099,-5.5099,-5.5099,-5.5232,-5.5538,-5.5604,-5.6144,-5.7515,-5.7578,-5.8088,-5.9064,-5.8815,-5.8752,-5.9127,-5.8446,-5.802,-5.7851,-5.6197,-5.5484,-5.562,-5.4405,-5.3698,-5.3405,-5.4038,-5.4351,-5.441,-5.4906,-5.5392,-5.579,-5.55,-5.5412,-5.5412,-5.5412,-5.5071,-5.4743,-5.52,-5.4413,-5.3299,-5.3767,-5.3086,-5.2289,-5.3381,-5.2406,-5.0978,-5.0978,-5.0375,-4.9688,-4.9688,-4.9296,-4.859,-4.7571,-4.6787,-4.6159,-4.5715,-4.5085,-4.4668,-4.4668,-4.4382,-4.3833,-4.3127,-4.2657,-4.2108,-4.1402,-4.1324,0.0,0.0,-4.0827,-4.088,-4.0278,-4.0644,-4.0775,0.0,0.0,0.0,0.0,-4.0671,-4.1141,-4.2185,-4.2709,-4.3284,-4.3912,-4.4703,-4.5715,-4.7052,-4.9476,-5.0622,-5.0497,-5.1733,-5.2689,-5.3413,-5.3675,-5.4355,-5.5179,-5.5179,-5.5179,-5.5179,-5.5179,-5.5078,-5.4905,-5.5053,-5.4981,-5.4775,-5.5099,-5.5099,-5.5099,-5.5099,-5.5099,-5.5099,-5.5099,-5.5099,-5.5099,-5.5099,-5.5099,-5.5099,-5.5099,-5.5099,-5.5099,-5.5099,-5.5099,-5.5099,-5.5099,-5.5099,-5.5405,-5.6144,-5.617,-5.6536,-5.7285,-5.7258,-5.7258,-5.7258,-5.6895,-5.6731,-5.6704,-5.5371,-5.4917,-5.5093,-5.3906,-5.3347,-5.3333,-5.3938,-5.4262,-5.4351,-5.4615,-5.4965,-5.527,-5.4719,-5.4474,-5.4474,-5.4474,-5.426,-5.4002,-5.4337,-5.3788,-5.2979,-5.3306,-5.2975,-5.2533,-5.3263,-5.2368,-5.1152,-5.1152,-5.0734,-5.0237,-4.9949,-4.9479,-4.893,-4.8277,-4.7492,-4.6787,-4.6417,-4.5686,-4.5085,-4.5085,-4.4434,-4.3676,-4.3127,-4.2552,-4.1977,-4.1402,-4.1324,0.0,-4.0853,-4.135,-4.1585,-4.1246,-4.1742,-4.1847,-4.1272,-4.1219,0.0,-4.1219,-4.1533,-4.1951,-4.2552,-4.3127,-4.3676,-4.4251,-4.4853,-4.5676,-4.6915,-4.8982,-4.9693,-4.9171,-5.0904,-5.1729,-5.1863,-5.291,-5.3756,-5.4406,-5.4976,-5.5179,-5.5209,-5.5057,-5.5134,-5.5218,-5.5064,-5.5086,-5.5165,-5.5099,-5.5099,-5.5099,-5.5099,-5.5099,-5.5099,-5.5099,-5.5099,-5.5099,-5.5099,-5.5099,-5.5099,-5.5099,-5.5099,-5.5099,-5.5099,-5.5099,-5.5099,-5.5099,-5.5099,-5.5099,-5.5099,-5.5099,-5.5099,-5.5099,-5.5099,-5.5099,-5.5099,-5.5099,-5.5099,-5.5099,-5.4576,-5.4602,-5.5072,-5.4079,-5.387,-5.4223,-5.4938,-5.5087,-5.4925,-5.5006,-5.4979,-5.4799,-5.3798,-5.34,-5.34,-5.34,-5.3452,-5.3504,-5.3426,-5.3452,-5.3504,-5.3426,-5.34,-5.34,-5.34,-5.2668,-5.1858,-5.1753,-5.1335,-5.076,-5.0185,-4.9688,-4.9296,-4.9113,-4.825,-4.744,-4.7304,-4.6499,-4.5741,-4.5637,-4.4748,-4.3781,-4.3127,-4.2552,-4.1977,-4.1402,0.0,-4.135,-4.1428,-4.1873,-4.2238,-4.2291,-4.2735,-4.2814,-4.2395,-4.2291,-4.2291,-4.2291,-4.2421,-4.2683,-4.3258,-4.3755,-4.433,-4.4983,-4.5584,-4.6133,-4.6604,-4.8228,-4.8439,-4.7524,-5.002,-5.0685,-5.0014,-5.1946,-5.291,-5.315,-5.4237,-5.4657,-5.4606,-5.4429,-5.476,-5.5394,-5.5043,-5.5347,-5.5879,-5.5099,-5.5099,-5.5099,-5.5099,-5.5099,-5.5099,-5.5099,-5.5099,-5.5099,-5.5099,-5.5099,-5.5099,-5.5099,-5.5099,-5.5099,-5.5099,-5.5099,-5.5099,-5.5099,-5.5099,-5.5099,-5.5099,-5.5099,-5.5099,-5.5099,-5.5099,-5.5099,-5.5099,-5.5099,-5.5099,-5.5099,-5.4994,-5.502,-5.5099,-5.4916,-5.4602,-5.4236,-5.4826,-5.459,-5.3722,-5.4196,-5.409,-5.3696,-5.3464,-5.34,-5.34,-5.34,-5.3687,-5.4001,-5.3556,-5.3687,-5.4001,-5.353,-5.34,-5.34,-5.34,-5.3269,-5.3008,-5.2485,-5.1936,-5.1335,-5.0786,-5.0577,-5.0263,-4.9296,-4.8538,-4.7911,-4.744,-4.6813,-4.6186,-4.5715,-4.5062,-4.4251,-4.318,-4.2552,-4.1977,-4.1402,0.0,-4.1507,-4.1977,-4.2159,-4.2343,-4.284,-4.2971,-4.2997,-4.2892,-4.2892,-4.2892,-4.2892,-4.3337,-4.3859,-4.4434,-4.4565,-4.5114,-4.6186,-4.6787,-4.7043,-4.7205,-4.7953,-4.8216,-4.8068,-4.8526,-4.916,-4.9901,-5.007,-5.0657,-5.1565,-5.196,-5.2184,-5.2128,-5.2128,-5.2965,-5.4112,-5.3625,-5.3634,-5.409,-5.5099,-5.5099,-5.5099,-5.5099,-5.5099,-5.5099,-5.5099,-5.5099,-5.5099,-5.5099,-5.5099,-5.5099,-5.5099,-5.5099,-5.5099,-5.5099,-5.5099,-5.5099,-5.5099,-5.5099,-5.5099,-5.5099,-5.5099,-5.5099,-5.5099,-5.5099,-5.5099,-5.5099,-5.5099,-5.5099,-5.5099,-5.5099,-5.5099,-5.5099,-5.5099,-5.4942,-5.4707,-5.4994,-5.4811,-5.4341,-5.4602,-5.455,-5.4314,-5.4314,-5.4314,-5.4314,-5.4314,-5.4471,-5.4654,-5.4393,-5.4471,-5.4654,-5.4393,-5.4314,-5.4314,-5.4314,-5.387,-5.3347,-5.306,-5.2537,-5.2014,-5.1779,-5.1256,-5.0655,-5.0132,-4.9322,-4.859,-4.8329,-4.7571,-4.6865,-4.6604,-4.5558,-4.4615,-4.4407,-4.3154,0.0,0.0,-4.216,-4.1977,-4.2552,-4.2892,-4.318,-4.3441,-4.3755,-4.3807,-4.3493,-4.3467,-4.3624,-4.3912,-4.4199,-4.4748,-4.5637,-4.5663,-4.6081,-4.6917,-4.7205,-4.7492,-4.7806,-4.8068,-4.8172,-4.8172,-4.8172,-4.8405,-4.8758,-4.9247,-4.9675,-5.007,-5.1178,-5.1595,-5.1623,-5.1754,-5.2478,-5.3321,-5.2929,-5.3061,-5.3554,-5.5099,-5.5099,-5.5099,-5.5099,-5.5099,-5.5099,-5.5099,-5.5099,-5.5099,-5.5099,-5.5099,-5.5099,-5.5099,-5.5099,-5.5099,-5.5099,-5.5099,-5.5099,-5.5099,-5.5099,-5.5099,-5.5099,-5.5099,-5.5099,-5.5099,-5.5099,-5.5099,-5.5099,-5.5099,-5.5099,-5.5099,-5.5099,-5.5099,-5.5099,-5.5099,-5.5099,-5.5099,-5.5099,-5.5099,-5.5099,-5.5099,-5.5099,-5.5099,-5.5099,-5.5099,-5.5099,-5.5099,-5.5099,-5.5099,-5.5099,-5.5099,-5.5099,-5.5099,-5.5099,-5.5099,-5.5099,-5.4471,-5.3766,-5.3609,-5.306,-5.2485,-5.2485,-5.1727,-5.0943,-5.0812,-5.0106,-4.9453,-4.9296,-4.846,-4.7702,-4.7571,-4.6316,-4.5349,-4.5428,0.0,0.0,0.0,-4.318,-4.284,-4.3546,-4.4016,-4.433,-4.446,-4.4879,-4.4905,-4.433,-4.4462,-4.4617,-4.4905,-4.5088,-4.5637,-4.6656,-4.6682,-4.6944,-4.7519,-4.7545,-4.7754,-4.8172,-4.8172,-4.825,-4.8264,-4.8264,-4.8139,-4.8032,-4.8863,-4.9128,-4.898,-5.0354,-5.0945,-5.0972,-5.1164,-5.182,-5.2544,-5.2197,-5.2487,-5.3059,-5.5099,-5.5099,-5.5099,-5.5099,-5.5099,-5.5099,-5.5099,-5.5099,-5.5099,-5.5099,-5.5099,-5.5099,-5.5099,-5.5099,-5.5099,-5.5099,-5.5099,-5.5099,-5.5099,-5.5099,-5.5099,-5.5099,-5.5099,-5.5099,-5.5099,-5.5099,-5.5099,-5.5099,-5.5099,-5.5099,-5.5099,-5.5099,-5.5099,-5.5099,-5.5099,-5.5099,-5.5099,-5.5099,-5.5099,-5.5099,-5.5099,-5.5099,-5.5099,-5.5099,-5.5099,-5.5099,-5.5099,-5.5099,-5.5099,-5.5099,-5.5099,-5.5099,-5.5099,-5.5099,-5.5099,-5.5099,-5.5046,-5.4863,-5.4288,-5.3347,-5.2485,-5.2485,-5.2014,-5.1413,-5.0917,-5.0734,-5.0498,-4.9949,-4.9374,-4.8773,-4.8224,-4.7571,-4.663,-4.5088,0.0,0.0,-4.3938,-4.386,-4.4173,-4.5297,-4.548,-4.5715,-4.6238,-4.6316,-4.6107,-4.5532,-4.5976,-4.6081,-4.5584,-4.6055,-4.663,-4.7257,-4.7226,-4.7545,-4.812,-4.812,-4.8146,-4.8172,-4.8172,-4.8283,-4.848,-4.848,-4.8584,-4.8794,-4.8585,-4.8462,-4.8451,-4.8824,-4.9014,-4.9014,-4.9065,-5.0124,-5.1547,-5.0987,-5.1171,-5.1803,-5.5099,-5.5099,-5.5099,-5.5099,-5.5099,-5.5099,-5.5099,-5.5099,-5.5099,-5.5099,-5.5099,-5.5099,-5.5099,-5.5099,-5.5099,-5.5099,-5.5099,-5.5099,-5.5099,-5.5099,-5.5099,-5.5099,-5.5099,-5.5099,-5.5099,-5.5099,-5.5099,-5.5099,-5.5099,-5.5099,-5.5099,-5.5099,-5.5099,-5.5099,-5.5099,-5.5099,-5.5099,-5.5099,-5.5099,-5.5099,-5.5099,-5.5099,-5.5099,-5.5099,-5.5099,-5.5099,-5.5099,-5.5099,-5.5099,-5.5099,-5.5099,-5.5099,-5.5099,-5.5099,-5.5099,-5.5099,-5.5099,-5.5046,-5.4811,-5.4158,-5.3556,-5.3556,-5.2851,-5.2093,-5.1884,-5.1309,-5.0734,-5.0498,-5.0002,-4.9505,-4.9296,-4.8486,-4.778,-4.7492,0.0,-4.5454,-4.595,-4.5401,-4.5245,-4.6055,-4.6159,-4.6238,-4.6447,-4.6473,-4.6395,-4.6186,-4.6342,-4.6552,-4.6626,-4.7231,-4.7649,-4.7858,-4.7858,-4.7963,-4.8172,-4.8172,-4.8381,-4.8747,-4.8544,-4.8773,-4.9558,-4.9374,-4.9373,-4.9659,-4.9089,-4.8812,-4.8649,-4.8749,-4.8761,-4.8812,-4.9163,-4.9709,-5.0283,-5.0079,-5.013,-5.0372,-5.5099,-5.5099,-5.5099,-5.5099,-5.5099,-5.5099,-5.5099,-5.5099,-5.5099,-5.5099,-5.5099,-5.5099,-5.5099,-5.5099,-5.5099,-5.5099,-5.5099,-5.5099,-5.5099,-5.5099,-5.5099,-5.5099,-5.5099,-5.5099,-5.5099,-5.5099,-5.5099,-5.5099,-5.5099,-5.5099,-5.5099,-5.5099,-5.5099,-5.5099,-5.5099,-5.5099,-5.5099,-5.5099,-5.5099,-5.5099,-5.5099,-5.5099,-5.5099,-5.5099,-5.5099,-5.5099,-5.5099,-5.5099,-5.5099,-5.5099,-5.5099,-5.5099,-5.5099,-5.5099,-5.5099,-5.5099,-5.5099,-5.5099,-5.5099,-5.4811,-5.4445,-5.4262,-5.3478,-5.2772,-5.2772,-5.2014,-5.1335,-5.1335,-5.0707,-5.0159,-5.0159,-4.9374,-4.8747,-4.8799,-4.7466,-4.663,-4.7257,-4.66,-4.6369,-4.6944,-4.7022,-4.7022,-4.7022,-4.7022,-4.6944,-4.6761,-4.6917,-4.7179,-4.7571,-4.7989,-4.8277,-4.846,-4.846,-4.8538,-4.8721,-4.8564,-4.8747,-4.9348,-4.8963,-4.9212,-5.0043,-4.9706,-4.9698,-4.9912,-4.9507,-4.9203,-4.9038,-4.9038,-4.9038,-4.9063,-4.9439,-4.959,-4.959,-4.959,-4.959,-4.959,-5.5099,-5.5099,-5.5099,-5.5099,-5.5099,-5.5099,-5.5099,-5.5099,-5.5099,-5.5099,-5.5099,-5.5099,-5.5099,-5.5099,-5.5099,-5.5099,-5.5099,-5.5099,-5.5099,-5.5099,-5.5099,-5.5099,-5.5099,-5.5099,-5.5099,-5.5099,-5.5099,-5.5099,-5.5099,-5.5099,-5.5099,-5.5099,-5.5099,-5.5099,-5.5099,-5.5099,-5.5099,-5.5099,-5.5099,-5.5099,-5.5099,-5.5099,-5.5099,-5.5099,-5.5099,-5.5099,-5.5099,-5.5099,-5.5099,-5.5099,-5.5099,-5.5099,-5.5099,-5.5099,-5.5099,-5.5099,-5.5099,-5.5099,-5.5099,-5.5099,-5.4968,-5.4367,-5.3792,-5.34,-5.34,-5.2929,-5.2511,-5.2511,-5.1596,-5.0812,-5.0812,-5.0315,-4.9531,-4.8381,-4.8198,-4.7989,-4.7383,-4.7304,-4.7571,-4.812,-4.8198,-4.8198,-4.8198,-4.8198,-4.7963,-4.733,-4.7858,-4.8172,-4.8198,-4.8198,-4.846,-4.9087,-4.9087,-4.9348,-4.9897,-4.9348,-4.9348,-4.9897,-4.9559,-4.9564,-4.9819,-4.9392,-4.9381,-4.9615,-4.9615,-4.9615,-4.9615,-4.959,-4.959,-4.959,-4.959,-4.959,-4.959,-4.959,-4.959,-4.959,-5.5099,-5.5099,-5.5099,-5.5099,-5.5099,-5.5099,-5.5099,-5.5099,-5.5099,-5.5099,-5.5099,-5.5099,-5.5099,-5.5099,-5.5099,-5.5099,-5.5099,-5.5099,-5.5099,-5.5099,-5.5099,-5.5099,-5.5099,-5.5099,-5.5099,-5.5099,-5.5099,-5.5099,-5.5099,-5.5099,-5.5099,-5.5099,-5.5099,-5.5099,-5.5099,-5.5099,-5.5099,-5.5099,-5.5099,-5.5099,-5.5099,-5.5099,-5.5099,-5.5099,-5.5099,-5.5099,-5.5099,-5.5099,-5.5099,-5.5099,-5.5099,-5.5099,-5.5099,-5.5099,-5.5099,-5.5099,-5.5099,-5.5099,-5.5099,-5.5099,-5.5072,-5.4889,-5.4393,-5.3949,-5.3949,-5.353,-5.3138,-5.3138,-5.2511,-5.1988,-5.1988,-5.1178,-5.042,-5.008,-4.9662,-4.9322,-4.9139,-4.9113,-4.9191,-4.9348,-4.9374,-4.9244,-4.8852,-4.8826,-4.8564,-4.7989,-4.8094,-4.8381,-4.8799,-4.8826,-4.9087,-4.9636,-4.9636,-4.9923,-5.0524,-4.9707,-4.9585,-5.0192,-4.9574,-4.971,-5.0588,-5.0175,-5.0308,-5.0745,-5.0343,-5.0167,-5.0142,-4.9766,-4.959,-4.959,-4.959,-4.959,-4.959,-4.959,-4.959,-4.959,-5.5099,-5.5099,-5.5099,-5.5099,-5.5099,-5.5099,-5.5099,-5.5099,-5.5099,-5.5099,-5.5099,-5.5099,-5.5099,-5.5099,-5.5099,-5.5099,-5.5099,-5.5099,-5.5099,-5.5099,-5.5099,-5.5099,-5.5099,-5.5099,-5.5099,-5.5099,-5.5099,-5.5099,-5.5099,-5.5099,-5.5099,-5.5099,-5.5099,-5.5099,-5.5099,-5.5099,-5.5099,-5.5099,-5.5099,-5.5099,-5.5099,-5.5099,-5.5099,-5.5099,-5.5099,-5.5099,-5.5099,-5.5099,-5.5099,-5.5099,-5.5255,-5.5412,-5.5412,-5.5412,-5.5412,-5.5412,-5.5282,-5.5099,-5.5099,-5.5099,-5.5099,-5.5099,-5.4837,-5.455,-5.455,-5.4131,-5.3713,-5.3713,-5.3243,-5.2851,-5.2851,-5.2093,-5.1387,-5.1152,-5.0629,-5.0159,-4.9923,-4.9897,-4.9897,-4.9897,-4.9897,-4.9766,-4.9427,-4.9401,-4.9244,-4.8878,-4.8852,-4.9008,-4.9374,-4.9401,-4.9662,-5.0237,-5.0263,-5.0463,-5.094,-5.0204,-5.0142,-5.0602,-4.9912,-4.9888,-5.0546,-5.0222,-5.0293,-5.0594,-5.0243,-5.0092,-5.0067,-4.9741,-4.959,-4.959,-4.959,-4.959,-4.959,-4.959,-4.959,-4.959,-5.5099,-5.5099,-5.5099,-5.5099,-5.5099,-5.5099,-5.5099,-5.5099,-5.5099,-5.5099,-5.5099,-5.5099,-5.5099,-5.5099,-5.5099,-5.5099,-5.5099,-5.5099,-5.5099,-5.5099,-5.5099,-5.5099,-5.5099,-5.5099,-5.5099,-5.5099,-5.5099,-5.5099,-5.5099,-5.5099,-5.5099,-5.5099,-5.5099,-5.5099,-5.5099,-5.5099,-5.5099,-5.5099,-5.5099,-5.5099,-5.5099,-5.5099,-5.5099,-5.5099,-5.5099,-5.5099,-5.5099,-5.5099,-5.5099,-5.5099,-5.5438,-5.583,-5.583,-5.5883,-5.5909,-5.5909,-5.5569,-5.5177,-5.5177,-5.5151,-5.5099,-5.5099,-5.5099,-5.5099,-5.5099,-5.468,-5.4288,-5.4288,-5.3844,-5.3478,-5.3478,-5.2981,-5.238,-5.1779,-5.1256,-5.0734,-5.0132,-5.0054,-5.0054,-5.0054,-5.0054,-5.0028,-4.9976,-4.9923,-4.9897,-4.9897,-4.9897,-4.9923,-4.9915,-4.9915,-5.0176,-5.0777,-5.0803,-5.0851,-5.1057,-5.0741,-5.0741,-5.0994,-5.0359,-5.0065,-5.004,-4.9719,-4.959,-4.959,-4.959,-4.959,-4.959,-4.959,-4.959,-4.959,-4.959,-4.959,-4.959,-4.959,-4.959,-4.959,-5.5099,-5.5099,-5.5099,-5.5099,-5.5099,-5.5099,-5.5099,-5.5099,-5.5099,-5.5099,-5.5099,-5.5099,-5.5099,-5.5099,-5.5099,-5.5099,-5.5099,-5.5099,-5.5099,-5.5099,-5.5099,-5.5099,-5.5099,-5.5099,-5.5099,-5.5099,-5.5099,-5.5099,-5.5099,-5.5099,-5.5099,-5.5099,-5.5099,-5.5099,-5.5099,-5.5099,-5.5099,-5.5099,-5.5099,-5.5099,-5.5099,-5.5099,-5.5099,-5.5099,-5.5099,-5.5099,-5.5099,-5.5099,-5.5099,-5.5099,-5.5177,-5.5282,-5.5282,-5.5569,-5.5909,-5.5909,-5.583,-5.5726,-5.5726,-5.5412,-5.5099,-5.5099,-5.5099,-5.5099,-5.5099,-5.4994,-5.4916,-5.4916,-5.4445,-5.4027,-5.4027,-5.3583,-5.3008,-5.2406,-5.2197,-5.191,-5.1309,-5.123,-5.123,-5.123,-5.123,-5.1073,-5.0629,-5.0159,-4.9897,-4.9897,-4.9897,-4.9959,-5.0182,-5.0208,-5.0343,-5.0661,-5.0598,-5.0675,-5.0715,-5.0359,-5.0232,-5.0295,-4.9912,-4.9719,-4.9719,-4.9654,-4.959,-4.959,-4.959,-4.959,-4.959,-4.959,-4.959,-4.959,-4.959,-4.959,-4.959,-4.959,-4.959,-4.959,-5.5099,-5.5099,-5.5099,-5.5099,-5.5099,-5.5099,-5.5099,-5.5099,-5.5099,-5.5099,-5.5099,-5.5099,-5.5099,-5.5099,-5.5099,-5.5099,-5.5099,-5.5099,-5.5099,-5.5099,-5.5099,-5.5099,-5.5099,-5.5099,-5.5099,-5.5099,-5.5099,-5.5099,-5.5099,-5.5099,-5.5099,-5.5099,-5.5099,-5.5099,-5.5099,-5.5099,-5.5099,-5.5099,-5.5099,-5.5099,-5.5099,-5.5099,-5.5099,-5.5099,-5.5099,-5.5125,-5.5386,-5.5674,-5.5909,-5.5909,-5.6092,-5.6327,-5.6327,-5.651,-5.6745,-5.6745,-5.6536,-5.6327,-5.6327,-5.5799,-5.5221,-5.5221,-5.4879,-5.4671,-5.5032,-5.5099,-5.5099,-5.5099,-5.4863,-5.4628,-5.4628,-5.4158,-5.3687,-5.3347,-5.3086,-5.2825,-5.2485,-5.2197,-5.2014,-5.2014,-5.1779,-5.1492,-5.1204,-5.089,-5.0707,-5.0707,-5.0584,-5.0529,-5.0654,-5.0555,-5.0495,-5.0588,-5.0588,-5.0678,-5.0742,-5.032,-5.0128,-5.0251,-4.978,-4.959,-4.959,-4.959,-4.959,-4.959,-4.959,-4.959,-4.959,-4.959,-4.959,-4.959,-4.959,-4.959,-4.959,-4.959,-4.959,-4.959,-5.5099,-5.5099,-5.5099,-5.5099,-5.5099,-5.5099,-5.5099,-5.5099,-5.5099,-5.5099,-5.5099,-5.5099,-5.5099,-5.5099,-5.5099,-5.5099,-5.5099,-5.5151,-5.5229,-5.5229,-5.5229,-5.5229,-5.5229,-5.5203,-5.5099,-5.5099,-5.5099,-5.5099,-5.5099,-5.5099,-5.5099,-5.5099,-5.5099,-5.5099,-5.5099,-5.5099,-5.5099,-5.5099,-5.5151,-5.5229,-5.5229,-5.5308,-5.5386,-5.5282,-5.5308,-5.5438,-5.5778,-5.6233,-5.666,-5.666,-5.6973,-5.7364,-5.7364,-5.7442,-5.752,-5.752,-5.7112,-5.6747,-5.6747,-5.6124,-5.5383,-5.5383,-5.4843,-5.4415,-5.505,-5.5028,-5.4965,-5.4965,-5.4965,-5.4965,-5.5099,-5.4614,-5.4249,-5.421,-5.3818,-5.3504,-5.34,-5.2955,-5.2616,-5.2511,-5.1899,-5.1534,-5.1534,-5.1534,-5.1534,-5.1534,-5.1246,-5.1057,-5.0931,-5.0677,-5.0487,-5.0397,-5.05,-5.0652,-5.0811,-5.0456,-5.0377,-5.0569,-4.9992,-4.969,-4.959,-4.959,-4.959,-4.959,-4.959,-4.959,-4.959,-4.959,-4.959,-4.959,-4.959,-4.959,-4.959,-4.959,-4.959,-4.959,-5.5099,-5.5099,-5.5099,-5.5099,-5.5099,-5.5099,-5.5099,-5.5099,-5.5099,-5.5099,-5.5099,-5.5099,-5.5099,-5.5099,-5.5099,-5.5099,-5.5099,-5.5308,-5.5778,-5.5804,-5.5804,-5.5804,-5.5804,-5.5569,-5.5125,-5.5099,-5.5099,-5.5099,-5.5099,-5.5099,-5.5099,-5.5099,-5.5099,-5.5099,-5.5099,-5.5099,-5.5099,-5.5099,-5.536,-5.5804,-5.5804,-5.6118,-5.651,-5.5987,-5.6118,-5.651,-5.6066,-5.6096,-5.6314,-5.6314,-5.6088,-5.586,-5.586,-5.6264,-5.665,-5.665,-5.6598,-5.6521,-5.6521,-5.6066,-5.556,-5.556,-5.5509,-5.5432,-5.5527,-5.4826,-5.4267,-5.4511,-5.4309,-5.4335,-5.4965,-5.4727,-5.4426,-5.4223,-5.4131,-5.3922,-5.3452,-5.3321,-5.3086,-5.2563,-5.171,-5.1183,-5.1183,-5.1183,-5.1183,-5.1183,-5.112,-5.0867,-5.0257,-5.0168,-5.004,-4.9719,-5.0197,-5.0474,-5.0484,-5.0911,-5.1163,-5.1147,-5.0594,-5.0067,-4.959,-4.959,-4.959,-4.959,-4.959,-4.959,-4.959,-4.959,-4.959,-4.959,-4.959,-4.959,-4.959,-4.959,-4.959,-4.959,-5.5099,-5.5099,-5.5099,-5.5099,-5.5099,-5.5099,-5.5099,-5.5099,-5.5099,-5.5099,-5.5099,-5.5099,-5.5099,-5.5099,-5.5099,-5.5099,-5.5099,-5.5203,-5.5438,-5.5465,-5.5465,-5.5465,-5.5465,-5.5334,-5.5125,-5.5099,-5.5099,-5.5099,-5.5099,-5.5099,-5.5099,-5.5099,-5.5099,-5.5099,-5.5099,-5.5099,-5.5125,-5.5412,-5.57,-5.5935,-5.6002,-5.6219,-5.6427,-5.5934,-5.5874,-5.6176,-5.6227,-5.6475,-5.6849,-5.6849,-5.6778,-5.6636,-5.6636,-5.679,-5.6995,-5.6995,-5.6995,-5.6995,-5.6995,-5.6443,-5.5796,-5.5796,-5.5426,-5.5056,-5.5056,-5.4676,-5.4428,-5.4646,-5.4338,-5.42,-5.4671,-5.4443,-5.4231,-5.4374,-5.4215,-5.4004,-5.3771,-5.3461,-5.2918,-5.2013,-5.1741,-5.1393,-5.0893,-5.0804,-5.0804,-5.0804,-5.0677,-5.0423,-5.0129,-5.0215,-5.0197,-5.0042,-5.0594,-5.1046,-5.1348,-5.1297,-5.1448,-5.1724,-5.1172,-5.077,-5.0519,-5.0193,-5.0067,-5.0067,-5.0067,-4.9891,-4.959,-4.959,-4.959,-4.959,-4.959,-4.959,-4.959,-4.959,-4.959,-4.959]},{"header":{"parameterUnit":"m.s-1","parameterCategory":1,"la1":30.6,"la2":28.766,"lo1":-90.7593,"lo2":-88.6598,"dy":0.0162,"dx":0.0183,"nx":116,"ny":114,"refTime":"2024-06-12T18:00:00:Z","depth":0,"parameterNumber":3,"parameterNumberName":"V-component_of_WINDS"},"data":[0.0,0.0,0.0,0.0,0.0,0.0,0.0,0.0,0.0,0.0,0.0,0.0,0.0,0.0,0.0,0.0,0.0,0.0,0.0,0.0,0.0,0.0,0.0,0.0,0.0,0.0,0.0,0.0,0.0,0.0,0.0,0.0,0.0,0.0,0.0,0.0,0.0,0.0,0.0,0.0,0.0,0.0,0.0,0.0,0.0,0.0,0.0,0.0,0.0,0.0,0.0,0.0,0.0,0.0,0.0,0.0,0.0,0.0,0.0,0.0,0.0,0.0,0.0,0.0,0.0,0.0,0.0,0.0,0.0,0.0,0.0,0.0,0.0,0.0,0.0,0.0,0.0,0.0,0.0,0.0,0.0,0.0,0.0,0.0,0.0,0.0,0.0,0.0,0.0,0.0,0.0,0.0,0.0,0.0,0.0,0.0,0.0,0.0,0.0,0.0,0.0,0.0,0.0,0.0,0.0,0.0,0.0,0.0,0.0,0.0,0.0,0.0,0.0,0.0,0.0,0.0,0.0,0.0,0.0,0.0,0.0,0.0,0.0,0.0,0.0,0.0,0.0,0.0,0.0,0.0,0.0,0.0,0.0,0.0,0.0,0.0,0.0,0.0,0.0,0.0,0.0,0.0,0.0,0.0,0.0,0.0,0.0,0.0,0.0,0.0,0.0,0.0,0.0,0.0,0.0,0.0,0.0,0.0,0.0,0.0,0.0,0.0,0.0,0.0,0.0,0.0,0.0,0.0,0.0,0.0,0.0,0.0,0.0,0.0,0.0,0.0,0.0,0.0,0.0,0.0,0.0,0.0,0.0,0.0,0.0,0.0,0.0,0.0,0.0,0.0,0.0,0.0,0.0,0.0,0.0,0.0,0.0,0.0,0.0,0.0,0.0,0.0,0.0,0.0,0.0,0.0,0.0,0.0,0.0,0.0,0.0,0.0,0.0,0.0,0.0,0.0,0.0,0.0,0.0,0.0,0.0,0.0,0.0,0.0,0.0,0.0,0.0,0.0,0.0,0.0,0.0,0.0,0.0,0.0,0.0,0.0,0.0,0.0,0.0,0.0,0.0,0.0,0.0,0.0,0.0,0.0,0.0,0.0,0.0,0.0,0.0,0.0,0.0,0.0,0.0,0.0,0.0,0.0,0.0,0.0,0.0,0.0,0.0,0.0,0.0,0.0,0.0,0.0,0.0,0.0,0.0,0.0,0.0,0.0,0.0,0.0,0.0,0.0,0.0,0.0,0.0,0.0,0.0,0.0,0.0,0.0,0.0,0.0,0.0,0.0,0.0,0.0,0.0,0.0,0.0,0.0,0.0,0.0,0.0,0.0,0.0,0.0,0.0,0.0,0.0,0.0,0.0,0.0,0.0,0.0,0.0,0.0,0.0,0.0,0.0,0.0,0.0,0.0,0.0,0.0,0.0,0.0,0.0,0.0,0.0,0.0,0.0,0.0,0.0,0.0,0.0,0.0,0.0,0.0,0.0,0.0,0.0,0.0,0.0,0.0,0.0,0.0,0.0,0.0,0.0,0.0,0.0,0.0,0.0,0.0,0.0,0.0,0.0,0.0,0.0,0.0,0.0,0.0,0.0,0.0,0.0,0.0,0.0,0.0,0.0,0.0,0.0,0.0,0.0,0.0,0.0,0.0,0.0,0.0,0.0,0.0,0.0,0.0,0.0,0.0,0.0,0.0,0.0,0.0,0.0,0.0,0.0,0.0,0.0,0.0,0.0,0.0,0.0,0.0,0.0,0.0,0.0,0.0,0.0,0.0,0.0,0.0,0.0,0.0,0.0,0.0,0.0,0.0,0.0,0.0,0.0,0.0,0.0,0.0,0.0,0.0,0.0,0.0,0.0,0.0,0.0,0.0,0.0,0.0,0.0,0.0,0.0,0.0,0.0,0.0,0.0,0.0,0.0,0.0,0.0,0.0,0.0,0.0,0.0,0.0,0.0,0.0,0.0,0.0,0.0,0.0,0.0,0.0,0.0,0.0,0.0,0.0,0.0,0.0,0.0,0.0,0.0,0.0,0.0,0.0,0.0,0.0,0.0,0.0,0.0,0.0,0.0,0.0,0.0,0.0,0.0,0.0,0.0,0.0,0.0,0.0,0.0,0.0,0.0,0.0,0.0,0.0,0.0,0.0,0.0,0.0,0.0,0.0,0.0,0.0,0.0,0.0,0.0,0.0,0.0,0.0,0.0,0.0,0.0,0.0,0.0,0.0,0.0,0.0,0.0,0.0,0.0,0.0,0.0,0.0,0.0,0.0,0.0,0.0,0.0,0.0,0.0,0.0,0.0,0.0,0.0,0.0,0.0,0.0,0.0,0.0,0.0,0.0,0.0,0.0,0.0,0.0,0.0,0.0,0.0,0.0,0.0,0.0,0.0,0.0,0.0,0.0,0.0,0.0,0.0,0.0,0.0,0.0,0.0,0.0,0.0,0.0,0.0,0.0,0.0,0.0,0.0,0.0,0.0,0.0,0.0,0.0,0.0,0.0,0.0,0.0,0.0,0.0,0.0,0.0,0.0,0.0,0.0,0.0,0.0,0.0,0.0,0.0,0.0,0.0,0.0,0.0,0.0,0.0,0.0,0.0,0.0,0.0,0.0,0.0,0.0,0.0,0.0,0.0,0.0,0.0,0.0,0.0,0.0,0.0,0.0,0.0,0.0,0.0,0.0,0.0,0.0,0.0,0.0,0.0,0.0,0.0,0.0,0.0,0.0,0.0,0.0,0.0,0.0,0.0,0.0,0.0,0.0,0.0,0.0,0.0,0.0,0.0,0.0,0.0,0.0,0.0,0.0,0.0,0.0,0.0,0.0,0.0,0.0,0.0,0.0,0.0,0.0,0.0,0.0,0.0,0.0,0.0,0.0,0.0,0.0,0.0,0.0,0.0,0.0,0.0,0.0,0.0,0.0,0.0,0.0,0.0,0.0,0.0,0.0,0.0,0.0,0.0,0.0,0.0,0.0,0.0,0.0,0.0,0.0,0.0,0.0,0.0,0.0,0.0,0.0,0.0,0.0,0.0,0.0,0.0,0.0,0.0,0.0,0.0,0.0,0.0,0.0,0.0,0.0,0.0,0.0,0.0,0.0,0.0,0.0,0.0,0.0,0.0,0.0,0.0,0.0,0.0,0.0,0.0,0.0,0.0,0.0,0.0,0.0,0.0,0.0,0.0,0.0,0.0,0.0,0.0,0.0,0.0,0.0,0.0,0.0,0.0,0.0,0.0,0.0,0.0,0.0,0.0,0.0,0.0,0.0,0.0,0.0,0.0,0.0,0.0,0.0,0.0,0.0,0.0,0.0,0.0,0.0,0.0,0.0,0.0,0.0,0.0,0.0,0.0,0.0,0.0,0.0,0.0,0.0,0.0,0.0,0.0,0.0,0.0,0.0,0.0,0.0,0.0,0.0,0.0,0.0,0.0,0.0,0.0,0.0,0.0,0.0,0.0,0.0,0.0,0.0,0.0,0.0,0.0,0.0,0.0,0.0,0.0,0.0,0.0,0.0,0.0,0.0,0.0,0.0,0.0,0.0,0.0,0.0,0.0,0.0,0.0,0.0,0.0,0.0,0.0,0.0,0.0,0.0,0.0,0.0,0.0,0.0,0.0,0.0,0.0,0.0,0.0,0.0,0.0,0.0,0.0,0.0,0.0,0.0,0.0,0.0,0.0,0.0,0.0,0.0,0.0,0.0,0.0,0.0,0.0,0.0,0.0,0.0,0.0,0.0,0.0,0.0,0.0,0.0,0.0,0.0,0.0,0.0,0.0,0.0,0.0,0.0,0.0,0.0,0.0,0.0,0.0,0.0,0.0,0.0,0.0,0.0,0.0,0.0,0.0,0.0,0.0,0.0,0.0,0.0,0.0,0.0,0.0,0.0,0.0,0.0,0.0,0.0,0.0,0.0,0.0,0.0,0.0,0.0,0.0,0.0,0.0,0.0,0.0,0.0,0.0,0.0,0.0,0.0,0.0,0.0,0.0,0.0,0.0,0.0,0.0,0.0,0.0,0.0,0.0,0.0,0.0,0.0,0.0,0.0,0.0,0.0,0.0,0.0,0.0,0.0,0.0,0.0,0.0,0.0,0.0,0.0,0.0,0.0,0.0,0.0,0.0,0.0,0.0,0.0,0.0,0.0,0.0,0.0,0.0,0.0,0.0,0.0,0.0,0.0,0.0,0.0,0.0,0.0,0.0,0.0,0.0,0.0,0.0,0.0,0.0,0.0,0.0,0.0,0.0,0.0,0.0,0.0,0.0,0.0,0.0,0.0,0.0,0.0,0.0,0.0,0.0,0.0,0.0,0.0,0.0,0.0,0.0,0.0,0.0,0.0,0.0,0.0,0.0,0.0,0.0,0.0,0.0,0.0,0.0,0.0,0.0,0.0,0.0,0.0,0.0,0.0,0.0,0.0,0.0,0.0,0.0,0.0,0.0,0.0,0.0,0.0,0.0,0.0,0.0,0.0,0.0,0.0,0.0,0.0,0.0,0.0,0.0,0.0,0.0,0.0,0.0,0.0,0.0,0.0,0.0,0.0,0.0,0.0,0.0,0.0,0.0,0.0,0.0,0.0,0.0,0.0,0.0,0.0,0.0,0.0,0.0,0.0,0.0,0.0,0.0,0.0,0.0,0.0,0.0,0.0,0.0,0.0,0.0,0.0,0.0,0.0,0.0,0.0,0.0,0.0,0.0,0.0,0.0,0.0,0.0,0.0,0.0,0.0,0.0,0.0,0.0,0.0,0.0,0.0,0.0,0.0,0.0,0.0,0.0,0.0,0.0,0.0,0.0,0.0,0.0,0.0,0.0,0.0,0.0,0.0,0.0,0.0,0.0,0.0,0.0,0.0,0.0,0.0,0.0,0.0,0.0,0.0,0.0,0.0,0.0,0.0,0.0,0.0,0.0,0.0,0.0,0.0,0.0,0.0,0.0,0.0,0.0,0.0,0.0,0.0,0.0,0.0,0.0,0.0,0.0,0.0,0.0,0.0,0.0,0.0,0.0,0.0,0.0,0.0,0.0,0.0,0.0,0.0,0.0,0.0,0.0,0.0,0.0,0.0,0.0,0.0,0.0,0.0,0.0,0.0,0.0,0.0,0.0,0.0,0.0,0.0,0.0,0.0,0.0,0.0,0.0,0.0,0.0,0.0,0.0,0.0,0.0,0.0,0.0,0.0,0.0,0.0,0.0,0.0,0.0,0.0,0.0,0.0,0.0,0.0,0.0,0.0,0.0,0.0,0.0,0.0,0.0,0.0,0.0,0.0,0.0,0.0,0.0,0.0,0.0,0.0,0.0,0.0,0.0,0.0,0.0,0.0,0.0,0.0,0.0,0.0,0.0,0.0,0.0,0.0,0.0,0.0,0.0,0.0,0.0,0.0,0.0,0.0,0.0,0.0,0.0,0.0,0.0,0.0,0.0,0.0,0.0,0.0,0.0,0.0,0.0,0.0,0.0,0.0,0.0,0.0,0.0,0.0,0.0,0.0,0.0,0.0,0.0,0.0,0.0,0.0,0.0,0.0,0.0,0.0,0.0,0.0,0.0,0.0,0.0,0.0,0.0,0.0,0.0,0.0,0.0,0.0,0.0,0.0,0.0,0.0,0.0,0.0,0.0,0.0,0.0,0.0,0.0,0.0,0.0,0.0,0.0,0.0,0.0,0.0,0.0,0.0,0.0,0.0,0.0,0.0,0.0,0.0,0.0,0.0,0.0,0.0,0.0,0.0,0.0,0.0,0.0,0.0,0.0,0.0,0.0,0.0,0.0,0.0,0.0,0.0,0.0,0.0,0.0,0.0,0.0,0.0,0.0,0.0,0.0,0.0,0.0,0.0,0.0,0.0,0.0,0.0,0.0,0.0,0.0,0.0,0.0,0.0,0.0,0.0,0.0,0.0,0.0,0.0,0.0,0.0,0.0,0.0,0.0,0.0,0.0,0.0,0.0,0.0,0.0,0.0,0.0,0.0,0.0,0.0,0.0,0.0,0.0,0.0,0.0,0.0,0.0,0.0,0.0,0.0,0.0,0.0,0.0,0.0,0.0,0.0,0.0,0.0,0.0,0.0,0.0,0.0,0.0,0.0,0.0,0.0,0.0,0.0,0.0,0.0,0.0,2.3125,0.0,0.0,0.0,0.0,0.0,0.0,0.0,0.0,0.0,0.0,0.0,0.0,0.0,0.0,0.0,0.0,0.0,0.0,0.0,0.0,0.0,0.0,0.0,0.0,2.5159,2.5898,2.563,2.592,2.6039,2.577,0.0,0.0,0.0,0.0,0.0,2.5355,2.5129,2.5409,2.617,2.6371,2.6915,2.7666,2.7644,2.6491,2.4466,0.0,0.0,0.0,0.0,0.0,0.0,0.0,0.0,0.0,0.0,0.0,0.0,0.0,0.0,0.0,0.0,0.0,0.0,0.0,0.0,0.0,0.0,0.0,0.0,0.0,0.0,0.0,0.0,0.0,0.0,0.0,0.0,0.0,0.0,0.0,0.0,0.0,0.0,0.0,0.0,0.0,0.0,0.0,0.0,0.0,0.0,0.0,0.0,0.0,0.0,0.0,0.0,0.0,0.0,0.0,0.0,0.0,0.0,0.0,0.0,0.0,0.0,0.0,0.0,0.0,0.0,0.0,0.0,0.0,0.0,0.0,2.4492,0.0,0.0,0.0,0.0,0.0,0.0,0.0,0.0,0.0,0.0,0.0,0.0,0.0,0.0,0.0,0.0,0.0,0.0,0.0,0.0,0.0,2.3121,2.4327,2.5644,2.6262,2.5851,2.6431,2.6491,2.5741,2.5893,0.0,0.0,0.0,2.5571,2.5535,2.5668,2.6542,2.8205,2.8631,2.9609,3.0961,3.11,2.9478,2.638,2.6298,0.0,0.0,0.0,0.0,0.0,0.0,0.0,0.0,0.0,0.0,0.0,0.0,0.0,0.0,0.0,0.0,0.0,0.0,0.0,0.0,0.0,0.0,0.0,0.0,0.0,0.0,0.0,0.0,0.0,0.0,0.0,0.0,0.0,0.0,0.0,0.0,0.0,0.0,0.0,0.0,0.0,0.0,0.0,0.0,0.0,0.0,0.0,0.0,0.0,0.0,0.0,0.0,0.0,0.0,0.0,0.0,0.0,0.0,0.0,0.0,0.0,0.0,0.0,2.9062,2.9336,3.0057,2.9648,2.9492,2.9414,2.8008,2.7324,2.7129,0.0,0.0,0.0,0.0,0.0,0.0,0.0,0.0,0.0,0.0,0.0,0.0,0.0,0.0,0.0,0.0,0.0,0.0,0.0,0.0,2.3214,2.414,2.5703,2.6688,2.6732,2.7115,2.6993,2.6094,2.6383,0.0,0.0,2.55,2.5535,2.5335,2.5996,2.6796,2.7806,3.0097,3.1656,3.2443,3.3224,3.2975,3.1747,2.9766,2.8809,2.8536,0.0,0.0,0.0,0.0,0.0,0.0,0.0,0.0,0.0,0.0,0.0,0.0,0.0,0.0,0.0,0.0,0.0,0.0,0.0,0.0,0.0,0.0,0.0,0.0,0.0,0.0,0.0,0.0,0.0,0.0,0.0,0.0,0.0,0.0,0.0,0.0,0.0,0.0,0.0,0.0,0.0,2.8155,2.8257,0.0,0.0,0.0,0.0,0.0,0.0,0.0,0.0,0.0,0.0,0.0,0.0,0.0,2.8281,2.9196,2.9961,3.0469,3.0644,3.1328,3.1779,3.1876,3.1758,3.1738,3.1719,3.1504,0.0,2.8086,2.748,0.0,0.0,0.0,0.0,0.0,0.0,0.0,0.0,0.0,0.0,0.0,0.0,0.0,0.0,0.0,0.0,0.0,0.0,0.0,0.0,0.0,2.6721,2.8096,2.797,2.9056,2.8958,2.7103,2.727,2.6797,2.5348,2.537,2.5515,2.5733,2.6649,2.8361,3.0855,3.3188,3.4487,3.4776,3.5163,3.5187,3.48,3.3808,3.2228,3.0263,2.8537,0.0,0.0,0.0,0.0,0.0,0.0,0.0,0.0,0.0,0.0,0.0,0.0,0.0,0.0,0.0,0.0,0.0,0.0,0.0,0.0,0.0,0.0,0.0,0.0,0.0,0.0,0.0,0.0,0.0,0.0,0.0,0.0,0.0,0.0,0.0,0.0,0.0,0.0,0.0,2.8731,2.9941,3.0248,3.0245,2.9222,0.0,0.0,0.0,0.0,0.0,0.0,0.0,0.0,0.0,3.0488,3.0723,3.1465,3.2832,3.3223,3.3672,3.4141,3.4277,3.4336,3.4316,3.4082,3.3828,3.3574,3.334,3.2461,3.1074,2.9687,2.8516,2.748,0.0,0.0,0.0,0.0,2.5762,2.6094,0.0,0.0,0.0,0.0,0.0,0.0,0.0,0.0,0.0,0.0,0.0,0.0,2.5763,2.805,2.9499,2.9553,3.0922,3.0898,2.8683,2.8334,2.7524,2.5973,2.5516,2.5612,2.6286,2.8041,3.0567,3.3885,3.5713,3.6675,3.6819,3.6871,3.6898,3.6898,3.6821,3.5273,3.2537,3.0913,2.9076,2.7143,0.0,0.0,0.0,0.0,0.0,0.0,0.0,0.0,0.0,0.0,0.0,0.0,0.0,0.0,0.0,0.0,0.0,0.0,0.0,0.0,0.0,0.0,0.0,0.0,0.0,0.0,0.0,0.0,0.0,0.0,0.0,0.0,0.0,0.0,0.0,0.0,0.0,3.0639,3.1944,3.2055,3.2769,3.2064,0.0,0.0,0.0,0.0,0.0,0.0,3.0449,3.0762,3.168,3.3398,3.3555,3.4238,3.5547,3.5547,3.5879,3.6504,3.6172,3.6016,3.6016,3.5703,3.5312,3.4863,3.4551,3.416,3.3594,3.168,3.0508,2.9785,2.8496,2.7871,2.7676,2.7676,2.7871,2.8335,0.0,0.0,0.0,0.0,0.0,0.0,0.0,0.0,0.0,0.0,0.0,2.5358,2.7777,2.9337,3.0614,3.1448,3.2234,3.2099,3.0845,2.9496,2.8421,2.7633,2.6117,2.5805,2.6825,3.0422,3.3332,3.5497,3.6603,3.7421,3.7902,3.8166,3.8271,3.8299,3.8047,3.7512,3.6727,3.4574,3.2968,3.1612,2.8398,0.0,0.0,0.0,0.0,0.0,0.0,0.0,0.0,0.0,0.0,0.0,0.0,0.0,0.0,0.0,0.0,0.0,0.0,0.0,0.0,0.0,0.0,0.0,0.0,0.0,0.0,0.0,0.0,0.0,0.0,0.0,0.0,0.0,0.0,0.0,0.0,0.0,0.0,3.3238,3.4349,0.0,0.0,0.0,0.0,3.0624,3.1035,3.1836,3.3164,3.4004,3.4687,3.5234,3.5644,3.5898,3.5996,3.5996,3.6016,3.6055,3.6035,3.6016,3.6016,3.5996,3.5762,3.5351,3.5332,3.5059,3.4531,3.3203,3.1934,3.082,3.0723,3.0176,2.9434,2.9434,2.9453,2.9492,0.0,0.0,0.0,0.0,0.0,1.9811,1.9811,2.0589,2.144,2.2077,2.4578,2.6866,2.8374,3.0819,3.2618,3.3334,3.3955,3.3741,3.245,3.0652,2.96,2.9512,2.7782,2.8162,3.0951,3.2971,3.4871,3.6627,3.7348,3.7805,3.7974,3.808,3.8133,3.8133,3.8202,3.824,3.8052,3.5888,3.395,3.2311,3.0428,2.825,0.0,0.0,0.0,0.0,0.0,0.0,0.0,0.0,0.0,0.0,0.0,0.0,0.0,0.0,0.0,0.0,0.0,0.0,0.0,0.0,0.0,0.0,0.0,0.0,0.0,0.0,0.0,0.0,0.0,0.0,0.0,0.0,0.0,0.0,0.0,0.0,0.0,3.7655,3.8572,0.0,3.651,3.5402,3.4825,3.4841,3.4024,3.4141,3.5449,3.6055,3.6699,3.7422,3.7851,3.8203,3.8516,3.8516,3.8359,3.8066,3.8066,3.7637,3.6836,3.6836,3.6465,3.5781,3.5508,3.5293,3.5078,3.4336,3.3418,3.248,3.2226,3.1758,3.125,3.125,3.125,3.1211,0.0,0.0,0.0,0.0,1.9811,1.9811,1.9811,2.0916,2.2017,2.265,2.572,2.8324,2.9632,3.2262,3.4115,3.4558,3.506,3.4795,3.3573,3.1849,3.0821,3.0628,2.9615,3.0543,3.3741,3.4823,3.605,3.7469,3.7805,3.7974,3.7974,3.7974,3.7974,3.8027,3.821,3.8368,3.8428,3.704,3.557,3.4055,3.2742,3.1048,2.9051,0.0,0.0,0.0,0.0,0.0,0.0,0.0,0.0,0.0,0.0,0.0,0.0,0.0,0.0,0.0,0.0,0.0,0.0,0.0,0.0,0.0,0.0,0.0,0.0,0.0,0.0,0.0,0.0,0.0,0.0,0.0,0.0,0.0,0.0,0.0,3.8815,4.0234,4.128,4.1435,4.0283,3.8613,3.7742,3.8062,3.6636,3.6289,3.7461,3.7949,3.8437,3.9004,3.9297,3.959,3.9883,3.9902,3.9746,3.9434,3.9277,3.875,3.793,3.7793,3.7266,3.6445,3.6152,3.5879,3.5566,3.5117,3.4609,3.4023,3.3457,3.3047,3.2835,3.248,3.2383,3.2305,0.0,0.0,0.0,1.9811,1.9811,1.9811,1.9836,2.1217,2.2698,2.3879,2.6917,2.9688,3.1697,3.3614,3.4881,3.5234,3.5452,3.5136,3.4149,3.3044,3.1985,3.1019,3.1548,3.2779,3.4799,3.5905,3.694,3.7974,3.7974,3.7974,3.7974,3.7974,3.7974,3.7974,3.8027,3.8027,3.8027,3.8291,3.7958,3.7111,3.5433,3.4148,3.2842,0.0,0.0,0.0,0.0,0.0,0.0,0.0,0.0,0.0,0.0,0.0,0.0,0.0,0.0,0.0,0.0,0.0,0.0,0.0,0.0,0.0,0.0,0.0,0.0,0.0,0.0,0.0,0.0,0.0,0.0,0.0,0.0,0.0,3.4991,3.9056,4.1653,4.0691,4.2169,4.2898,4.1719,3.9693,3.8885,4.0166,3.8826,3.834,3.918,3.9668,3.9922,3.9922,3.9922,3.9941,3.9941,3.9941,3.9922,3.9902,3.9453,3.9199,3.916,3.875,3.8086,3.7305,3.7305,3.6836,3.6035,3.5605,3.543,3.5351,3.4453,3.4082,3.3965,3.3144,3.2812,3.2676,0.0,0.0,1.9811,1.9811,1.9811,1.9936,2.039,2.1167,2.2422,2.433,2.7494,3.0192,3.193,3.4225,3.5774,3.6048,3.5441,3.5129,3.5422,3.2991,3.1704,3.2034,3.4006,3.5545,3.6531,3.6819,3.73,3.7974,3.7974,3.7974,3.7974,3.7974,3.7974,3.8027,3.8185,3.8421,3.8579,3.8945,3.9061,3.8894,3.7393,3.6043,3.4655,0.0,0.0,0.0,0.0,0.0,0.0,0.0,0.0,0.0,0.0,0.0,0.0,0.0,0.0,0.0,0.0,0.0,0.0,0.0,0.0,0.0,0.0,0.0,0.0,0.0,0.0,0.0,0.0,0.0,0.0,0.0,0.0,3.9874,3.9489,4.122,4.3144,4.478,4.5422,4.5437,4.4794,4.3164,4.2046,4.1586,4.0204,3.9453,3.9687,4.0117,4.0351,4.0351,4.0664,4.082,4.082,4.082,4.0664,4.0351,3.9902,3.9375,3.873,3.8301,3.7812,3.7305,3.7305,3.7168,3.6914,3.6484,3.6328,3.6191,3.5,3.4336,3.4043,3.3809,3.332,3.2754,0.0,1.9233,1.9811,1.9811,1.9811,1.9987,2.0616,2.137,2.2623,2.4858,2.7871,3.0407,3.2039,3.4165,3.5447,3.554,3.5186,3.4802,3.4339,3.2723,3.2554,3.439,3.5713,3.6771,3.7517,3.7757,3.8022,3.8334,3.8551,3.8551,3.8334,3.8551,3.8431,3.7998,3.8398,3.8587,3.8631,3.8945,3.9258,3.9467,3.874,3.7991,3.7111,3.5529,3.4474,3.3621,3.2064,3.1361,3.1009,2.9854,0.0,0.0,0.0,0.0,0.0,0.0,0.0,0.0,0.0,0.0,0.0,0.0,0.0,0.0,0.0,0.0,0.0,0.0,0.0,0.0,0.0,0.0,0.0,0.0,4.0186,4.2495,4.3096,4.389,4.5068,4.6824,4.7233,4.7064,4.6311,4.4909,4.3536,4.2435,4.0948,4.0234,4.043,4.0664,4.0801,4.0801,4.1035,4.1172,4.1172,4.1172,4.1035,4.0781,4.0371,3.9805,3.9121,3.8672,3.8125,0.0,3.7559,3.7461,3.7266,3.6836,3.668,0.0,0.0,0.0,0.0,0.0,3.3633,3.3027,0.0,1.9434,1.9811,1.9811,1.9811,1.9987,2.0616,2.1543,2.3,2.5234,2.7896,3.0231,3.1863,3.352,3.446,3.4239,3.4711,3.4255,3.2435,3.2699,3.4198,3.6988,3.6771,3.706,3.8046,3.8575,3.8839,3.8912,3.9369,3.9369,3.8912,3.9393,3.908,3.819,3.8677,3.8766,3.8546,3.8813,3.905,3.9362,3.9594,3.9697,3.9471,3.7461,3.6958,3.701,3.5002,3.3947,3.3413,3.2315,0.0,0.0,0.0,0.0,0.0,0.0,0.0,0.0,0.0,0.0,0.0,0.0,0.0,0.0,0.0,0.0,0.0,0.0,0.0,0.0,0.0,0.0,0.0,0.0,4.2506,4.3962,4.5838,4.6607,4.7136,4.7545,4.805,4.7875,4.6652,4.535,4.4031,4.2611,4.133,4.0762,4.1152,0.0,0.0,0.0,0.0,4.1172,4.1172,4.1172,4.1172,4.1172,4.0723,4.0332,3.9941,3.9434,3.8789,3.8066,3.8027,3.7793,3.7402,3.6934,3.668,3.6523,3.5703,3.5391,3.5293,3.4394,3.3828,3.3437,0.0,1.9434,1.9811,1.9811,1.9811,1.9987,2.0616,2.1245,2.2447,2.4682,2.6992,2.9076,3.0733,3.239,3.3571,3.3934,3.4059,3.4205,3.4271,3.5139,3.593,3.6531,3.7276,3.7974,3.8647,3.8767,3.9032,3.9465,3.9561,3.9561,3.9465,3.9561,3.9489,3.9272,3.9369,3.9443,3.9349,3.9457,3.9542,3.9645,3.9697,3.9697,3.9597,3.8718,3.8165,3.7739,3.686,3.6483,3.6282,3.5676,3.4977,3.4204,3.3244,3.1863,0.0,0.0,0.0,0.0,0.0,0.0,0.0,0.0,0.0,0.0,0.0,0.0,0.0,0.0,0.0,0.0,0.0,0.0,0.0,4.2313,4.478,4.6728,4.7136,4.8026,4.8507,4.8171,4.8603,4.7981,4.5672,4.5136,4.4029,4.1691,4.119,4.1074,4.1172,4.1172,4.1172,4.1172,4.1172,4.1172,4.1172,4.1172,4.1172,4.1172,0.0,0.0,4.0371,3.957,3.9101,3.8926,3.8594,3.8398,3.8262,3.75,3.6777,3.6094,3.5586,3.5391,3.5293,3.4394,3.4023,3.3887,1.9334,1.9635,1.9811,1.9811,1.9811,1.9987,2.0616,2.1169,2.2297,2.4499,2.6264,2.7921,2.954,3.0758,3.1537,3.1813,3.2256,3.3201,3.489,3.5478,3.6249,3.7156,3.7867,3.8398,3.8815,3.9165,3.963,3.9994,4.0258,4.0258,4.0018,4.0282,4.0114,3.9609,4.0026,4.0153,4.0045,4.0202,4.0192,4.0099,4.0099,3.9948,3.9672,3.9396,3.9094,3.8818,3.8542,3.8266,3.7939,3.7387,3.681,3.6232,3.5403,3.4173,3.2792,0.0,0.0,0.0,0.0,0.0,0.0,0.0,0.0,0.0,0.0,0.0,0.0,0.0,0.0,3.835,0.0,0.0,4.3601,4.4924,4.668,4.7978,4.8243,4.8964,4.9373,4.9109,4.9325,4.8732,4.6838,4.5933,4.4635,4.2483,4.1618,4.1172,4.1172,4.1172,4.1172,4.1172,4.1172,4.1172,4.1172,4.1172,4.1172,4.1172,4.0957,4.0742,4.0508,4.0059,3.9629,3.9199,3.8984,3.8769,3.8516,3.7656,3.6797,3.5996,3.5781,3.5586,3.5312,3.4629,3.4258,3.4004,1.971,1.9811,1.9811,1.9811,1.9811,1.9962,2.044,2.1094,2.2171,2.4048,2.5485,2.6876,2.8298,2.9051,2.9603,2.993,3.0832,3.2525,3.5185,3.5454,3.6278,3.806,3.8359,3.8674,3.9123,3.974,4.0272,4.066,4.1037,4.0956,4.0547,4.1037,4.0829,4.0033,4.0658,4.0863,4.0745,4.0893,4.0789,4.0526,4.0526,4.0199,3.9697,3.9697,3.9697,3.9672,3.9572,3.917,3.8617,3.804,3.7563,3.7086,3.6581,3.5755,3.4726,3.3169,3.2164,0.0,0.0,0.0,0.0,0.0,0.0,0.0,0.0,0.0,3.7318,3.908,4.0202,4.1485,4.3601,4.4611,4.5669,4.7377,4.8195,4.8748,4.9181,4.9686,4.9998,4.9878,4.9974,4.9581,4.8292,4.6757,4.5223,4.3483,4.2022,4.1172,4.1172,4.1172,4.1172,4.1172,4.1172,4.1172,4.1172,4.1172,4.1172,4.1172,4.1172,4.0996,4.0644,4.0566,4.0078,3.9336,3.916,3.8789,3.8281,3.7578,3.6797,3.6016,3.6016,3.582,3.5449,3.4902,3.4473,3.4121,0.0,1.9811,1.9811,1.9811,1.9811,1.9836,1.9886,2.0815,2.1744,2.2498,2.4406,2.5963,2.67,2.767,2.89,3.0382,3.1755,3.3474,3.5759,3.6358,3.7282,3.8635,3.8723,3.9255,4.0281,4.0321,4.0717,4.1452,4.132,4.1148,4.11,4.1411,4.1476,4.1412,4.1558,4.1613,4.1538,4.1314,4.0974,4.0526,4.0526,4.0199,3.9697,3.9697,3.9697,3.9622,3.9145,3.8592,3.8015,3.7462,3.7236,3.7086,3.6581,3.6329,3.5956,3.4776,0.0,3.229,3.3119,3.3841,3.4664,3.5819,3.5915,3.6814,0.0,0.0,4.0829,4.318,4.4467,4.5309,4.5597,4.6848,4.793,4.8171,4.9036,4.971,4.9782,5.0263,5.0431,4.9926,5.0311,4.9771,4.776,4.6557,4.4998,4.2973,4.1765,4.1172,4.1172,4.1172,4.1172,4.1172,4.1172,4.1172,4.1172,4.1172,4.1172,4.1172,4.1172,4.1152,4.1094,4.0703,4.0273,3.9766,3.8984,3.8184,3.7441,3.7344,3.6797,3.6016,3.6016,3.5996,3.584,3.5,3.4668,3.4512,0.0,1.9811,1.9811,1.9811,1.9811,1.9911,2.0289,2.0966,2.1794,2.2644,2.3879,2.4983,2.5862,2.67,2.7659,2.8862,3.0523,3.2418,3.47,3.6086,3.739,3.8715,3.9009,3.9418,4.0166,4.0355,4.0755,4.1606,4.1344,4.1344,4.1688,4.1606,4.172,4.1915,4.2065,4.219,4.2165,4.2273,4.1806,4.1003,4.1003,4.0475,3.9622,3.8969,3.8718,3.8693,3.8442,3.7789,0.0,0.0,3.6757,3.6707,3.648,3.5931,3.5253,3.4474,3.4154,0.0,3.5881,3.6579,3.7134,0.0,3.9195,4.0475,4.2362,4.2771,4.3229,4.49,4.5862,4.6583,4.7185,4.8098,4.8844,0.0,4.9854,5.0359,5.0359,5.0287,5.0143,4.9902,4.9806,4.9081,4.735,4.6357,4.5051,4.2965,4.1822,4.1172,4.1172,4.1172,4.1172,4.1172,4.1172,4.1172,4.1172,4.1172,4.1172,4.1172,4.1172,4.1172,4.1172,4.0976,4.0527,3.9844,3.8965,3.8086,3.7305,3.7305,3.6797,3.6016,3.6016,3.6016,3.5918,3.5019,3.4707,3.457,0.0,1.9811,1.9811,1.9811,1.9811,1.9936,2.039,2.1069,2.1769,2.2543,2.3452,2.4406,2.5485,2.6147,2.6806,2.7603,2.9313,3.1272,3.3341,3.5412,3.7171,3.8531,3.9077,3.959,4.0055,4.0348,4.0776,4.1387,4.1305,4.1516,4.1972,4.1891,4.1948,4.2199,4.2538,4.2625,4.2625,4.2755,4.2208,4.1275,4.1125,4.0551,3.9572,3.8442,3.7713,3.7312,3.7161,3.6483,0.0,0.0,3.5248,3.5475,3.5324,3.5002,3.4726,3.4801,3.5705,3.6791,3.7392,3.8436,0.0,3.9905,4.1629,4.3265,4.3577,4.4227,4.5029,4.615,4.6776,4.7377,4.8147,4.8844,4.9421,4.9875,5.0335,5.0696,5.0696,5.0215,4.9758,4.9469,4.9084,4.8225,4.6588,4.6388,4.5735,4.4304,4.2698,4.185,4.185,4.1405,4.1172,4.1172,4.1172,4.1172,4.1172,4.1172,4.1172,4.1172,4.1172,4.1172,4.1172,4.0937,4.0488,3.9844,3.8965,3.8164,3.7461,3.7344,3.6855,3.6191,3.6074,3.5957,3.5742,3.498,3.4707,3.457,0.0,0.0,1.9811,1.9811,1.9811,1.9811,1.9836,2.0765,2.1493,2.1543,2.2975,2.4406,2.5485,2.6147,2.6725,2.7268,2.885,3.0532,3.2148,3.4603,3.6621,3.7965,3.9028,3.9734,4.0103,4.052,4.0804,4.0828,4.1339,4.1606,4.1606,4.2174,4.2457,4.2513,4.2874,4.2986,4.2936,4.2464,4.1856,4.1225,4.0752,4.0199,3.9572,3.8442,3.701,3.5508,3.4981,0.0,3.3721,3.2089,3.2265,3.3111,3.2516,3.3445,0.0,3.6609,3.8266,3.9143,3.7023,0.0,4.1761,4.1296,4.2735,4.4501,4.5597,4.5862,4.6175,4.7233,4.7882,4.8243,4.8291,4.9133,4.9854,4.9878,5.0335,5.0696,5.0696,5.0215,4.9493,4.8459,4.8315,4.7536,0.0,4.6608,4.7431,4.7336,4.4912,4.3456,4.3456,4.1985,4.1172,4.1172,4.1172,4.1172,4.1172,4.1172,4.1172,4.1172,4.1172,4.1172,4.1152,4.0312,3.9922,3.9844,3.8965,3.832,3.7871,3.7461,3.7031,3.6601,3.6191,3.5762,3.5351,3.4883,3.4707,3.457,0.0,0.0,0.0,2.039,2.039,2.039,2.039,2.1043,2.1619,2.1995,2.3502,0.0,0.0,0.0,0.0,0.0,2.8147,2.9679,3.2064,3.3383,3.4936,3.686,3.7967,3.8663,3.8958,3.9841,4.0528,4.0898,4.0795,4.1004,4.139,4.1444,4.1554,4.1718,4.1827,4.1882,4.1882,4.1706,4.1505,4.1175,3.9948,3.932,3.8994,3.7536,3.5881,3.4324,0.0,0.0,3.1637,3.106,3.1135,3.1537,3.2039,0.0,0.0,3.5877,3.7318,3.8333,3.9726,0.0,4.2708,4.3614,4.4876,4.6102,4.68,4.6968,4.6872,4.6535,4.6583,4.6607,4.6271,4.7064,4.8002,4.87,4.9565,5.0287,5.0648,5.0215,4.9469,4.8411,4.8603,0.0,0.0,0.0,0.0,4.4439,4.2638,4.1686,4.1985,4.1463,4.1172,4.1172,4.1172,4.1172,4.1172,4.1172,4.1172,4.1172,4.1172,4.1016,4.0723,4.0156,3.9726,3.9394,3.8828,3.832,3.7891,3.7461,3.7051,3.6621,3.6191,3.5762,3.5332,3.4863,3.4531,3.4199,0.0,0.0,0.0,0.0,0.0,0.0,0.0,0.0,0.0,0.0,0.0,0.0,0.0,0.0,0.0,0.0,0.0,2.8649,3.0608,3.1838,3.3294,3.5127,3.6257,3.6941,3.7221,3.8114,3.8933,3.9572,3.9861,4.0364,4.1168,4.086,4.0839,4.0974,4.0774,4.0752,4.0752,4.0551,4.035,3.9997,3.8768,3.819,3.7838,3.6153,3.47,0.0,0.0,0.0,2.9941,2.9779,3.0131,3.0758,3.1637,3.2893,3.4449,3.6288,3.7916,3.9533,4.1573,4.2763,4.3771,4.5068,4.6223,4.704,4.7185,4.7064,4.6631,4.5573,4.5068,4.4683,4.4347,4.4852,4.5838,4.7473,4.8459,4.9421,5.0551,5.0046,4.9325,4.8652,4.8531,4.8531,0.0,0.0,0.0,4.5611,4.422,4.3167,4.2866,4.237,4.1773,4.125,4.1172,4.1172,4.1172,4.1172,4.1172,4.1172,4.1172,4.0937,4.0508,4.0098,3.9648,3.918,3.875,3.832,3.7891,3.7461,3.7051,3.6621,3.6191,3.5664,3.5117,3.4805,3.4336,3.3809,0.0,0.0,0.0,0.0,0.0,0.0,0.0,0.0,0.0,0.0,0.0,0.0,0.0,0.0,0.0,0.0,0.0,0.0,0.0,0.0,0.0,3.2893,3.3997,3.474,3.5012,3.5583,3.633,3.7145,3.8434,3.9631,4.0678,4.0392,4.03,4.0275,3.9747,3.9521,3.9496,3.8969,3.8417,3.7864,3.7262,3.6757,3.6103,3.4474,0.0,0.0,0.0,0.0,0.0,2.8398,0.0,0.0,0.0,0.0,0.0,3.7941,3.9996,4.2559,4.2516,4.3626,4.4995,4.5854,4.6776,4.7353,4.68,4.6271,4.5549,4.4357,4.3361,4.2675,0.0,0.0,4.3577,4.6175,4.7112,4.8291,5.0407,4.9806,4.9133,0.0,0.0,0.0,0.0,0.0,0.0,5.0505,0.0,4.7389,4.5841,4.4289,4.2734,4.125,4.1172,4.1172,4.1172,4.1172,4.1172,4.1172,4.1172,4.0937,4.0469,4.0078,3.9629,3.9141,3.875,3.834,3.793,3.748,3.707,3.666,3.6191,3.5488,3.4707,3.4707,3.416,3.3418,0.0,0.0,0.0,0.0,0.0,0.0,0.0,0.0,0.0,0.0,0.0,0.0,0.0,0.0,0.0,0.0,0.0,0.0,0.0,0.0,0.0,0.0,0.0,3.3276,3.4209,3.5115,3.594,3.6593,3.6916,3.7265,3.7515,3.7487,3.7461,3.7412,3.7335,3.726,3.726,3.7109,3.6958,3.6707,0.0,3.465,3.4449,0.0,0.0,0.0,0.0,0.0,0.0,0.0,0.0,0.0,0.0,3.7096,3.9283,0.0,0.0,4.3305,4.4852,4.5731,4.6408,4.7425,4.7593,4.7257,4.6343,4.5718,4.4645,4.2447,4.1461,4.0619,0.0,0.0,0.0,4.4659,4.6704,0.0,5.0455,5.0455,0.0,4.9181,0.0,4.9686,4.9133,4.9338,0.0,0.0,4.6709,4.423,4.4117,4.2657,4.1618,4.1172,4.1172,4.1172,4.1172,4.1172,4.1172,4.1172,4.1172,4.0781,4.0059,3.9941,3.9473,3.873,3.8613,3.8516,3.8359,3.7598,3.7226,3.707,3.6309,3.5488,3.4707,3.4707,3.416,3.3418,0.0,0.0,0.0,0.0,0.0,0.0,0.0,0.0,0.0,0.0,0.0,0.0,0.0,0.0,0.0,0.0,0.0,0.0,0.0,0.0,0.0,0.0,3.0417,3.1311,3.2441,3.3294,3.3997,0.0,0.0,0.0,3.5629,3.5378,3.5278,3.5324,3.5072,3.4972,3.4972,3.4972,0.0,0.0,0.0,0.0,0.0,0.0,0.0,0.0,0.0,0.0,0.0,0.0,0.0,3.6185,3.7867,3.9434,4.0884,4.2233,0.0,4.5154,4.6456,4.7123,4.7545,4.8147,4.7545,4.6463,4.5164,4.4106,4.2711,4.0282,3.9176,0.0,3.7469,0.0,0.0,0.0,0.0,0.0,4.9662,4.9998,4.995,0.0,5.0119,0.0,4.983,5.0359,5.0696,0.0,4.7984,4.6095,4.5617,4.4138,4.2963,4.2216,4.154,4.1172,4.1172,4.1172,4.1172,4.1172,4.0976,4.0527,3.9883,3.9687,3.9219,3.8574,0.0,3.8476,3.8242,3.7578,3.7187,3.6953,3.6289,3.5488,3.4707,3.4707,3.416,3.3418,0.0,0.0,0.0,0.0,0.0,0.0,0.0,0.0,0.0,0.0,0.0,0.0,0.0,0.0,0.0,0.0,0.0,0.0,0.0,0.0,0.0,0.0,2.8787,2.9339,3.0583,3.106,3.1562,0.0,0.0,0.0,0.0,0.0,0.0,0.0,0.0,0.0,0.0,0.0,0.0,0.0,0.0,0.0,0.0,0.0,0.0,0.0,0.0,0.0,0.0,0.0,3.6759,3.7362,3.9971,4.1654,4.3037,4.4274,4.5904,4.7402,4.7612,4.8069,4.8382,4.8387,4.7136,4.5477,4.3794,4.2134,4.0355,3.8171,0.0,3.617,3.6148,3.6699,3.8214,4.1365,0.0,4.5381,4.8628,4.9084,4.9493,5.0576,5.0287,5.0167,5.0648,5.0696,5.0696,5.0696,5.0696,5.0033,4.8381,4.6751,4.517,4.3532,4.1985,4.1172,4.1172,4.1172,4.1152,4.1074,4.0703,4.0273,3.9785,3.9394,3.8965,3.8574,0.0,0.0,3.7969,3.75,3.709,3.6699,3.6211,3.5488,3.4707,3.4707,3.416,3.3418,0.0,0.0,0.0,0.0,0.0,0.0,0.0,0.0,0.0,0.0,2.6314,2.5536,0.0,0.0,0.0,0.0,0.0,0.0,0.0,0.0,0.0,0.0,2.8247,2.9001,3.0583,0.0,0.0,0.0,0.0,0.0,0.0,0.0,0.0,0.0,0.0,0.0,0.0,0.0,0.0,0.0,0.0,0.0,0.0,0.0,0.0,0.0,0.0,0.0,0.0,0.0,3.8642,4.0072,4.1629,4.3061,4.4323,4.5134,4.6631,4.8057,4.8691,4.8826,4.8816,4.8912,4.7425,4.5381,4.3361,4.1341,0.0,0.0,3.5693,3.5016,3.4775,3.6104,3.8094,4.0884,0.0,0.0,0.0,0.0,4.9493,0.0,0.0,0.0,0.0,0.0,0.0,0.0,0.0,5.0033,4.8381,4.6751,4.517,4.3532,4.1985,4.1172,4.1172,4.1172,4.0996,4.0644,4.0566,4.0098,3.9316,3.9238,3.8965,3.8574,3.8574,0.0,3.8398,3.7617,3.7246,3.7109,3.6328,3.5488,3.4707,3.4707,3.416,3.3418,0.0,0.0,0.0,0.0,0.0,0.0,0.0,0.0,2.6977,2.9082,2.8867,2.8261,2.7394,2.7067,0.0,0.0,0.0,0.0,0.0,0.0,0.0,0.0,0.0,0.0,0.0,0.0,0.0,0.0,0.0,0.0,0.0,0.0,0.0,0.0,0.0,0.0,0.0,0.0,0.0,0.0,0.0,0.0,0.0,0.0,0.0,0.0,0.0,0.0,0.0,0.0,3.7362,3.9696,4.2693,4.3813,4.4361,4.5819,4.7133,4.8227,4.8932,4.9189,4.9198,4.8811,4.6655,4.413,4.2014,0.0,0.0,0.0,3.4534,3.4148,3.4172,0.0,0.0,0.0,0.0,0.0,0.0,0.0,0.0,0.0,0.0,0.0,0.0,0.0,0.0,0.0,0.0,5.0317,4.958,4.8018,4.6455,4.4795,4.3248,4.2427,4.2427,4.1618,4.0957,4.0527,4.0293,3.9844,3.9199,3.8965,3.8769,3.8574,3.8574,0.0,3.8516,3.7656,3.7305,3.7207,3.6348,3.5625,3.5019,3.4785,3.4297,3.373,0.0,0.0,0.0,0.0,0.0,0.0,0.0,2.6919,2.8308,3.0688,3.1306,3.1008,2.9845,2.8623,2.7566,0.0,0.0,0.0,0.0,0.0,0.0,0.0,0.0,0.0,0.0,0.0,0.0,0.0,0.0,0.0,0.0,0.0,0.0,0.0,0.0,0.0,0.0,0.0,0.0,0.0,0.0,0.0,0.0,0.0,0.0,0.0,0.0,0.0,0.0,0.0,3.5529,3.7839,4.1907,4.3315,4.3767,4.5404,4.6974,4.8206,4.8498,4.9087,4.9382,4.8257,4.5718,4.2928,4.0739,3.8379,0.0,0.0,3.3685,3.3538,3.3906,0.0,3.5713,0.0,0.0,0.0,0.0,0.0,0.0,0.0,0.0,0.0,0.0,0.0,0.0,0.0,0.0,0.0,5.0696,4.8838,4.7192,4.5915,4.3987,4.3019,4.3019,4.185,4.0918,4.0391,4.0059,3.9609,3.9062,3.873,3.8574,3.8574,3.8574,0.0,0.0,3.7656,3.7305,3.7207,3.6348,3.5762,3.5332,3.4863,3.4434,3.4004,0.0,0.0,0.0,0.0,0.0,0.0,0.0,2.6963,2.915,3.2254,3.228,3.2071,3.226,3.0837,2.9137,0.0,0.0,0.0,0.0,0.0,0.0,0.0,0.0,0.0,0.0,0.0,0.0,0.0,0.0,0.0,0.0,0.0,0.0,0.0,0.0,0.0,0.0,0.0,0.0,0.0,0.0,0.0,0.0,0.0,0.0,0.0,0.0,0.0,0.0,0.0,0.0,3.4776,3.7688,4.0436,4.2591,4.2454,0.0,0.0,4.7182,4.8148,4.8991,4.731,4.5164,4.2832,4.0258,0.0,0.0,3.4277,3.3427,3.3116,3.3836,3.3708,0.0,0.0,0.0,3.9609,0.0,0.0,0.0,0.0,0.0,0.0,0.0,0.0,0.0,0.0,0.0,0.0,5.0696,4.7777,4.6063,4.5915,4.2963,4.1385,4.1385,4.125,4.0762,3.9961,3.9922,3.9453,3.8633,3.8594,3.8574,3.8574,3.8574,0.0,0.0,3.7656,3.7305,3.7207,3.6348,3.5762,3.5332,3.4863,3.4434,3.4004,0.0,0.0,0.0,0.0,0.0,0.0,0.0,2.7285,2.9071,3.2823,3.3135,3.3105,3.3466,3.2495,3.0738,0.0,0.0,0.0,0.0,0.0,0.0,0.0,0.0,0.0,0.0,0.0,0.0,0.0,0.0,0.0,0.0,0.0,0.0,0.0,0.0,0.0,0.0,0.0,0.0,0.0,0.0,0.0,0.0,0.0,0.0,0.0,0.0,0.0,0.0,0.0,0.0,0.0,3.4274,3.6263,0.0,0.0,4.3761,4.6427,4.6883,4.833,4.9216,4.7037,4.4946,4.2573,3.9564,0.0,3.5257,3.3805,3.2999,3.269,3.3182,3.3032,3.3452,3.5449,3.5689,3.6867,4.0499,0.0,0.0,0.0,0.0,0.0,0.0,0.0,0.0,0.0,0.0,0.0,5.0696,4.9509,4.8381,4.7338,4.5191,4.3553,4.258,4.1361,4.0488,3.9883,3.9609,3.916,3.8574,3.8574,3.8574,3.8574,3.8574,0.0,0.0,3.7656,3.7305,3.7207,3.6348,3.5918,3.5723,3.5273,3.4824,3.4394,0.0,0.0,0.0,0.0,0.0,2.4044,2.6602,2.7411,2.9065,3.2594,3.3064,3.3271,3.3794,3.2905,3.134,2.9114,0.0,0.0,0.0,0.0,0.0,0.0,0.0,0.0,0.0,0.0,0.0,0.0,0.0,0.0,0.0,0.0,0.0,0.0,0.0,0.0,0.0,0.0,0.0,0.0,0.0,0.0,0.0,0.0,0.0,0.0,0.0,0.0,0.0,0.0,0.0,0.0,0.0,0.0,0.0,0.0,4.1805,4.4401,4.5355,4.7164,4.8199,4.5963,4.405,4.1867,0.0,3.6724,3.4979,3.3572,3.2857,3.2591,3.2865,3.2762,3.3039,3.4366,3.4486,3.5519,3.8623,0.0,0.0,0.0,0.0,0.0,0.0,0.0,0.0,0.0,0.0,0.0,0.0,5.0696,4.9961,4.8381,4.6307,4.4666,4.3532,4.1546,4.0312,3.9883,3.9414,3.8984,3.8574,3.8574,3.8574,3.8574,0.0,0.0,0.0,3.7656,3.7305,3.7207,3.6348,3.6016,3.5976,3.5547,3.5098,3.4629,0.0,0.0,0.0,0.0,0.0,0.0,0.0,2.7288,2.9222,3.151,3.1823,3.2228,3.3187,3.159,3.0548,3.0823,0.0,0.0,0.0,0.0,0.0,0.0,0.0,0.0,0.0,0.0,3.1938,3.3043,3.3596,0.0,0.0,0.0,0.0,0.0,0.0,0.0,0.0,0.0,0.0,0.0,0.0,0.0,0.0,0.0,0.0,0.0,0.0,0.0,0.0,0.0,0.0,0.0,0.0,0.0,0.0,0.0,3.8941,4.2198,4.2076,4.3885,4.5413,4.3671,4.2217,4.0599,0.0,3.6309,3.4814,3.3722,3.3052,3.281,3.3133,3.2963,3.3056,3.3885,3.4871,3.6531,3.9224,0.0,0.0,0.0,0.0,0.0,0.0,0.0,0.0,0.0,0.0,0.0,0.0,5.0696,4.9961,4.8381,4.517,4.3532,4.3456,4.1546,4.0312,3.9883,3.9414,3.8984,3.8574,3.8574,3.8574,0.0,0.0,0.0,0.0,3.7656,3.7305,3.7207,3.6348,3.6016,3.5976,3.5547,3.5098,3.4629,0.0,0.0,0.0,0.0,0.0,0.0,0.0,2.6033,2.7314,2.9222,2.9823,3.0529,3.1602,3.1047,3.0636,3.0765,0.0,0.0,0.0,0.0,0.0,0.0,0.0,0.0,0.0,0.0,3.1938,3.3111,3.3621,3.3796,3.3646,3.3646,0.0,0.0,0.0,0.0,0.0,0.0,0.0,0.0,0.0,0.0,0.0,0.0,0.0,0.0,0.0,0.0,0.0,0.0,0.0,0.0,0.0,0.0,0.0,3.2964,0.0,0.0,4.0046,4.1673,4.2887,4.0977,4.0158,3.9201,3.648,3.5466,3.4736,3.3514,3.3233,3.3132,3.2714,3.3012,3.3635,3.4414,3.516,0.0,0.0,0.0,0.0,0.0,0.0,0.0,0.0,0.0,0.0,0.0,0.0,0.0,0.0,5.0696,4.9961,4.8381,4.7338,4.5614,4.3097,4.212,4.0947,3.9414,3.8984,3.8711,3.8574,3.8574,0.0,0.0,0.0,0.0,0.0,3.7226,3.6875,3.6816,3.625,3.6016,3.5996,3.5879,3.5547,3.5117,0.0,0.0,0.0,0.0,0.0,0.0,0.0,2.5641,2.6608,2.7889,2.8569,2.9379,3.0529,3.0292,3.0232,3.0672,0.0,0.0,0.0,0.0,0.0,0.0,0.0,0.0,3.0884,3.1235,3.2139,3.3696,3.4048,3.4324,3.4525,3.4525,3.3922,3.2842,0.0,0.0,0.0,0.0,0.0,0.0,0.0,0.0,0.0,0.0,0.0,0.0,0.0,0.0,0.0,0.0,0.0,0.0,0.0,0.0,0.0,0.0,3.4022,3.6611,0.0,3.9342,4.0297,3.891,3.8389,3.7667,3.5558,3.4881,3.435,3.3319,3.3214,3.3121,3.2493,3.315,3.3896,3.4269,3.5065,0.0,0.0,0.0,0.0,0.0,0.0,0.0,0.0,0.0,0.0,0.0,0.0,0.0,0.0,5.0696,5.0246,4.9221,4.8621,4.7113,4.4629,4.3005,4.1518,4.0065,3.9062,3.8574,3.8574,3.8398,0.0,0.0,0.0,0.0,0.0,3.6953,3.668,3.6621,3.6191,3.6016,3.6016,3.6016,3.5762,3.5332,0.0,0.0,0.0,0.0,0.0,0.0,0.0,0.0,0.0,2.7307,2.7941,2.8726,2.9787,2.9382,2.943,0.0,0.0,0.0,0.0,0.0,0.0,0.0,0.0,0.0,3.1361,3.1436,3.2516,3.468,3.4731,3.5006,3.5508,3.5508,3.4906,3.3872,3.337,0.0,0.0,0.0,0.0,0.0,0.0,0.0,0.0,0.0,0.0,0.0,0.0,0.0,0.0,0.0,0.0,0.0,0.0,0.0,0.0,0.0,0.0,0.0,0.0,3.681,0.0,0.0,3.6743,3.5984,3.5155,3.442,0.0,3.3194,3.3119,3.3039,3.2679,3.3428,3.4075,3.3944,0.0,0.0,0.0,0.0,0.0,0.0,0.0,0.0,0.0,0.0,0.0,0.0,0.0,0.0,0.0,5.0648,5.0624,5.06,4.9176,4.8059,4.7434,4.4039,4.2043,4.1441,3.9552,3.8574,3.8555,3.8125,0.0,0.0,0.0,0.0,0.0,3.6797,3.6621,3.6582,3.6172,3.6016,3.6016,3.6016,3.5781,3.5371,0.0,0.0,0.0,0.0,0.0,0.0,0.0,0.0,0.0,0.0,2.7072,2.7803,2.809,2.8795,2.9343,0.0,0.0,0.0,0.0,0.0,0.0,0.0,0.0,0.0,3.1361,3.1813,3.2918,3.468,3.5107,3.5382,3.5508,3.5508,3.4906,3.3897,3.3771,3.3395,0.0,0.0,0.0,0.0,0.0,0.0,0.0,0.0,0.0,0.0,0.0,3.1738,0.0,0.0,0.0,0.0,0.0,0.0,0.0,0.0,3.121,3.121,3.2265,0.0,3.4248,3.4159,3.4304,3.4324,0.0,3.3727,3.3746,3.3194,3.342,3.3884,3.4438,3.4764,3.5367,0.0,0.0,0.0,0.0,0.0,0.0,0.0,0.0,0.0,0.0,0.0,0.0,0.0,0.0,0.0,0.0,5.007,4.9878,4.9469,4.9099,4.8309,4.7024,4.4666,4.2621,4.0965,3.9393,3.8574,3.8555,3.8125,0.0,0.0,0.0,0.0,3.6777,3.6348,3.6172,3.6152,3.6055,3.6016,3.6016,3.6016,3.5957,3.5801,0.0,0.0,0.0,0.0,0.0,0.0,0.0,0.0,0.0,0.0,0.0,0.0,0.0,0.0,0.0,0.0,0.0,0.0,0.0,0.0,0.0,0.0,0.0,3.0306,3.1361,3.1938,3.3043,3.468,3.5232,3.5633,3.5906,3.5906,3.5328,3.4248,3.3746,3.3345,0.0,0.0,0.0,0.0,0.0,0.0,0.0,0.0,0.0,0.0,3.0658,3.1009,0.0,3.1411,3.1763,3.2164,0.0,0.0,0.0,0.0,3.0658,3.0357,3.0884,3.2215,3.3445,3.3445,3.3872,3.4198,3.3897,3.3671,3.3445,3.3187,0.0,0.0,0.0,0.0,0.0,0.0,0.0,0.0,0.0,0.0,0.0,0.0,0.0,0.0,0.0,0.0,0.0,0.0,0.0,0.0,0.0,4.9878,4.9614,4.9084,4.8844,4.8359,4.7581,4.5733,4.3863,4.1771,4.032,3.9281,3.8555,3.8125,3.7812,0.0,0.0,0.0,3.6348,3.6113,3.6016,3.6016,3.6016,3.6016,3.6016,3.6132,3.6132,3.6025,0.0,0.0,0.0,0.0,0.0,0.0,0.0,0.0,0.0,0.0,0.0,0.0,0.0,0.0,0.0,0.0,0.0,0.0,0.0,0.0,0.0,0.0,3.0256,3.0407,3.1486,3.2064,3.3169,3.4806,3.5357,3.5956,3.6531,3.6531,3.5855,3.4675,3.3646,3.3169,0.0,0.0,0.0,0.0,0.0,0.0,0.0,0.0,0.0,0.0,0.0,0.0,0.0,3.1035,3.1612,3.219,3.2014,0.0,0.0,0.0,0.0,0.0,3.0658,3.2416,3.3972,3.3696,3.4173,3.4675,3.45,0.0,0.0,0.0,0.0,0.0,0.0,3.4925,0.0,0.0,0.0,0.0,0.0,0.0,0.0,0.0,0.0,0.0,0.0,0.0,0.0,0.0,0.0,0.0,0.0,4.9662,4.9373,4.8844,4.8411,4.8171,4.8171,4.6676,4.498,4.2962,4.1488,4.0033,3.8555,3.8125,3.7695,0.0,0.0,0.0,3.6016,3.6016,3.6016,3.6016,3.6016,3.6016,3.6084,3.6384,3.6336,3.6228,0.0,0.0,0.0,0.0,0.0,0.0,0.0,0.0,0.0,0.0,0.0,0.0,0.0,0.0,0.0,0.0,0.0,0.0,0.0,0.0,0.0,3.1938,3.1009,3.0984,3.2064,3.2641,3.3746,3.5382,3.5959,3.6558,3.7061,3.7061,3.6232,3.4655,3.4048,3.352,3.3111,0.0,0.0,0.0,0.0,0.0,0.0,0.0,0.0,0.0,0.0,0.0,0.0,3.0156,3.1009,3.2064,3.1135,0.0,0.0,0.0,0.0,0.0,3.1562,3.3244,3.4248,3.2817,3.3596,3.4474,3.3545,3.3194,0.0,0.0,0.0,0.0,0.0,3.6403,0.0,0.0,0.0,0.0,0.0,0.0,0.0,0.0,0.0,0.0,0.0,0.0,0.0,0.0,0.0,0.0,0.0,4.8772,4.8291,4.7762,4.7666,4.7617,4.7617,4.6162,4.4572,4.2962,4.1488,4.0033,3.8555,3.8125,3.7695,0.0,0.0,3.6426,3.6016,3.6016,3.6016,3.6016,3.6016,3.6132,3.6451,3.6451,3.6654,3.6944,0.0,0.0,0.0,0.0,0.0,0.0,0.0,0.0,0.0,0.0,0.0,0.0,0.0,0.0,0.0,0.0,0.0,0.0,0.0,0.0,0.0,3.219,3.1738,3.1863,3.2667,3.3244,3.4324,3.5981,3.6558,3.7111,3.7613,3.6709,3.573,3.4675,3.3847,3.3319,3.3111,3.3111,0.0,0.0,0.0,0.0,0.0,0.0,0.0,0.0,0.0,0.0,0.0,0.0,3.0909,3.1637,3.0859,0.0,0.0,0.0,0.0,0.0,3.0708,3.234,3.3646,3.2867,3.4851,3.6835,3.638,3.573,3.5303,0.0,0.0,0.0,0.0,0.0,0.0,0.0,0.0,0.0,0.0,0.0,0.0,0.0,0.0,0.0,0.0,0.0,0.0,0.0,0.0,0.0,0.0,0.0,4.805,4.7521,4.7497,4.7497,4.7497,4.6046,4.4504,4.3032,4.2333,4.08,3.8555,3.8125,3.7695,3.7266,0.0,3.6426,3.6016,3.6016,3.6016,3.6016,3.6016,3.62,3.6519,3.6722,3.7213,3.7636,0.0,0.0,0.0,0.0,0.0,0.0,0.0,0.0,0.0,0.0,0.0,0.0,0.0,0.0,0.0,0.0,0.0,0.0,0.0,0.0,3.1909,3.2231,3.234,3.2692,3.3244,3.3796,3.4901,3.6606,3.7111,3.7588,3.7965,3.6411,3.5332,3.4675,3.3696,3.3194,3.3111,3.3111,3.3111,0.0,0.0,0.0,0.0,0.0,0.0,0.0,0.0,0.0,0.0,0.0,0.0,0.0,0.0,0.0,0.0,3.0407,3.008,3.0055,3.0457,3.1788,3.3212,3.3545,3.5805,3.799,3.8391,3.7713,3.7061,3.7337,0.0,0.0,0.0,0.0,0.0,0.0,0.0,0.0,0.0,0.0,0.0,0.0,0.0,0.0,0.0,0.0,0.0,0.0,0.0,0.0,0.0,0.0,4.7906,4.7521,4.7497,4.7497,4.7497,4.6382,4.5051,4.3517,4.2823,4.1297,3.9116,3.8367,3.7793,3.7285,3.6953,3.6523,3.6016,3.6016,3.6084,3.6152,3.6152,3.6403,3.6789,3.7079,3.7636,3.8191,0.0,0.0,0.0,0.0,0.0,0.0,0.0,0.0,0.0,0.0,0.0,0.0,0.0,0.0,0.0,0.0,0.0,0.0,0.0,0.0,3.2128,3.2465,3.2827,3.3269,3.3822,3.4374,3.5479,3.7136,3.7688,3.7965,3.799,3.686,3.5755,3.4655,3.4098,3.3545,3.3111,3.3111,3.3111,3.3111,0.0,0.0,0.0,0.0,0.0,0.0,0.0,0.0,0.0,0.0,0.0,0.0,0.0,0.0,3.1361,3.1311,3.0934,3.0884,3.2416,3.3011,3.3445,3.4931,3.5157,3.5429,3.696,3.6883,3.6757,3.7739,0.0,0.0,0.0,0.0,0.0,0.0,0.0,0.0,0.0,0.0,0.0,0.0,0.0,0.0,0.0,0.0,0.0,0.0,0.0,0.0,0.0,0.0,0.0,4.7497,4.7497,4.7497,4.7497,4.7364,4.6583,4.5142,4.2263,4.0871,4.0586,3.9169,3.8066,3.7305,3.7266,3.6777,3.6016,3.6016,3.62,3.6451,3.6451,3.6924,3.7549,3.7549,3.7837,3.8191,0.0,0.0,0.0,0.0,0.0,0.0,0.0,0.0,0.0,0.0,0.0,0.0,0.0,0.0,0.0,0.0,0.0,0.0,0.0,3.1214,3.1731,3.2315,3.2483,3.2968,3.3872,3.4731,3.6031,3.7688,3.8266,3.8191,3.7462,3.6383,3.5408,3.4675,3.3796,3.3269,3.3111,3.3111,3.3111,3.3111,3.3111,0.0,0.0,0.0,0.0,0.0,0.0,0.0,0.0,0.0,3.0557,3.1009,3.0557,3.1085,3.1763,3.111,3.0758,3.0758,3.1386,3.2541,3.3746,3.4374,3.5403,3.6784,3.8793,3.9622,4.0327,4.1379,4.1518,0.0,0.0,0.0,0.0,0.0,0.0,0.0,0.0,0.0,0.0,0.0,0.0,0.0,0.0,0.0,0.0,0.0,0.0,0.0,0.0,0.0,0.0,4.7497,4.7497,4.7497,4.7497,4.6607,4.6315,4.665,4.4573,4.2613,4.0779,3.9677,3.8497,3.7266,3.6738,3.6328,3.6016,3.6016,3.62,3.6519,3.6991,3.7348,3.7616,3.7904,3.8037,3.8304,0.0,0.0,0.0,0.0,0.0,0.0,0.0,0.0,0.0,0.0,0.0,0.0,0.0,0.0,0.0,0.0,0.0,0.0,3.0211,3.0663,3.121,3.1868,3.2081,3.2667,3.3621,3.468,3.6006,3.7487,3.8065,3.7913,3.691,3.5805,3.5031,3.4675,3.3571,3.3169,3.3319,3.3144,3.3111,3.3111,3.3111,3.2491,0.0,0.0,0.0,0.0,0.0,0.0,0.0,0.0,3.0432,3.0859,3.0633,3.121,3.1838,3.1286,3.126,3.1361,3.116,3.2365,3.3771,3.4299,0.0,0.0,4.045,4.148,4.2308,4.3765,4.3594,4.3141,4.3086,0.0,0.0,0.0,0.0,0.0,0.0,0.0,0.0,0.0,0.0,0.0,0.0,0.0,0.0,0.0,0.0,0.0,0.0,0.0,0.0,0.0,4.7497,4.7497,4.7497,4.6516,4.6248,4.6808,4.559,4.3798,4.1467,4.0292,3.8856,3.7266,3.6543,3.6152,3.6016,3.6084,3.6403,3.6924,3.7415,3.7683,3.7837,3.7971,3.8104,3.837,0.0,0.0,0.0,0.0,0.0,0.0,0.0,0.0,0.0,0.0,0.0,0.0,0.0,0.0,0.0,0.0,0.0,0.0,2.9996,3.0211,3.0586,3.1163,3.1817,3.2466,3.3068,3.4148,3.5253,3.6405,3.6958,3.6885,3.6355,3.5228,3.468,3.4675,3.3571,3.3395,3.3847,3.3319,3.3111,3.3111,3.3111,3.2742,0.0,0.0,0.0,0.0,0.0,0.0,0.0,0.0,3.0256,3.008,3.1687,3.1838,3.1512,3.2039,3.2616,3.2943,3.2365,3.2641,3.3495,3.5082,0.0,0.0,4.1458,4.1756,4.1927,4.4134,4.4644,4.4819,4.5397,0.0,0.0,0.0,0.0,0.0,0.0,0.0,0.0,0.0,0.0,0.0,0.0,0.0,0.0,0.0,0.0,0.0,0.0,0.0,0.0,0.0,4.7497,4.7497,4.7473,4.7473,4.6717,4.5323,4.4817,4.4007,4.294,4.1025,3.914,3.7266,3.6855,3.6426,3.6016,3.6403,3.6924,3.7616,3.7616,3.7837,3.8171,3.775,3.7904,3.8437,0.0,0.0,0.0,0.0,0.0,0.0,0.0,0.0,0.0,0.0,0.0,0.0,0.0,0.0,0.0,0.0,0.0,0.0,2.8698,2.9497,3.0047,3.0342,3.1301,3.2038,3.2466,3.3571,3.4675,3.578,3.6332,3.6132,3.5203,3.4876,3.4525,3.4123,3.3796,3.352,3.3319,3.3187,3.3111,3.3111,3.3111,3.2742,0.0,0.0,0.0,0.0,0.0,0.0,0.0,0.0,0.0,0.0,3.0482,3.1461,3.239,3.1386,3.2039,3.291,3.1888,3.3194,0.0,3.5382,0.0,0.0,0.0,4.2635,0.0,0.0,4.5689,4.559,4.6163,0.0,0.0,0.0,0.0,0.0,0.0,0.0,0.0,0.0,0.0,0.0,0.0,0.0,0.0,0.0,0.0,0.0,0.0,0.0,0.0,0.0,4.6944,4.6776,4.6391,4.6391,4.6364,4.6262,4.5079,4.3464,4.1397,3.9958,3.8552,3.7266,3.6523,3.6133,3.6016,3.6674,3.7079,3.728,3.7837,3.8104,3.8304,3.9123,3.9495,3.9953,0.0,0.0,0.0,0.0,0.0,0.0,0.0,0.0,0.0,0.0,2.7837,2.8124,0.0,0.0,0.0,0.0,0.0,0.0,0.0,2.9155,2.9659,3.0088,3.1128,3.1969,3.2541,3.3445,3.4123,3.4575,3.5328,3.5253,3.4399,3.4625,3.455,3.4223,3.3997,3.3721,3.337,3.2918,3.2742,3.2742,3.2742,3.2516,3.2164,0.0,0.0,0.0,0.0,0.0,0.0,0.0,0.0,0.0,2.9905,3.0708,3.1662,3.1085,3.1938,3.3068,3.3043,3.4575,0.0,3.7263,3.9395,4.1652,4.3162,0.0,0.0,0.0,0.0,4.6199,4.6972,0.0,0.0,0.0,0.0,0.0,0.0,0.0,0.0,0.0,0.0,0.0,0.0,0.0,0.0,0.0,0.0,0.0,0.0,0.0,0.0,0.0,4.6391,4.6247,4.5934,4.5934,4.5756,4.5521,4.3883,4.2073,4.0241,3.9502,3.8369,3.7012,3.6309,3.6084,3.6268,3.6876,3.7146,3.7348,3.7971,3.8191,3.837,3.9692,4.0192,4.0581,0.0,0.0,0.0,0.0,0.0,0.0,0.0,0.0,0.0,0.0,2.749,2.7699,0.0,0.0,0.0,0.0,0.0,0.0,0.0,0.0,2.9398,3.0241,3.1218,3.2155,3.3086,3.3571,3.3571,3.3111,3.4123,3.4374,3.3847,3.4449,3.4675,3.455,3.4148,3.3897,3.3671,3.2641,3.219,3.2139,3.2139,3.2139,3.2089,3.1537,0.0,0.0,0.0,0.0,0.0,0.0,0.0,0.0,2.9804,2.9829,3.0055,3.0984,3.2089,3.3345,3.4856,3.6207,0.0,3.9873,4.1,0.0,4.497,4.5949,4.6476,4.7029,0.0,0.0,0.0,0.0,0.0,0.0,0.0,0.0,0.0,0.0,0.0,0.0,0.0,0.0,0.0,0.0,0.0,0.0,0.0,0.0,0.0,0.0,0.0,4.5862,4.5862,4.5838,4.579,4.579,4.506,0.0,4.1992,4.0531,3.9344,3.9213,3.83,3.6789,3.626,3.6268,3.6702,3.7011,3.7348,3.7616,3.8037,3.8191,3.837,3.9692,4.0257,4.0775,0.0,0.0,0.0,0.0,0.0,0.0,0.0,0.0,0.0,0.0,0.0,0.0,0.0,0.0,0.0,0.0,0.0,0.0,0.0,0.0,2.958,3.0279,3.1478,3.2407,3.3111,3.3194,3.3237,3.3111,3.3746,3.3796,3.3269,3.4248,3.4248,3.347,3.4198,3.3822,3.2566,3.2315,3.1964,3.1562,3.1562,3.1562,3.1512,3.0984,3.0708,0.0,0.0,0.0,0.0,0.0,0.0,0.0,2.9804,3.008,3.0407,3.0206,3.121,3.2566,3.3395,3.5027,0.0,0.0,4.1907,4.4292,4.5799,4.6225,4.6476,4.7029,0.0,0.0,0.0,0.0,0.0,0.0,0.0,0.0,0.0,0.0,0.0,0.0,0.0,0.0,0.0,0.0,0.0,0.0,0.0,0.0,0.0,0.0,0.0,4.5269,4.5245,4.5053,4.4621,4.4621,4.4183,0.0,4.275,4.1287,3.8984,3.7433,3.7164,3.7738,3.6829,3.7038,3.8088,3.7662,3.7549,3.7616,3.8037,3.8191,3.837,3.9692,4.0882,4.2034,0.0,0.0,0.0,0.0,0.0,0.0,0.0,0.0,0.0,0.0,0.0,0.0,0.0,0.0,0.0,0.0,0.0,0.0,0.0,2.9153,2.985,3.1072,3.2152,3.2743,3.2667,3.2667,3.2667,3.2667,3.2943,3.3093,3.3093,3.4198,3.4424,3.3872,3.4198,3.3696,3.2566,3.1788,3.1286,3.1009,3.1009,3.1009,3.0959,3.0432,3.0055,2.974,2.9478,0.0,0.0,0.0,0.0,0.0,0.0,0.0,2.9478,2.9704,3.0583,3.1813,3.342,0.0,0.0,4.0576,0.0,4.4518,4.5673,4.5924,0.0,0.0,0.0,0.0,0.0,0.0,0.0,0.0,0.0,0.0,0.0,0.0,0.0,0.0,0.0,0.0,0.0,0.0,0.0,0.0,0.0,0.0,0.0,4.5549,4.5372,4.4967,4.4943,4.4884,4.4779,4.4594,4.4343,4.3915,4.2339,4.0235,3.7719,3.6522,3.6876,3.8221,3.6856,3.6789,3.7554,3.7394,3.7482,3.7616,3.8037,3.8191,3.8437,4.0452,4.1588,4.2454,0.0,0.0,0.0,0.0,0.0,0.0,0.0,0.0,0.0,0.0,0.0,0.0,0.0,0.0,0.0,0.0,0.0,0.0,0.0,2.9369,3.0191,3.1749,3.2657,3.2752,3.2089,3.1989,3.1989,3.2064,3.1989,3.2416,3.3395,3.4299,3.468,3.4655,3.4248,3.3621,3.2842,3.1361,3.0583,3.0331,3.0331,3.0281,3.0131,2.9679,2.9202,2.8737,2.8737,2.8737,2.8838,2.9453,0.0,0.0,0.0,0.0,2.8298,2.9227,2.9905,3.0859,3.3345,0.0,3.8693,4.2108,4.3313,0.0,0.0,0.0,0.0,0.0,0.0,0.0,0.0,0.0,0.0,0.0,0.0,0.0,0.0,0.0,0.0,0.0,0.0,0.0,0.0,0.0,0.0,0.0,0.0,0.0,4.5208,4.5059,4.4991,4.4926,4.484,4.4963,4.5331,4.5025,4.4755,4.4508,4.1674,3.9343,3.7354,3.6789,3.7307,3.8618,3.726,3.6789,3.7038,3.7213,3.7415,3.775,3.8037,3.8191,3.8503,4.0946,4.2011,4.254,0.0,0.0,0.0,0.0,0.0,0.0,0.0,0.0,0.0,0.0,2.7889,2.7811,2.8229,2.7889,0.0,0.0,0.0,0.0,2.8499,0.0,0.0,3.1015,3.1635,3.1792,3.1486,3.106,3.106,3.1486,3.106,3.2089,3.45,3.4605,3.468,3.468,3.465,3.3771,3.229,3.1587,3.0457,2.9113,2.9113,2.8875,2.8423,2.8348,2.8273,2.8222,2.8222,2.8222,2.8298,2.8813,2.9013,0.0,0.0,0.0,0.0,2.8273,2.8725,2.9414,0.0,0.0,3.8216,0.0,0.0,0.0,0.0,0.0,0.0,0.0,0.0,0.0,0.0,0.0,0.0,0.0,0.0,0.0,0.0,0.0,0.0,0.0,0.0,0.0,0.0,0.0,0.0,0.0,0.0,0.0,4.5331,4.4999,4.4975,4.5208,4.4963,4.4963,4.5331,4.527,4.4607,4.338,4.182,4.1075,4.0946,3.9366,3.8861,3.9101,3.9146,3.9233,3.9188,3.837,3.8104,3.8125,3.8191,3.8191,3.837,3.9888,4.1203,4.2391,0.0,0.0,0.0,0.0,0.0,0.0,0.0,0.0,0.0,0.0,0.0,2.7994,2.7915,2.7646,0.0,0.0,0.0,0.0,2.8368,2.9512,0.0,0.0,3.1055,3.1088,3.068,3.0335,3.0256,3.0507,3.0256,3.1712,3.4726,3.4981,3.5633,3.6508,3.5278,3.4148,3.3068,3.1587,3.0181,2.8888,2.8888,2.9327,2.9779,2.8222,2.8423,2.9352,2.8097,2.7645,2.777,2.8612,2.8888,2.8888,2.8888,0.0,0.0,0.0,0.0,0.0,3.2114,0.0,0.0,0.0,0.0,0.0,0.0,0.0,0.0,0.0,0.0,0.0,0.0,0.0,0.0,0.0,0.0,0.0,0.0,0.0,0.0,0.0,0.0,0.0,0.0,0.0,0.0,0.0,0.0,4.5883,4.5331,4.5147,4.5208,4.5574,4.5453,4.5514,4.5878,4.5696,4.4792,4.3169,4.182,4.0988,4.0559,3.9779,3.9453,3.9408,3.8573,3.8329,3.8461,3.8017,3.7971,3.815,3.7902,3.7964,3.8395,4.0272,4.1466,4.2517,0.0,0.0,0.0,0.0,0.0,0.0,0.0,0.0,0.0,0.0,0.0,0.0,2.7785,0.0,0.0,0.0,0.0,0.0,2.8265,0.0,0.0,0.0,0.0,3.0291,2.9808,2.9504,2.9352,2.9352,2.9352,3.121,3.4726,3.5107,3.6486,3.8542,3.6483,3.5002,3.3972,3.2064,3.0583,2.9553,2.9553,3.0206,3.1009,2.9377,2.9804,3.0959,2.8875,2.8122,2.8222,2.8712,2.8787,2.8687,0.0,0.0,0.0,0.0,0.0,0.0,0.0,0.0,0.0,0.0,0.0,0.0,0.0,0.0,0.0,0.0,0.0,0.0,0.0,0.0,0.0,0.0,0.0,0.0,0.0,0.0,0.0,0.0,0.0,0.0,0.0,0.0,0.0,0.0,0.0,4.5817,4.5574,4.5453,4.5574,4.5939,4.5817,4.5939,4.6301,4.6059,4.5098,4.3482,4.2454,4.1245,3.9866,4.017,3.9997,3.9299,3.8329,3.7816,3.775,3.775,3.7904,3.8217,3.8172,3.819,3.8528,4.1221,4.2193,4.258,0.0,0.0,0.0,0.0,0.0,0.0,0.0,0.0,0.0,0.0,0.0,0.0,2.8281,2.7863,2.749,2.749,0.0,0.0,0.0,0.0,0.0,0.0,0.0,0.0,2.8976,2.8448,2.8197,2.8197,2.8197,3.0432,3.468,3.4705,3.6784,4.03,3.8592,3.6659,3.4555,3.3445,3.229,3.126,3.126,3.1009,3.0809,3.224,3.2842,3.2742,3.1035,3.0432,3.0281,0.0,0.0,0.0,2.8147,2.777,2.7253,0.0,0.0,0.0,0.0,0.0,0.0,0.0,0.0,0.0,0.0,0.0,0.0,0.0,0.0,0.0,0.0,0.0,0.0,0.0,0.0,0.0,0.0,0.0,0.0,0.0,0.0,0.0,0.0,0.0,0.0,0.0,0.0,4.624,4.624,4.5939,4.5939,4.624,4.5939,4.5939,4.6301,4.6301,4.5611,4.4251,4.4189,4.273,4.0192,4.1524,4.0688,3.8304,3.9517,3.932,3.8191,3.8191,3.8191,3.8304,3.954,3.9299,3.8681,4.2706,4.3333,4.258,0.0,0.0,0.0,0.0,0.0,0.0,0.0,0.0,0.0,0.0,0.0,0.0,0.0,2.762,2.749,2.749,2.749,0.0,0.0,0.0,0.0,0.0,0.0,0.0,2.9088,2.8447,2.8097,2.8097,2.8097,2.9829,3.3119,3.3847,3.5303,3.7263,3.7086,3.6533,3.5655,3.347,3.229,3.1913,3.1913,3.2667,3.3677,3.3244,3.3972,3.4951,3.2918,0.0,0.0,0.0,0.0,2.9051,2.8323,2.7971,2.7645,2.6751,2.7002,0.0,0.0,0.0,0.0,0.0,0.0,0.0,0.0,0.0,0.0,0.0,0.0,0.0,0.0,0.0,0.0,0.0,0.0,0.0,0.0,0.0,0.0,0.0,0.0,0.0,0.0,0.0,0.0,0.0,0.0,0.0,4.6301,4.618,4.618,4.6301,4.618,4.618,4.6301,4.6301,4.6059,4.5611,4.4706,4.3294,4.1524,4.1947,4.0775,3.8237,3.9648,3.9451,3.8191,3.8191,3.8005,3.7868,3.9239,3.9476,3.9433,4.2638,4.3716,4.3793,0.0,0.0,0.0,0.0,0.0,0.0,0.0,0.0,2.8146,2.8146,0.0,0.0,0.0,0.0,2.8124,2.8124,2.7941,2.7777,2.7709,2.7494,0.0,0.0,0.0,0.0,2.9088,2.8611,2.8298,2.8097,2.8298,2.9603,3.1964,3.2893,3.4123,3.5483,3.5353,3.5705,3.6282,3.4399,3.3495,3.3345,3.352,3.45,3.5805,3.5629,3.6383,3.7262,3.5403,0.0,0.0,0.0,0.0,0.0,2.9302,2.8298,2.7394,2.67,2.7153,2.7996,2.875,0.0,0.0,0.0,0.0,0.0,0.0,0.0,0.0,0.0,0.0,0.0,0.0,0.0,0.0,0.0,0.0,0.0,0.0,0.0,0.0,0.0,0.0,0.0,0.0,0.0,0.0,0.0,0.0,0.0,4.6301,4.6301,4.6301,4.6301,4.6301,4.6301,4.6301,4.6301,4.6301,4.6301,4.4951,4.3793,4.2918,4.2414,4.1203,3.9561,4.0018,3.9451,3.8191,3.8191,3.8249,3.8546,3.9904,4.0393,4.071,4.3501,4.4415,4.4497,0.0,0.0,0.0,0.0,0.0,0.0,0.0,0.0,2.9435,2.9435,0.0,0.0,0.0,0.0,0.0,2.9301,2.8813,2.8369,2.8135,2.7754,0.0,0.0,0.0,0.0,2.8938,2.8913,2.8637,2.8147,2.8637,2.9754,3.1361,3.1913,3.3345,3.5332,3.3796,3.4318,3.6304,3.6279,3.5956,3.5558,3.6107,3.6405,3.6807,3.9471,4.0174,3.9597,3.8492,3.7739,0.0,3.5378,0.0,0.0,3.0984,2.8725,2.6549,2.6549,2.6927,2.7318,0.0,0.0,0.0,0.0,0.0,0.0,0.0,0.0,0.0,0.0,0.0,0.0,0.0,0.0,0.0,0.0,0.0,0.0,0.0,0.0,0.0,0.0,0.0,0.0,0.0,0.0,0.0,0.0,0.0,4.6301,4.6301,4.6301,4.6301,4.6301,4.6301,4.6301,4.6301,4.6301,4.6301,4.6301,4.4951,4.4312,4.4251,4.2918,4.2264,4.2138,4.0882,3.9583,3.8304,3.8237,3.8991,4.03,4.1693,4.2201,4.258,4.5281,4.5464,4.4583,0.0,0.0,0.0,0.0,0.0,3.4002,3.2843,3.164,3.0813,0.0,0.0,0.0,2.9902,2.9902,2.9902,2.9902,2.9745,2.9448,2.8995,2.8707,2.8763,2.9156,2.9108,2.9416,3.0131,2.9314,2.9013,2.9327,2.9013,2.9377,3.0256,3.0809,3.1788,3.3119,3.3093,3.3463,3.3966,3.3119,3.4073,3.6081,3.5429,3.6609,0.0,0.0,0.0,0.0,0.0,3.9798,3.8793,0.0,3.5959,3.4104,0.0,2.9252,2.7645,2.7645,2.8047,2.8373,2.7996,0.0,0.0,0.0,0.0,0.0,0.0,0.0,0.0,0.0,0.0,0.0,0.0,0.0,0.0,0.0,0.0,0.0,0.0,0.0,0.0,0.0,0.0,0.0,0.0,0.0,0.0,0.0,4.6301,4.6301,4.6301,4.6301,4.6301,4.6301,4.6301,4.6301,4.6301,4.6301,4.6301,4.6301,4.5914,4.522,4.4312,4.489,4.4065,4.2264,4.2855,4.2351,4.1011,4.0084,3.9693,3.984,4.1556,4.2622,4.3378,4.4438,4.522,4.5793,0.0,0.0,0.0,0.0,0.0,3.5642,3.4843,3.3482,3.2502,0.0,0.0,0.0,3.1171,3.1627,3.1693,3.1235,3.0764,3.0309,2.9933,2.9392,2.9212,2.9386,2.9566,2.9948,3.0608,3.0181,3.0005,3.0131,2.9765,2.9679,2.9804,3.0131,3.0733,3.1562,3.1662,3.1964,3.229,3.1185,3.2641,3.573,3.6232,0.0,0.0,4.0375,4.0978,0.0,0.0,0.0,4.0275,3.9622,3.7839,0.0,0.0,3.0457,2.9302,2.8373,2.8976,2.9729,2.8725,2.9277,0.0,0.0,0.0,0.0,0.0,0.0,0.0,0.0,0.0,0.0,0.0,0.0,0.0,0.0,0.0,0.0,0.0,0.0,0.0,0.0,0.0,0.0,0.0,0.0,0.0,4.6301,4.6301,4.6301,4.6301,4.6301,4.62,4.5974,4.6175,4.62,4.5974,4.62,4.6301,4.6301,4.6301,4.5853,4.5159,4.5342,4.489,4.3879,4.3544,4.3294,4.3044,4.2224,4.1747,4.1622,4.2676,4.375,4.4743,4.5037,4.5611,4.6301,0.0,0.0,3.7434,3.7494,3.7195,3.6896,3.6836,3.5549,3.455,0.0,3.3688,3.3117,3.3247,3.4005,3.411,3.3129,3.1928,3.1121,3.0853,2.9991,2.9455,2.9313,3.0012,3.0431,3.0608,3.1135,3.1135,3.0608,3.0608,3.0331,2.9804,2.9804,3.0055,3.0507,3.0005,3.0331,3.116,3.0457,3.1888,3.4851,3.7387,3.8668,0.0,0.0,4.1831,4.158,4.2082,4.1932,4.1451,4.1326,3.9195,0.0,0.0,3.2265,3.1361,2.9277,3.008,3.1336,2.9804,3.0181,3.116,3.1938,0.0,0.0,3.3646,3.3545,0.0,0.0,0.0,0.0,0.0,0.0,0.0,0.0,0.0,0.0,0.0,0.0,0.0,0.0,0.0,0.0,0.0,4.5899,4.6225,4.6225,4.6276,4.6276,4.6225,4.6225,4.5974,4.5422,4.5874,4.5874,4.5397,4.5874,4.615,4.6225,4.6225,4.625,4.624,4.5074,4.5159,4.618,4.3755,4.3357,4.4497,4.4497,4.4436,4.4312,4.4312,4.5159,4.6301,4.612,4.618,4.6301,0.0,3.7315,3.7584,3.8093,3.899,3.9469,3.8931,3.8062,3.7394,3.7102,3.6141,3.5809,3.6776,3.5835,3.5148,3.521,3.3716,3.2495,3.1792,3.1164,3.0573,2.9948,3.0482,3.0719,3.0608,3.1135,3.1135,3.0608,3.0608,3.0331,2.9804,2.9804,2.9854,2.9955,2.9854,2.9905,3.0206,3.1763,0.0,3.4148,3.5127,0.0,4.03,4.1178,4.1982,4.266,4.2785,4.276,4.2534,4.1576,3.9697,3.7437,0.0,0.0,3.3822,3.2491,3.2717,3.3244,3.2466,3.2742,3.2993,3.1838,0.0,0.0,3.1662,3.1562,0.0,0.0,0.0,0.0,0.0,0.0,0.0,0.0,0.0,0.0,0.0,0.0,0.0,0.0,0.0,0.0,0.0,4.5321,4.5648,4.5648,4.6075,4.6125,4.5673,4.5648,4.5397,4.4819,4.4895,4.4895,4.4794,4.4895,4.5196,4.5648,4.5648,4.5874,4.6301,4.6059,4.6059,4.624,4.5732,4.5671,4.5914,4.5914,4.5281,4.4312,4.4312,4.5159,4.618,4.5098,4.5342,4.6301,3.7704,3.8182,3.8631,3.929,3.9948,4.0397,4.0397,3.9702,3.9217,3.9127,3.8497,3.793,3.7742,3.7033,3.6328,3.5672,3.4264,3.3168,3.248,3.1675,3.1008,3.0494,3.0773,3.0933,3.1009,3.1512,3.1537,3.1009,3.1009,3.0583,2.9804,2.9804,3.0231,3.0984,3.0432,3.0658,3.1461,3.2014,3.2893,3.4098,3.6307,0.0,4.1,4.2158,4.2911,4.3388,4.3388,4.3212,4.276,4.1404,4.0174,0.0,0.0,3.6784,3.6408,0.0,3.4675,3.5253,3.3847,3.3897,3.4123,3.3269,0.0,0.0,0.0,0.0,0.0,0.0,0.0,0.0,0.0,0.0,0.0,0.0,0.0,0.0,0.0,0.0,0.0,0.0,0.0,0.0,0.0,4.4568,4.5045,4.5045,4.5321,4.5347,4.507,4.5045,4.4794,4.4242,4.4769,4.4794,4.4217,4.4769,4.5045,4.507,4.5347,4.5623,4.5899,4.6175,4.6301,4.6301,4.6301,4.6301,4.6301,4.6301,4.5914,4.5281,4.5281,4.5732,4.624,4.555,4.5732,4.6301,3.8272,3.8841,3.9439,4.0098,4.0427,4.0756,4.1332,4.0908,4.0567,4.0729,4.067,4.0083,3.8523,3.8512,3.8111,3.6913,3.5353,3.4211,3.376,3.2475,3.1592,3.1149,3.1189,3.1261,3.1386,3.1938,3.1838,3.1085,3.1185,3.0733,2.9804,2.9804,3.0557,3.1863,3.121,3.1712,3.3043,0.0,0.0,3.4977,0.0,4.0099,4.0849,4.2785,4.3489,4.3514,4.374,4.3438,4.276,4.1329,4.0752,4.0325,3.8291,3.8291,0.0,0.0,0.0,0.0,0.0,0.0,0.0,0.0,0.0,3.3947,0.0,0.0,0.0,3.453,0.0,0.0,0.0,0.0,0.0,0.0,0.0,0.0,0.0,0.0,0.0,0.0,0.0,0.0,0.0,4.3313,4.4016,4.4443,4.4267,4.4242,4.4443,4.4468,4.4217,4.3664,4.4518,4.4568,4.3639,4.4543,4.4819,4.4468,4.4945,4.5271,4.5497,4.5949,4.62,4.6301,4.6301,4.6301,4.6301,4.6301,4.6301,4.6301,4.6301,4.6301,4.6301,4.6301,4.6301,4.6301,3.8272,3.8452,3.8721,3.9409,4.0487,4.1294,4.1422,4.1825,4.2016,4.1714,4.2358,4.2536,4.1672,4.1157,4.113,4.1734,3.8891,3.6969,3.6729,3.492,3.3326,3.2106,3.2205,3.2044,3.1411,3.1938,3.1486,2.998,3.0457,3.0382,2.9804,2.9804,3.0156,3.0834,3.1662,3.2416,3.3144,0.0,3.5579,0.0,3.912,3.917,0.0,4.1383,4.2389,4.2514,4.3438,4.3438,4.2886,0.0,4.1656,4.0974,0.0,3.9496,3.9346,0.0,0.0,0.0,0.0,0.0,0.0,0.0,3.6411,0.0,0.0,0.0,3.3495,3.2742,0.0,0.0,0.0,0.0,0.0,0.0,0.0,0.0,0.0,0.0,0.0,0.0,0.0,0.0,0.0,0.0,4.1806,4.374,4.2986,4.2861,4.384,4.389,4.3639,4.3087,4.3187,4.3212,4.3062,4.3187,4.3463,4.389,4.3966,4.4518,4.5497,4.5547,4.5849,4.6301,4.6301,4.6301,4.6301,4.6301,4.6301,4.6301,4.6301,4.6301,4.6301,4.6301,4.6301,4.6301,3.8332,3.8721,3.92,3.9858,4.0457,4.1017,4.165,4.3612,4.4608,4.3556,4.432,4.4519,4.3453,4.2417,4.198,4.2351,4.0457,3.8793,3.7713,3.6276,3.5067,3.4129,3.333,3.2852,3.2842,3.2416,3.1888,3.1185,3.111,3.0783,3.0256,3.0256,3.1085,3.2541,3.2993,3.4223,3.5931,0.0,3.6207,0.0,0.0,0.0,0.0,4.2534,4.389,4.3614,4.374,4.3438,4.2836,0.0,4.153,0.0,0.0,0.0,0.0,0.0,0.0,0.0,0.0,0.0,0.0,0.0,0.0,0.0,3.4173,0.0,3.347,0.0,0.0,0.0,0.0,0.0,0.0,0.0,0.0,0.0,0.0,0.0,0.0,0.0,0.0,0.0,0.0,0.0,0.0,0.0,0.0,4.1354,4.2816,4.2836,4.2886,4.2986,4.3288,4.3288,4.2986,4.3288,4.3413,4.3338,4.3966,4.4518,4.502,4.5673,4.61,4.6301,4.6301,4.6301,4.6301,4.6301,4.6301,4.6301,4.6301,4.6301,4.6301,4.6301,4.6301,4.6301,3.8322,3.8925,3.9523,3.9964,4.024,4.089,4.2337,4.4967,4.6339,4.5038,4.5863,4.6101,4.4903,4.3904,4.3545,4.3998,4.2685,4.1229,0.0,3.8291,3.7111,3.621,3.4776,3.4022,3.4123,3.3169,3.2441,3.1989,3.1587,3.121,3.0834,3.0834,3.1763,3.347,3.4073,3.5629,3.7764,0.0,3.7662,3.8341,3.9496,4.0099,4.0626,4.3815,4.4844,4.4568,4.4166,4.3589,4.2836,4.1882,4.1555,0.0,4.1326,0.0,0.0,0.0,0.0,0.0,3.8768,0.0,0.0,0.0,0.0,0.0,0.0,0.0,0.0,0.0,0.0,0.0,0.0,0.0,0.0,0.0,0.0,0.0,0.0,0.0,0.0,0.0,0.0,0.0,0.0,0.0,0.0,0.0,0.0,0.0,4.1831,4.2137,4.2389,4.2791,4.3288,4.3388,4.2986,4.3363,4.3363,4.2986,4.379,4.4342,4.4644,4.5472,4.6024,4.6301,4.6301,4.6301,4.6301,4.6301,4.6301,4.6301,4.6301,4.6301,4.6301,4.6301,4.6301,4.6301,3.8175,3.8817,3.9367,3.9156,3.9868,4.1189,4.3586,4.547,4.635,4.566,4.6612,4.7075,4.6348,4.62,4.6828,4.841,4.6577,4.4844,4.3689,0.0,3.9647,3.799,3.6908,3.578,0.0,3.4148,3.3043,3.1411,3.1411,3.1386,3.1361,3.1361,3.1687,3.2365,3.448,3.6132,3.7312,3.8919,4.0827,4.276,4.2836,4.4116,4.5874,0.0,4.4166,4.4618,4.4593,0.0,0.0,4.2363,4.2187,0.0,0.0,0.0,0.0,0.0,0.0,0.0,0.0,0.0,0.0,3.7109,0.0,0.0,0.0,0.0,3.4525,0.0,0.0,0.0,0.0,0.0,0.0,0.0,0.0,0.0,0.0,0.0,0.0,0.0,0.0,0.0,0.0,0.0,0.0,0.0,0.0,0.0,4.1175,4.1856,4.2213,4.2238,4.2766,4.2986,4.2986,4.2986,4.2986,4.2986,4.3011,4.3589,4.4618,4.4669,4.5271,4.6301,4.6301,4.6301,4.6301,4.6301,4.6301,4.6301,4.6301,4.6301,4.6301,4.6301,4.6301,4.6301,3.9262,3.9476,3.9513,3.8996,3.9506,4.1024,4.3962,4.6431,4.796,4.786,4.8898,4.944,4.904,4.8711,4.8862,4.9791,0.0,4.7179,4.6075,4.3915,0.0,4.1856,3.9747,3.8391,0.0,3.7015,3.5686,3.4104,3.4262,3.4199,3.3943,3.3152,3.3307,3.4288,3.5527,3.6935,0.0,0.0,0.0,0.0,0.0,4.4317,4.625,0.0,0.0,4.5196,4.5196,4.4719,0.0,4.384,4.3313,4.2791,4.2911,4.2153,4.1326,4.1555,4.148,0.0,0.0,0.0,4.1028,3.8668,0.0,0.0,0.0,0.0,0.0,0.0,0.0,0.0,0.0,0.0,0.0,0.0,0.0,0.0,0.0,0.0,0.0,0.0,0.0,0.0,0.0,0.0,0.0,0.0,0.0,0.0,0.0,4.1304,4.1781,4.2213,4.274,4.2986,4.2986,4.2986,4.2986,4.2986,4.3338,4.3915,4.4644,4.502,4.5598,4.6301,4.6301,4.6301,4.6301,4.6301,4.6301,4.6301,4.6301,4.6301,4.6301,4.6301,4.6301,4.6301,4.0047,3.9833,3.9539,3.9135,4.0118,4.1898,4.4728,4.7333,4.9065,4.9226,5.0036,5.0672,5.0691,0.0,5.0193,0.0,5.0193,4.8937,4.7193,4.5949,0.0,4.384,4.2108,0.0,0.0,0.0,3.7771,3.634,3.6286,3.6064,3.5732,3.4989,3.4729,3.5041,0.0,3.7475,3.8718,0.0,4.2158,0.0,0.0,4.502,0.0,0.0,4.5974,4.5497,0.0,4.5121,4.4618,4.4618,4.4141,4.3589,4.374,4.3212,4.2459,4.2233,4.2183,4.2082,4.1451,4.1731,0.0,3.9672,3.8894,0.0,3.5805,0.0,0.0,0.0,0.0,0.0,0.0,0.0,0.0,0.0,0.0,0.0,0.0,0.0,0.0,0.0,0.0,0.0,0.0,0.0,3.4751,3.696,0.0,0.0,0.0,0.0,4.1304,4.1856,4.2409,4.2841,4.2986,4.2986,4.2986,4.2986,4.3338,4.379,4.4342,4.492,4.5497,4.6024,4.6225,4.6301,4.6301,4.6301,4.6301,4.6301,4.6301,4.6301,4.6301,4.6301,4.6301,4.6301,4.052,4.0042,3.973,3.9759,4.1616,4.3803,4.596,4.8063,4.9522,4.9734,5.0227,5.0776,5.1305,5.087,5.0971,5.2051,5.1649,5.0193,4.7494,4.7732,0.0,0.0,4.3991,4.3187,4.1526,0.0,0.0,0.0,3.746,3.7023,3.6811,3.6729,3.5923,3.4653,3.6757,0.0,3.824,4.1584,4.3614,4.4769,4.5874,4.6301,4.6301,4.6301,4.5974,4.5522,4.5522,4.5171,4.4694,4.4694,4.4694,4.4568,4.4041,4.4217,4.4317,4.2791,4.3011,4.3463,4.1827,4.1831,4.1861,4.0224,0.0,0.0,0.0,0.0,3.7965,0.0,0.0,0.0,0.0,0.0,0.0,0.0,0.0,0.0,0.0,0.0,0.0,0.0,0.0,0.0,0.0,0.0,3.3212,3.5282,3.5504,0.0,0.0,0.0,4.0701,4.1275,4.1882,4.2464,4.2961,4.2986,4.2986,4.2986,4.2986,4.3288,4.3865,4.4392,4.4945,4.5547,4.6075,4.6301,4.6301,4.6301,4.6301,4.6301,4.6301,4.6301,4.6301,4.6301,4.6301,4.6301,4.1692,4.2291,4.2989,4.3425,4.3644,4.4574,4.7032,4.8212,4.9302,5.0733,5.1382,5.1898,5.2463,5.2377,5.2402,5.2678,5.2201,0.0,0.0,0.0,0.0,4.8109,4.6552,4.5271,4.4443,4.3198,0.0,4.101,0.0,3.9569,3.955,3.8211,0.0,0.0,0.0,0.0,3.8556,4.1246,4.3489,4.5321,4.6024,4.6301,0.0,0.0,4.6225,4.61,4.61,4.5999,4.5874,4.5874,4.5598,4.5246,4.5095,4.4844,4.4543,4.4116,4.389,4.3714,4.3288,4.2961,4.2615,4.1785,4.0902,4.0049,0.0,0.0,0.0,0.0,0.0,0.0,0.0,0.0,0.0,0.0,0.0,0.0,0.0,0.0,0.0,0.0,0.0,0.0,0.0,0.0,3.4153,3.4871,0.0,0.0,0.0,0.0,0.0,4.125,4.1882,4.2464,4.2961,4.2986,4.2986,4.2986,4.2986,4.3489,4.4418,4.4568,4.5171,4.61,4.625,4.6301,4.6301,4.6301,4.6301,4.6301,4.6301,4.6301,4.6301,4.6301,4.6301,4.6301,4.3296,4.4792,4.6156,4.6505,4.6706,4.7213,4.8374,4.9075,0.0,5.1134,5.1742,0.0,5.2501,5.275,5.2929,5.2929,5.2628,0.0,5.1423,0.0,0.0,4.9264,4.8284,4.7255,4.6225,4.4814,0.0,4.3088,0.0,0.0,4.0798,0.0,0.0,0.0,0.0,3.9023,0.0,4.2318,4.4167,4.5171,4.5974,0.0,0.0,4.6301,4.6301,4.6301,4.6301,4.6301,4.6301,4.6301,4.61,4.5799,4.5573,4.5422,4.5271,4.4769,4.4593,4.4493,4.4242,4.3765,4.3263,4.2961,4.2233,4.1379,4.0601,4.0651,4.0701,0.0,0.0,0.0,0.0,0.0,0.0,0.0,0.0,0.0,0.0,0.0,0.0,0.0,0.0,0.0,0.0,0.0,0.0,0.0,0.0,0.0,0.0,0.0,0.0,4.0576,4.1379,4.2057,4.2665,4.2861,4.2986,4.2986,4.2986,4.3313,4.3915,4.4392,4.497,4.5598,4.61,4.6301,4.6301,4.6301,4.6301,4.6301,4.6301,4.6301,4.6301,4.6301,4.6301,4.6301,4.5169,4.7346,4.9059,4.8885,4.9956,0.0,0.0,5.0378,0.0,5.1358,0.0,5.2194,5.2194,5.2632,5.2929,5.2929,0.0,5.2302,5.0845,5.1599,5.1247,4.9289,4.9515,4.8987,4.7481,4.5748,4.4729,0.0,0.0,0.0,4.1076,0.0,0.0,0.0,0.0,0.0,0.0,4.373,4.4868,4.4719,4.5849,4.6301,4.6326,4.6401,4.6426,4.6426,4.6426,4.6376,4.6301,4.6301,4.6301,4.6225,4.5748,4.5924,4.6125,4.5121,4.5146,4.5372,4.4869,4.4342,4.3915,4.3915,4.3489,4.2836,4.1882,4.1551,4.1555,4.1717,4.116,4.0805,0.0,0.0,0.0,0.0,0.0,0.0,0.0,0.0,0.0,0.0,0.0,0.0,0.0,0.0,0.0,0.0,0.0,0.0,0.0,0.0,0.0,3.9772,4.0802,0.0,4.2213,0.0,4.2986,4.2986,4.2986,4.3011,4.3112,4.4141,4.4669,4.4794,4.5849,4.6301,4.6301,4.6301,4.6301,4.6301,4.6301,4.6301,4.6301,4.6301,4.6301,4.6301,4.7259,4.9349,5.0772,4.9698,5.141,5.3099,5.3388,5.2079,5.132,5.1858,5.2459,5.275,5.275,5.2822,5.2929,5.2929,5.2929,0.0,0.0,0.0,0.0,5.1548,5.072,4.9916,4.9188,4.7104,4.5936,0.0,0.0,0.0,4.1076,0.0,0.0,0.0,0.0,0.0,4.1662,4.2891,0.0,4.4719,4.5849,4.6301,4.6351,4.6803,4.6979,4.6979,4.6979,4.6702,4.6301,4.6301,4.6301,4.6301,4.62,4.6225,4.6276,4.6075,4.5773,4.5472,4.5372,4.492,4.4468,4.4468,4.4066,4.3614,4.3413,4.3011,4.2962,4.3896,4.2506,4.1584,4.3003,0.0,0.0,0.0,0.0,0.0,0.0,0.0,0.0,0.0,0.0,0.0,0.0,0.0,0.0,0.0,0.0,0.0,0.0,0.0,0.0,0.0,4.0949,0.0,0.0,0.0,4.2986,4.2986,4.2986,4.3212,4.3689,4.4317,4.4895,4.5372,4.6024,4.6301,4.6301,4.6301,4.6301,4.6301,4.6301,4.6301,4.6301,4.6301,4.6301,4.6301,5.0685,5.1759,5.2601,5.2659,0.0,0.0,0.0,5.4664,5.398,5.3306,5.2751,5.2532,5.2532,5.2717,5.2929,5.2929,5.2929,5.2929,5.2929,5.2678,5.2402,5.2126,5.1574,0.0,4.9615,4.7983,4.6938,4.6436,0.0,0.0,4.157,0.0,0.0,0.0,0.0,4.1352,0.0,0.0,0.0,4.4317,4.5748,4.6301,4.6376,4.6928,4.7068,4.7179,4.7431,4.7355,4.7054,4.6502,4.6301,4.6301,4.6301,4.6301,4.6301,4.6301,4.6125,4.5924,4.5924,4.5497,4.4995,4.4694,4.4217,4.374,4.3438,4.364,4.4042,4.4587,4.4279,4.3991,4.4398,4.3678,0.0,0.0,0.0,0.0,0.0,0.0,0.0,0.0,0.0,0.0,0.0,0.0,0.0,0.0,0.0,0.0,0.0,0.0,0.0,0.0,0.0,0.0,0.0,0.0,0.0,4.2986,4.2986,4.3112,4.3413,4.4242,4.4769,4.5095,4.5949,4.6301,4.6301,4.6301,4.6301,4.6301,4.6301,4.6301,4.6301,4.6301,4.6301,4.6301,5.382,5.4139,5.4604,0.0,5.5908,5.6326,5.6776,5.7169,5.6741,5.4638,5.3403,5.2595,5.2272,5.2641,5.2929,5.2929,5.2929,5.2929,5.2929,5.2929,5.2729,5.2302,5.2176,5.1473,5.0167,4.8912,4.7897,0.0,0.0,0.0,0.0,0.0,0.0,0.0,0.0,0.0,0.0,0.0,4.4377,4.4292,4.5849,4.6476,4.6552,4.723,4.7481,4.7531,4.7933,4.8083,4.7933,4.6979,4.6577,4.6476,4.6351,4.6301,4.6301,4.6301,4.6301,4.6301,4.6301,4.5999,4.5607,4.5421,4.4846,4.4294,4.4117,4.458,4.5101,4.5369,4.6025,4.6266,4.5188,4.4819,0.0,0.0,0.0,0.0,0.0,0.0,0.0,0.0,0.0,0.0,0.0,0.0,0.0,0.0,0.0,0.0,3.8189,3.8349,0.0,0.0,0.0,4.2111,4.1153,0.0,4.3113,0.0,4.2986,4.2986,4.3011,4.3991,4.4518,4.4694,4.5698,4.62,4.6301,4.6301,4.6301,4.6301,4.6301,4.6301,4.6301,4.6301,4.6301,4.6301,0.0,0.0,0.0,0.0,0.0,0.0,5.9015,5.8945,5.7969,5.5287,5.4825,5.4252,5.2952,5.2898,5.2929,5.2929,5.2929,5.2929,5.2929,5.2929,5.2904,5.2854,5.2377,5.2026,5.1875,5.0268,4.8847,0.0,0.0,4.4184,0.0,0.0,0.0,0.0,0.0,0.0,0.0,4.4306,4.4852,4.5422,4.6602,4.7054,4.7179,4.8209,4.8611,4.8636,4.8686,4.8686,4.8611,4.7983,4.7456,4.6979,4.6476,4.6301,4.6301,4.6301,4.6301,4.6301,4.6301,4.6276,4.65,4.7496,4.6898,4.6346,4.7403,4.684,4.6424,4.7485,4.7693,4.7004,4.479,4.5138,4.537,0.0,0.0,0.0,0.0,0.0,0.0,0.0,0.0,0.0,0.0,0.0,0.0,0.0,0.0,0.0,0.0,3.7344,3.8037,4.0353,0.0,4.1106,4.0601,4.2597,4.3393,4.2986,4.2986,4.2986,4.2986,4.3614,4.4141,4.4669,4.5296,4.5849,4.6301,4.6301,4.6301,4.6301,4.6301,4.6301,4.6301,4.6301,4.6301,4.6301,0.0,0.0,0.0,0.0,0.0,0.0,0.0,6.0425,5.9645,5.7706,5.6025,5.482,5.4216,5.4174,5.3835,5.2998,5.3632,5.3768,5.2929,5.2929,5.2929,5.2929,5.2703,5.2452,5.2126,5.1122,5.0002,0.0,0.0,4.5986,4.4729,4.3415,0.0,0.0,0.0,4.3993,4.4658,4.4649,4.5146,4.605,4.6828,4.733,4.7682,4.846,4.8761,4.8812,4.9138,4.9264,4.9188,4.8611,4.7857,4.7043,4.6878,4.6577,4.6301,4.6301,4.6301,4.6301,4.6301,4.6815,4.7398,4.756,4.751,4.7429,4.7568,4.7471,4.7434,4.792,4.8501,4.8528,4.7205,4.698,4.6737,0.0,0.0,0.0,0.0,0.0,0.0,0.0,0.0,0.0,0.0,0.0,0.0,0.0,0.0,0.0,0.0,0.0,0.0,3.9904,0.0,4.2998,4.0526,4.3014,4.3865,4.2986,4.2986,4.2986,4.3011,4.389,4.4794,4.5648,4.5874,4.61,4.6301,4.6301,4.6301,4.6301,4.6301,4.6301,4.6301,4.6301,4.6301,4.6301,5.9539,0.0,5.8639,0.0,5.9742,5.9626,6.099,6.1193,6.0863,5.983,5.7642,5.6025,5.5631,5.5591,5.5194,5.4216,5.4994,5.4994,5.3632,5.3521,5.3316,5.2929,5.2929,0.0,5.2352,5.2177,5.147,5.0058,4.9271,0.0,4.6687,0.0,0.0,0.0,4.4698,4.5248,4.5865,4.5641,4.605,4.6828,4.738,4.7832,4.8234,4.8786,4.9012,4.9063,4.9464,4.959,4.954,4.9138,4.8385,4.7581,4.7405,4.7004,4.6552,4.6552,4.6667,4.6815,4.6815,4.771,4.8625,4.8599,4.8761,4.8815,4.8609,4.8701,4.873,4.8531,4.8956,4.9262,4.8798,4.8217,4.7521,4.6679,0.0,0.0,0.0,0.0,0.0,0.0,0.0,4.1279,0.0,0.0,0.0,0.0,0.0,0.0,0.0,0.0,0.0,0.0,0.0,0.0,0.0,4.3756,4.4459,4.3517,4.3129,4.2986,4.3011,4.4116,4.5146,4.6075,4.6225,4.6301,4.6301,4.6301,4.6301,4.6301,4.6301,4.6301,4.6326,4.6502,4.6552,4.6577,6.0061,6.0177,6.038,6.1077,6.1164,6.1164,6.1193,6.1193,6.1193,6.1193,5.9953,5.8529,5.7102,5.6973,5.6973,5.6973,5.6973,5.639,5.5061,5.4927,5.435,0.0,0.0,5.2929,5.2929,5.3623,5.3123,5.1314,0.0,0.0,4.8666,0.0,4.7362,4.6976,4.749,4.7521,4.7129,4.7657,4.7883,4.7933,4.851,4.8761,4.8812,4.9364,4.959,4.959,4.959,4.959,4.959,4.959,4.9213,4.8661,4.8083,4.7531,4.7068,4.7068,4.7581,4.8094,4.8094,4.8935,5.0182,5.1347,5.1171,5.0929,5.1424,5.112,5.0481,4.9814,4.9175,4.8692,4.8663,4.8217,4.7375,4.6098,0.0,0.0,0.0,0.0,0.0,0.0,4.2295,4.1105,4.1076,0.0,0.0,0.0,0.0,0.0,0.0,0.0,0.0,4.3346,4.4124,0.0,4.366,4.4804,4.5126,4.467,4.3572,4.2986,4.3011,4.4116,4.4945,4.5522,4.6075,4.6301,4.6301,4.6301,4.6301,4.6301,4.6301,4.6301,4.6376,4.6928,4.7068,4.7205,6.0845,6.0874,6.0932,6.1164,6.1193,6.1193,6.1193,6.1193,6.1193,6.1193,6.0802,6.0348,5.9891,5.8996,5.8088,0.0,5.787,5.7834,0.0,5.6352,5.5762,5.435,5.435,5.3903,5.2929,5.3139,5.2852,5.185,0.0,0.0,0.0,4.9427,4.9267,4.8518,4.9866,5.0474,5.0306,5.0492,5.027,4.9832,5.0013,4.9785,4.9364,4.954,4.959,4.959,4.959,5.0142,5.079,4.9886,5.0687,5.1786,5.0737,4.9729,4.898,4.898,4.9495,5.0009,5.0009,5.0539,5.1237,5.1565,5.1843,5.207,5.2259,5.1439,5.0481,4.9863,4.9524,4.9378,4.9378,4.8856,4.8159,4.7317,4.6969,0.0,0.0,0.0,0.0,0.0,0.0,4.2731,0.0,4.1424,0.0,0.0,0.0,0.0,0.0,0.0,0.0,0.0,4.5042,0.0,4.371,4.6022,4.6365,4.467,4.4315,4.4122,4.4116,4.4869,4.5522,4.605,4.6225,4.6301,4.6301,4.6301,4.6301,4.6301,4.6301,4.6301,4.6326,4.6502,4.6577,4.6602,6.1193,6.1193,6.1193,6.1193,6.1193,6.1193,6.1193,6.1193,6.1193,6.1193,6.1193,6.1193,6.1193,6.0409,0.0,5.8655,5.9369,5.9307,5.787,5.7806,5.7167,5.5828,5.5762,5.5326,5.4459,0.0,0.0,5.3941,5.3763,5.28,5.1281,5.182,5.1847,5.1489,5.216,5.2538,5.2729,5.2009,5.1421,5.0995,5.0995,5.0732,5.0372,5.0879,5.1068,5.1068,5.1068,5.1606,5.2139,5.1356,5.2165,5.3362,5.2508,5.2124,5.1868,5.109,5.1377,5.1895,5.1895,5.2296,5.275,5.275,5.2828,5.2862,5.2681,5.1585,5.0589,5.0133,4.9892,4.9717,4.9717,4.9349,4.8798,4.7927,4.7433,4.6882,4.6011,0.0,0.0,0.0,0.0,0.0,0.0,4.2818,0.0,0.0,0.0,0.0,0.0,0.0,0.0,4.324,4.6211,0.0,4.5602,4.7169,4.728,4.5926,4.5312,4.5314,4.5887,4.5606,4.607,4.6909,4.6481,4.6301,4.6301,4.6301,4.6301,4.6301,4.6301,4.6301,4.6326,4.6552,4.6627,4.6652,6.1193,6.1193,6.1193,0.0,6.1193,0.0,6.1193,6.1193,6.1193,6.1193,6.1193,6.1193,6.1193,6.1193,6.1193,6.1193,0.0,0.0,0.0,5.9245,5.8592,5.7231,5.7167,5.7102,5.6973,5.8277,5.834,5.6973,5.6441,5.5934,5.5426,5.4862,5.4951,5.5469,5.4412,5.4194,5.4542,5.2801,5.1944,5.1741,5.1793,5.1793,5.1741,5.2998,5.351,5.351,5.351,5.3598,5.3685,5.3571,5.3658,5.3806,5.3691,5.4501,5.5154,5.3339,5.3287,5.3811,5.3811,5.4164,5.4575,5.4575,5.4081,5.3413,5.2717,5.1664,5.0714,5.0685,5.0182,4.9717,4.9717,4.964,4.9204,4.7985,4.7753,4.7288,4.6069,0.0,0.0,0.0,0.0,0.0,0.0,4.4095,4.4327,0.0,0.0,0.0,0.0,0.0,4.4298,4.672,4.7433,4.8072,4.8663,4.834,4.81,4.8055,4.6464,4.6616,4.8137,4.6559,4.666,4.8035,4.6934,4.6361,4.6301,4.6301,4.6301,4.6301,4.6301,4.6301,4.6376,4.6878,4.7079,4.7191,0.0,0.0,6.1193,6.1193,6.1193,6.1193,6.1193,6.1193,6.1193,6.1193,6.1193,6.1193,6.1193,6.1193,6.1193,6.1193,6.1193,6.1073,6.0742,6.0681,6.0075,5.8655,5.8592,5.8088,5.7038,5.7295,5.7359,5.6973,5.6441,5.6151,5.5988,5.6443,5.6707,5.6847,5.7582,5.771,5.7395,5.7444,5.6283,5.4529,5.5026,5.4315,5.3059,5.3362,5.351,5.351,5.351,5.4473,5.5464,5.4008,5.513,5.6906,5.5435,5.5818,5.6566,5.5157,5.5225,5.5755,5.5755,5.5458,5.5184,5.5184,5.4749,5.3965,5.2833,5.1962,5.1265,5.0772,5.0182,4.9717,4.9717,4.9291,4.8682,4.7898,4.7375,4.6766,4.5982,4.5895,0.0,0.0,4.5343,4.5401,4.4734,4.514,4.5285,0.0,0.0,0.0,0.0,4.5169,4.5692,4.6749,4.7433,4.8072,4.8663,4.9106,4.913,4.8724,4.8408,4.846,4.8871,4.8879,4.8599,4.8094,4.7802,4.7146,4.6301,4.6301,4.6301,4.6301,4.6301,4.6421,4.6686,4.6813,4.6958,4.7197,6.1193,6.1193,6.1193,6.1193,6.1193,6.1193,6.1193,6.1193,6.1193,6.1193,6.1193,6.1193,6.1193,6.1193,6.1193,6.1193,6.1193,6.1193,6.1193,6.1193,6.0863,6.0075,6.0104,5.9707,5.8933,5.8905,5.8905,5.8905,5.8659,5.8491,5.8463,5.8604,5.8763,5.908,5.9216,5.9248,5.9103,5.8605,5.7556,5.6283,5.6679,5.6177,5.527,5.5926,5.6164,5.6164,5.6164,5.6804,5.7532,5.6514,5.7304,5.8581,5.754,5.7686,5.8089,5.7367,5.7024,5.681,5.681,5.6345,5.5794,5.5474,5.4952,5.4342,5.3617,5.2746,5.1962,5.1664,5.0851,5.0182,5.0182,4.9349,4.8508,4.7898,4.7259,4.6621,4.5982,4.5895,0.0,4.5372,4.5924,4.6185,4.5808,4.6359,4.6475,4.5837,4.5779,0.0,4.5779,4.6127,4.6592,4.7259,4.7898,4.8508,4.9146,4.9814,5.0175,5.0201,4.9953,5.0129,5.0696,5.0132,4.9845,4.9648,4.8589,4.7769,4.7087,4.6541,4.6301,4.6326,4.6506,4.6778,4.7161,4.7341,4.7675,4.806,6.1193,6.1193,6.1193,6.1193,6.1193,6.1193,6.1193,6.1193,6.1193,6.1193,6.1193,6.1193,6.1193,6.1193,6.1193,6.1193,6.1193,6.1193,6.1193,6.1193,6.1193,6.1193,6.1193,6.1193,6.1193,6.1193,6.1193,6.1193,6.1193,6.1193,6.1193,6.0613,6.0642,6.1164,6.0061,5.9829,6.0089,5.8529,5.7796,5.7627,5.7712,5.7683,5.7746,5.8839,5.9306,5.9306,5.9306,5.9364,5.9422,5.9335,5.9364,5.9422,5.9335,5.9306,5.9306,5.9306,5.8493,5.7594,5.7477,5.7013,5.6374,5.5736,5.5184,5.4749,5.4546,5.3588,5.2688,5.2652,5.1643,5.0801,5.0685,4.9698,4.8624,4.7898,4.7259,4.6621,4.5982,0.0,4.5924,4.6011,4.6505,4.6807,4.6969,4.7462,4.755,4.6981,4.6969,4.6969,4.6969,4.701,4.7404,4.8043,4.8595,4.9233,4.9959,5.0627,5.1236,5.1759,5.138,5.1718,5.2665,5.1123,5.0906,5.1565,4.9619,4.8589,4.8384,4.746,4.7095,4.7155,4.7419,4.7812,4.8154,4.8378,4.886,4.9438,6.1193,6.1193,6.1193,6.1193,6.1193,6.1193,6.1193,6.1193,6.1193,6.1193,6.1193,6.1193,6.1193,6.1193,6.1193,6.1193,6.1193,6.1193,6.1193,6.1193,6.1193,6.1193,6.1193,6.1193,6.1193,6.1193,6.1193,6.1193,6.1193,6.1193,6.1193,6.1077,6.1106,6.1193,6.099,6.0642,6.0235,6.0492,5.9967,5.9014,5.9534,5.9419,5.8985,5.9248,5.9306,5.9306,5.9306,5.9626,5.9974,5.948,5.9626,5.9974,5.9451,5.9306,5.9306,5.9306,5.9161,5.8871,5.829,5.7681,5.7013,5.6403,5.6171,5.5823,5.4749,5.3907,5.321,5.2688,5.1991,5.1294,5.0772,5.0046,4.9146,4.7956,4.7259,4.6621,4.5982,0.0,4.6098,4.6621,4.672,4.7027,4.7579,4.7724,4.7753,4.7637,4.7637,4.7637,4.7637,4.813,4.8711,4.9349,4.9494,5.0104,5.1294,5.1962,5.2362,5.2426,5.2908,5.3198,5.3384,5.3073,5.2487,5.1674,5.1511,5.0879,5.0014,5.0617,5.0835,5.0892,5.0892,5.0814,5.0682,5.0116,5.0564,5.1218,6.1193,6.1193,6.1193,6.1193,6.1193,6.1193,6.1193,6.1193,6.1193,6.1193,6.1193,6.1193,6.1193,6.1193,6.1193,6.1193,6.1193,6.1193,6.1193,6.1193,6.1193,6.1193,6.1193,6.1193,6.1193,6.1193,6.1193,6.1193,6.1193,6.1193,6.1193,6.1193,6.1193,6.1193,6.1193,6.1019,6.0758,6.1077,6.0874,6.0351,6.0642,6.0584,6.0322,6.0322,6.0322,6.0322,6.0322,6.0496,6.07,6.0409,6.0496,6.07,6.0409,6.0322,6.0322,6.0322,5.9829,5.9248,5.8929,5.8348,5.7768,5.7507,5.6926,5.6258,5.5678,5.4778,5.3965,5.3675,5.2833,5.2049,5.1759,5.0598,4.9659,4.9427,4.7927,0.0,0.0,4.6824,4.6621,4.7259,4.7637,4.7956,4.8246,4.8595,4.8653,4.8304,4.8275,4.8449,4.8769,4.9088,4.9698,5.0685,5.0714,5.1178,5.2107,5.2426,5.2746,5.3094,5.3384,5.35,5.35,5.35,5.329,5.2861,5.2352,5.1892,5.1511,5.1627,5.1708,5.1736,5.2322,5.2593,5.2743,5.2584,5.3061,5.3671,6.1193,6.1193,6.1193,6.1193,6.1193,6.1193,6.1193,6.1193,6.1193,6.1193,6.1193,6.1193,6.1193,6.1193,6.1193,6.1193,6.1193,6.1193,6.1193,6.1193,6.1193,6.1193,6.1193,6.1193,6.1193,6.1193,6.1193,6.1193,6.1193,6.1193,6.1193,6.1193,6.1193,6.1193,6.1193,6.1193,6.1193,6.1193,6.1193,6.1193,6.1193,6.1193,6.1193,6.1193,6.1193,6.1193,6.1193,6.1193,6.1193,6.1193,6.1193,6.1193,6.1193,6.1193,6.1193,6.1193,6.0496,5.9713,5.9539,5.8929,5.829,5.829,5.7448,5.6578,5.6432,5.5649,5.4923,5.4749,5.382,5.2978,5.2833,5.1439,5.0365,5.0452,0.0,0.0,0.0,4.7851,4.7579,4.8362,4.8885,4.9233,4.9378,4.9843,4.9872,4.9233,4.9272,4.9553,4.9872,5.0075,5.0685,5.1817,5.1846,5.2136,5.2775,5.2804,5.3036,5.35,5.35,5.3588,5.3838,5.3838,5.4054,5.441,5.3559,5.3263,5.3452,5.3295,5.3218,5.3246,5.4034,5.4488,5.4769,5.4884,5.531,5.579,6.1193,6.1193,6.1193,6.1193,6.1193,6.1193,6.1193,6.1193,6.1193,6.1193,6.1193,6.1193,6.1193,6.1193,6.1193,6.1193,6.1193,6.1193,6.1193,6.1193,6.1193,6.1193,6.1193,6.1193,6.1193,6.1193,6.1193,6.1193,6.1193,6.1193,6.1193,6.1193,6.1193,6.1193,6.1193,6.1193,6.1193,6.1193,6.1193,6.1193,6.1193,6.1193,6.1193,6.1193,6.1193,6.1193,6.1193,6.1193,6.1193,6.1193,6.1193,6.1193,6.1193,6.1193,6.1193,6.1193,6.1135,6.0932,6.0293,5.9248,5.829,5.829,5.7768,5.71,5.6549,5.6345,5.6084,5.5474,5.4836,5.4168,5.3559,5.2833,5.1788,5.0075,0.0,0.0,4.8798,4.8605,4.9059,5.0307,5.0511,5.0772,5.1352,5.1439,5.1207,5.0569,5.1062,5.1178,5.0627,5.1149,5.1788,5.2484,5.2565,5.2804,5.3442,5.3442,5.3471,5.35,5.35,5.3978,5.4797,5.4797,5.5278,5.6131,5.6261,5.6367,5.6479,5.7292,5.7642,5.7642,5.7702,5.7408,5.6874,5.6379,5.6582,5.6905,6.1193,6.1193,6.1193,6.1193,6.1193,6.1193,6.1193,6.1193,6.1193,6.1193,6.1193,6.1193,6.1193,6.1193,6.1193,6.1193,6.1193,6.1193,6.1193,6.1193,6.1193,6.1193,6.1193,6.1193,6.1193,6.1193,6.1193,6.1193,6.1193,6.1193,6.1193,6.1193,6.1193,6.1193,6.1193,6.1193,6.1193,6.1193,6.1193,6.1193,6.1193,6.1193,6.1193,6.1193,6.1193,6.1193,6.1193,6.1193,6.1193,6.1193,6.1193,6.1193,6.1193,6.1193,6.1193,6.1193,6.1193,6.1135,6.0874,6.0148,5.948,5.948,5.8697,5.7855,5.7623,5.6984,5.6345,5.6084,5.5533,5.4981,5.4749,5.3849,5.3065,5.2746,0.0,5.0481,5.1033,5.0423,5.0249,5.1149,5.1265,5.1352,5.1585,5.1614,5.1527,5.1294,5.1468,5.1701,5.1897,5.2455,5.292,5.3152,5.3152,5.3268,5.35,5.35,5.3733,5.4139,5.4269,5.5007,5.6138,5.63,5.6922,5.7759,5.7476,5.7404,5.7594,5.7969,5.8112,5.8171,5.859,5.8589,5.8356,5.8119,5.8178,5.8331,6.1193,6.1193,6.1193,6.1193,6.1193,6.1193,6.1193,6.1193,6.1193,6.1193,6.1193,6.1193,6.1193,6.1193,6.1193,6.1193,6.1193,6.1193,6.1193,6.1193,6.1193,6.1193,6.1193,6.1193,6.1193,6.1193,6.1193,6.1193,6.1193,6.1193,6.1193,6.1193,6.1193,6.1193,6.1193,6.1193,6.1193,6.1193,6.1193,6.1193,6.1193,6.1193,6.1193,6.1193,6.1193,6.1193,6.1193,6.1193,6.1193,6.1193,6.1193,6.1193,6.1193,6.1193,6.1193,6.1193,6.1193,6.1193,6.1193,6.0874,6.0467,6.0264,5.9393,5.861,5.861,5.7768,5.7013,5.7013,5.6316,5.5707,5.5707,5.4836,5.4139,5.4197,5.2717,5.1788,5.2484,5.1868,5.1497,5.2136,5.2223,5.2223,5.2223,5.2223,5.2136,5.1933,5.2107,5.2397,5.2833,5.3297,5.3617,5.382,5.382,5.3907,5.411,5.3936,5.4139,5.4807,5.5099,5.5869,5.7063,5.7306,5.7932,5.8828,5.8351,5.825,5.8441,5.8441,5.8441,5.8471,5.8919,5.9099,5.9099,5.9099,5.9099,5.9099,6.1193,6.1193,6.1193,6.1193,6.1193,6.1193,6.1193,6.1193,6.1193,6.1193,6.1193,6.1193,6.1193,6.1193,6.1193,6.1193,6.1193,6.1193,6.1193,6.1193,6.1193,6.1193,6.1193,6.1193,6.1193,6.1193,6.1193,6.1193,6.1193,6.1193,6.1193,6.1193,6.1193,6.1193,6.1193,6.1193,6.1193,6.1193,6.1193,6.1193,6.1193,6.1193,6.1193,6.1193,6.1193,6.1193,6.1193,6.1193,6.1193,6.1193,6.1193,6.1193,6.1193,6.1193,6.1193,6.1193,6.1193,6.1193,6.1193,6.1193,6.1048,6.038,5.9742,5.9306,5.9306,5.8784,5.8319,5.8319,5.7303,5.6432,5.6432,5.5881,5.501,5.3733,5.353,5.3297,5.2739,5.2652,5.2833,5.3442,5.353,5.353,5.353,5.353,5.3268,5.2681,5.3152,5.35,5.353,5.353,5.382,5.4517,5.4517,5.4807,5.5416,5.4807,5.4807,5.5416,5.5771,5.6393,5.7311,5.7576,5.8202,5.9129,5.9129,5.9129,5.9129,5.9099,5.9099,5.9099,5.9099,5.9099,5.9099,5.9099,5.9099,5.9099,6.1193,6.1193,6.1193,6.1193,6.1193,6.1193,6.1193,6.1193,6.1193,6.1193,6.1193,6.1193,6.1193,6.1193,6.1193,6.1193,6.1193,6.1193,6.1193,6.1193,6.1193,6.1193,6.1193,6.1193,6.1193,6.1193,6.1193,6.1193,6.1193,6.1193,6.1193,6.1193,6.1193,6.1193,6.1193,6.1193,6.1193,6.1193,6.1193,6.1193,6.1193,6.1193,6.1193,6.1193,6.1193,6.1193,6.1193,6.1193,6.1193,6.1193,6.1193,6.1193,6.1193,6.1193,6.1193,6.1193,6.1193,6.1193,6.1193,6.1193,6.1164,6.0961,6.0409,5.9916,5.9916,5.9451,5.9016,5.9016,5.8319,5.7739,5.7739,5.6839,5.5997,5.562,5.5155,5.4778,5.4575,5.4546,5.4633,5.4807,5.4836,5.4691,5.4255,5.4226,5.3936,5.3297,5.3413,5.3733,5.4197,5.4226,5.4517,5.5126,5.5126,5.5445,5.6113,5.5692,5.58,5.6359,5.6903,5.7818,5.897,5.927,5.9822,6.0475,5.9997,5.9787,5.9757,5.9308,5.9099,5.9099,5.9099,5.9099,5.9099,5.9099,5.9099,5.9099,6.1193,6.1193,6.1193,6.1193,6.1193,6.1193,6.1193,6.1193,6.1193,6.1193,6.1193,6.1193,6.1193,6.1193,6.1193,6.1193,6.1193,6.1193,6.1193,6.1193,6.1193,6.1193,6.1193,6.1193,6.1193,6.1193,6.1193,6.1193,6.1193,6.1193,6.1193,6.1193,6.1193,6.1193,6.1193,6.1193,6.1193,6.1193,6.1193,6.1193,6.1193,6.1193,6.1193,6.1193,6.1193,6.1193,6.1193,6.1193,6.1193,6.1193,6.1367,6.1542,6.1542,6.1542,6.1542,6.1542,6.1396,6.1193,6.1193,6.1193,6.1193,6.1193,6.0903,6.0584,6.0584,6.0119,5.9655,5.9655,5.9132,5.8697,5.8697,5.7855,5.7071,5.681,5.6229,5.5707,5.5445,5.5416,5.5416,5.5416,5.5416,5.5271,5.4894,5.4865,5.4691,5.4284,5.4255,5.4429,5.4836,5.4865,5.5155,5.5794,5.5823,5.6168,5.6948,5.687,5.6925,5.7196,5.7799,5.854,5.9313,5.9588,5.9937,6.0296,5.9877,5.9697,5.9668,5.9279,5.9099,5.9099,5.9099,5.9099,5.9099,5.9099,5.9099,5.9099,6.1193,6.1193,6.1193,6.1193,6.1193,6.1193,6.1193,6.1193,6.1193,6.1193,6.1193,6.1193,6.1193,6.1193,6.1193,6.1193,6.1193,6.1193,6.1193,6.1193,6.1193,6.1193,6.1193,6.1193,6.1193,6.1193,6.1193,6.1193,6.1193,6.1193,6.1193,6.1193,6.1193,6.1193,6.1193,6.1193,6.1193,6.1193,6.1193,6.1193,6.1193,6.1193,6.1193,6.1193,6.1193,6.1193,6.1193,6.1193,6.1193,6.1193,6.1571,6.2006,6.2006,6.2064,6.2093,6.2093,6.1716,6.128,6.128,6.1251,6.1193,6.1193,6.1193,6.1193,6.1193,6.0729,6.0293,6.0293,5.98,5.9393,5.9393,5.8842,5.8174,5.7507,5.6926,5.6345,5.5678,5.5591,5.5591,5.5591,5.5591,5.5562,5.5503,5.5445,5.5416,5.5416,5.5416,5.5445,5.5558,5.5558,5.5849,5.6517,5.6546,5.6974,5.7836,5.8114,5.8114,5.7892,5.8445,5.8748,5.8719,5.8991,5.9099,5.9099,5.9099,5.9099,5.9099,5.9099,5.9099,5.9099,5.9099,5.9099,5.9099,5.9099,5.9099,5.9099,6.1193,6.1193,6.1193,6.1193,6.1193,6.1193,6.1193,6.1193,6.1193,6.1193,6.1193,6.1193,6.1193,6.1193,6.1193,6.1193,6.1193,6.1193,6.1193,6.1193,6.1193,6.1193,6.1193,6.1193,6.1193,6.1193,6.1193,6.1193,6.1193,6.1193,6.1193,6.1193,6.1193,6.1193,6.1193,6.1193,6.1193,6.1193,6.1193,6.1193,6.1193,6.1193,6.1193,6.1193,6.1193,6.1193,6.1193,6.1193,6.1193,6.1193,6.128,6.1396,6.1396,6.1716,6.2093,6.2093,6.2006,6.189,6.189,6.1542,6.1193,6.1193,6.1193,6.1193,6.1193,6.1077,6.099,6.099,6.0467,6.0003,6.0003,5.951,5.8871,5.8203,5.7971,5.7652,5.6984,5.6897,5.6897,5.6897,5.6897,5.6723,5.6229,5.5707,5.5416,5.5416,5.5416,5.5729,5.6472,5.6501,5.6903,5.7768,5.7823,5.7912,5.8085,5.8445,5.8555,5.85,5.8828,5.8991,5.8991,5.9045,5.9099,5.9099,5.9099,5.9099,5.9099,5.9099,5.9099,5.9099,5.9099,5.9099,5.9099,5.9099,5.9099,5.9099,6.1193,6.1193,6.1193,6.1193,6.1193,6.1193,6.1193,6.1193,6.1193,6.1193,6.1193,6.1193,6.1193,6.1193,6.1193,6.1193,6.1193,6.1193,6.1193,6.1193,6.1193,6.1193,6.1193,6.1193,6.1193,6.1193,6.1193,6.1193,6.1193,6.1193,6.1193,6.1193,6.1193,6.1193,6.1193,6.1193,6.1193,6.1193,6.1193,6.1193,6.1193,6.1193,6.1193,6.1193,6.1193,6.1222,6.1513,6.1832,6.2093,6.2093,6.2296,6.2558,6.2558,6.2761,6.3022,6.3022,6.279,6.2558,6.2558,6.2244,6.187,6.187,6.1757,6.1523,6.1253,6.1193,6.1193,6.1193,6.0932,6.0671,6.0671,6.0148,5.9626,5.9248,5.8958,5.8668,5.829,5.7971,5.7768,5.7768,5.7507,5.7187,5.6868,5.652,5.6316,5.6316,5.6427,5.6738,5.7254,5.7394,5.7706,5.8195,5.8195,5.8427,5.8889,5.8787,5.8952,5.9359,5.9194,5.9099,5.9099,5.9099,5.9099,5.9099,5.9099,5.9099,5.9099,5.9099,5.9099,5.9099,5.9099,5.9099,5.9099,5.9099,5.9099,5.9099,6.1193,6.1193,6.1193,6.1193,6.1193,6.1193,6.1193,6.1193,6.1193,6.1193,6.1193,6.1193,6.1193,6.1193,6.1193,6.1193,6.1193,6.1251,6.1338,6.1338,6.1338,6.1338,6.1338,6.1309,6.1193,6.1193,6.1193,6.1193,6.1193,6.1193,6.1193,6.1193,6.1193,6.1193,6.1193,6.1193,6.1193,6.1193,6.1251,6.1338,6.1338,6.1425,6.1513,6.1396,6.1425,6.1571,6.1948,6.259,6.3204,6.3204,6.3553,6.3989,6.3989,6.4076,6.4164,6.4164,6.3848,6.344,6.344,6.3158,6.2875,6.2875,6.2674,6.2322,6.1814,6.1519,6.1313,6.1313,6.1313,6.1313,6.1193,6.0788,6.0382,6.0206,5.9771,5.9422,5.9306,5.8813,5.8435,5.8319,5.7766,5.736,5.736,5.736,5.736,5.736,5.7669,5.7836,5.7948,5.8169,5.8335,5.836,5.8479,5.8914,5.9755,5.9339,5.9508,6.0266,5.9578,5.9219,5.9099,5.9099,5.9099,5.9099,5.9099,5.9099,5.9099,5.9099,5.9099,5.9099,5.9099,5.9099,5.9099,5.9099,5.9099,5.9099,6.1193,6.1193,6.1193,6.1193,6.1193,6.1193,6.1193,6.1193,6.1193,6.1193,6.1193,6.1193,6.1193,6.1193,6.1193,6.1193,6.1193,6.1425,6.1948,6.1977,6.1977,6.1977,6.1977,6.1716,6.1222,6.1193,6.1193,6.1193,6.1193,6.1193,6.1193,6.1193,6.1193,6.1193,6.1193,6.1193,6.1193,6.1193,6.1483,6.1977,6.1977,6.2325,6.2761,6.218,6.2325,6.2761,6.2267,6.2712,6.3512,6.3512,6.3816,6.4119,6.4119,6.444,6.4882,6.4882,6.4823,6.4735,6.4735,6.4354,6.3914,6.3914,6.3855,6.3767,6.3736,6.2793,6.188,6.1613,6.1791,6.1821,6.1313,6.1316,6.1114,6.0352,6.0119,5.9887,5.9364,5.9219,5.8958,5.8377,5.7936,5.7725,5.7725,5.7725,5.7725,5.7725,5.7781,5.8003,5.8584,5.8609,5.8719,5.8991,5.9558,5.9887,6.0031,6.054,6.0839,6.0954,6.0296,5.9668,5.9099,5.9099,5.9099,5.9099,5.9099,5.9099,5.9099,5.9099,5.9099,5.9099,5.9099,5.9099,5.9099,5.9099,5.9099,5.9099,6.1193,6.1193,6.1193,6.1193,6.1193,6.1193,6.1193,6.1193,6.1193,6.1193,6.1193,6.1193,6.1193,6.1193,6.1193,6.1193,6.1193,6.1309,6.1571,6.16,6.16,6.16,6.16,6.1454,6.1222,6.1193,6.1193,6.1193,6.1193,6.1193,6.1193,6.1193,6.1193,6.1193,6.1193,6.1193,6.1222,6.1542,6.1861,6.2122,6.2744,6.3126,6.336,6.3222,6.3432,6.3635,6.3693,6.4256,6.4967,6.4967,6.5029,6.5153,6.5153,6.5329,6.5565,6.5565,6.5565,6.5565,6.5565,6.5217,6.4898,6.4898,6.4752,6.4605,6.4605,6.4159,6.3446,6.2587,6.2233,6.1939,6.1523,6.1673,6.1703,6.1055,6.1144,6.1175,6.0911,6.056,5.9945,5.892,5.8483,5.8217,5.8033,5.8059,5.8059,5.8059,5.8169,5.839,5.8694,5.9185,5.9558,5.9638,6.0296,6.0835,6.1194,6.1134,6.1313,6.1642,6.0984,6.0505,6.0206,5.9817,5.9668,5.9668,5.9668,5.9458,5.9099,5.9099,5.9099,5.9099,5.9099,5.9099,5.9099,5.9099,5.9099,5.9099]}]]